DW2923 Weather Reports


Display with metric or nautical units.
time (UTC)temp
F
wind
direction
speed
MPH
gust
MPH
rain 1hr
in
rain 24hr
in
rain mn
in
humidity
%
barometer
mb
20190326002128 53 272 4.0 12.0 0.00 0.00 0.00 71 1011.4
20190326002126 53 242 4.0 12.0 0.00 0.00 0.00 71 1011.2
20190326002017 53 249 5.0 12.0 0.00 0.00 0.00 71 1011.3
20190326002014 53 248 5.0 12.0 0.00 0.00 0.00 71 1011.2
20190326001927 53 267 5.0 12.0 0.00 0.00 0.00 70 1011.3
20190326001925 53 237 5.0 12.0 0.00 0.00 0.00 70 1011.2
20190326001822 53 246 5.0 12.0 0.00 0.00 0.00 71 1011.4
20190326001814 53 246 5.0 12.0 0.00 0.00 0.00 71 1011.2
20190326001731 53 186 4.0 13.0 0.00 0.00 0.00 71 1011.4
20190326001725 53 220 4.0 13.0 0.00 0.00 0.00 71 1011.1
20190326001619 53 214 3.0 13.0 0.00 0.00 0.00 70 1011.3
20190326001616 53 229 3.0 13.0 0.00 0.00 0.00 70 1011.2
20190326001530 53 221 5.0 13.0 0.00 0.00 0.00 70 1011.4
20190326001527 53 201 5.0 13.0 0.00 0.00 0.00 70 1011.2
20190326001420 53 252 7.0 14.0 0.00 0.00 0.00 69 1011.3
20190326001326 53 230 6.0 14.0 0.00 0.00 0.00 69 1011.2
20190326001315 53 246 6.0 14.0 0.00 0.00 0.00 69 1011.3
20190326001235 53 237 6.0 14.0 0.00 0.00 0.00 69 1011.2
20190326001226 53 247 6.0 14.0 0.00 0.00 0.00 69 1011.3
20190326001133 53 249 4.0 14.0 0.00 0.00 0.00 68 1011.3
20190326001128 53 248 4.0 14.0 0.00 0.00 0.00 68 1011.2
20190326001021 53 223 7.0 14.0 0.00 0.00 0.00 68 1011.3
20190326001018 53 242 7.0 14.0 0.00 0.00 0.00 68 1011.1
20190326000929 53 228 5.0 14.0 0.00 0.00 0.00 68 1011.3
20190326000927 53 250 5.0 14.0 0.00 0.00 0.00 68 1011.2
20190326000835 54 300 3.0 14.0 0.00 0.00 0.00 68 1011.1
20190326000821 54 298 4.0 14.0 0.00 0.00 0.00 67 1011.2
20190326000730 54 258 7.0 14.0 0.00 0.00 0.00 66 1011.2
20190326000723 54 260 7.0 14.0 0.00 0.00 0.00 66 1011.1
20190326000618 54 252 10.0 14.0 0.00 0.00 0.00 66 1011.2
20190326000615 54 237 10.0 14.0 0.00 0.00 0.00 66 1011.1
20190326000526 54 254 5.0 14.0 0.00 0.00 0.00 67 1011.1
20190326000433 54 288 4.0 16.0 0.00 0.00 0.00 66 1011.1
20190326000322 54 241 5.0 16.0 0.00 0.00 0.00 66 1011.1
20190326000320 54 241 5.0 16.0 0.00 0.00 0.00 66 1011.2
20190326000230 54 248 6.0 16.0 0.00 0.00 0.00 65 1011.1
20190326000137 54 258 5.0 16.0 0.00 0.00 0.00 65 1011.0
20190326000133 54 259 6.0 16.0 0.00 0.00 0.00 65 1011.1
20190326000034 54 41 5.0 16.0 0.00 0.00 0.00 65 1011.1
20190326000027 54 250 5.0 16.0 0.00 0.00 0.00 65 1011.1
20190325235935 54 172 6.0 16.0 0.00 0.00 0.00 64 1011.0
20190325235922 54 252 7.0 16.0 0.00 0.00 0.00 64 1011.1
20190325235832 54 240 8.0 16.0 0.00 0.00 0.00 64 1011.1
20190325235823 54 290 7.0 16.0 0.00 0.00 0.00 64 1011.1
20190325235723 54 236 7.0 16.0 0.00 0.00 0.00 64 1011.2
20190325235715 54 245 7.0 16.0 0.00 0.00 0.00 63 1011.1
20190325235624 55 235 12.0 16.0 0.00 0.00 0.00 63 1011.1
20190325235619 55 253 12.0 16.0 0.00 0.00 0.00 63 1011.1
20190325235533 55 209 8.0 14.0 0.00 0.00 0.00 64 1011.1
20190325235526 55 208 7.0 14.0 0.00 0.00 0.00 64 1011.1
20190325235420 55 306 5.0 12.0 0.00 0.00 0.00 63 1011.1
20190325235413 55 300 5.0 12.0 0.00 0.00 0.00 63 1011.1
20190325235329 55 260 4.0 12.0 0.00 0.00 0.00 63 1011.1
20190325235324 55 332 4.0 12.0 0.00 0.00 0.00 63 1011.1
20190325235221 55 240 5.0 12.0 0.00 0.00 0.00 63 1011.1
20190325235213 55 288 6.0 12.0 0.00 0.00 0.00 63 1011.1
20190325235129 55 171 4.0 12.0 0.00 0.00 0.00 63 1011.1
20190325235124 55 246 5.0 12.0 0.00 0.00 0.00 63 1011.1
20190325235021 55 236 5.0 12.0 0.00 0.00 0.00 62 1011.1
20190325235016 55 240 6.0 12.0 0.00 0.00 0.00 62 1011.1
20190325234929 55 211 6.0 12.0 0.00 0.00 0.00 62 1011.1
20190325234926 55 218 6.0 12.0 0.00 0.00 0.00 62 1011.1
20190325234835 55 234 5.0 9.0 0.00 0.00 0.00 62 1011.0
20190325234819 55 260 5.0 10.0 0.00 0.00 0.00 62 1011.1
20190325234727 55 252 5.0 10.0 0.00 0.00 0.00 62 1011.1
20190325234724 55 260 5.0 10.0 0.00 0.00 0.00 62 1011.1
20190325234631 55 273 4.0 10.0 0.00 0.00 0.00 62 1011.1
20190325234619 55 249 4.0 10.0 0.00 0.00 0.00 62 1011.0
20190325234531 55 250 4.0 10.0 0.00 0.00 0.00 62 1011.0
20190325234523 55 191 4.0 10.0 0.00 0.00 0.00 62 1011.0
20190325234435 55 278 4.0 10.0 0.00 0.00 0.00 61 1011.0
20190325234418 55 222 4.0 10.0 0.00 0.00 0.00 61 1011.0
20190325234322 56 198 4.0 10.0 0.00 0.00 0.00 61 1011.0
20190325234236 56 213 5.0 10.0 0.00 0.00 0.00 61 1010.9
20190325234214 56 236 4.0 14.0 0.00 0.00 0.00 61 1010.9
20190325234127 56 204 4.0 10.0 0.00 0.00 0.00 61 1010.9
20190325234125 56 209 4.0 14.0 0.00 0.00 0.00 61 1010.9
20190325234017 56 215 3.0 14.0 0.00 0.00 0.00 61 1010.8
20190325233925 56 271 6.0 14.0 0.00 0.00 0.00 61 1010.8
20190325233923 56 271 6.0 10.0 0.00 0.00 0.00 61 1010.8
20190325233834 56 266 6.0 14.0 0.00 0.00 0.00 61 1010.7
20190325233832 56 266 6.0 11.0 0.00 0.00 0.00 61 1010.7
20190325233724 56 272 4.0 14.0 0.00 0.00 0.00 61 1010.8
20190325233720 56 219 4.0 13.0 0.00 0.00 0.00 61 1010.8
20190325233633 56 244 4.0 13.0 0.00 0.00 0.00 61 1010.8
20190325233615 56 185 4.0 14.0 0.00 0.00 0.00 61 1010.8
20190325233531 56 201 5.0 14.0 0.00 0.00 0.00 61 1010.8
20190325233520 56 231 5.0 13.0 0.00 0.00 0.00 61 1010.8
20190325233428 56 261 5.0 13.0 0.00 0.00 0.00 60 1010.7
20190325233418 56 217 6.0 14.0 0.00 0.00 0.00 60 1010.7
20190325233326 56 241 6.0 14.0 0.00 0.00 0.00 60 1010.7
20190325233315 56 244 6.0 17.0 0.00 0.00 0.00 60 1010.7
20190325233235 56 215 3.0 14.0 0.00 0.00 0.00 60 1010.6
20190325233224 56 246 3.0 17.0 0.00 0.00 0.00 60 1010.7
20190325233123 56 250 5.0 14.0 0.00 0.00 0.00 60 1010.6
20190325233116 56 247 5.0 17.0 0.00 0.00 0.00 60 1010.6
20190325233031 56 251 7.0 14.0 0.00 0.00 0.00 60 1010.5
20190325233026 56 297 7.0 17.0 0.00 0.00 0.00 60 1010.5
20190325232922 56 256 7.0 14.0 0.00 0.00 0.00 59 1010.5
20190325232914 56 261 6.0 17.0 0.00 0.00 0.00 59 1010.6
20190325232831 56 292 3.0 14.0 0.00 0.00 0.00 59 1010.6
20190325232825 56 286 3.0 17.0 0.00 0.00 0.00 59 1010.7
20190325232734 56 271 4.0 17.0 0.00 0.00 0.00 59 1010.7
20190325232719 56 259 5.0 14.0 0.00 0.00 0.00 59 1010.6
20190325232631 57 234 7.0 14.0 0.00 0.00 0.00 59 1010.7
20190325232622 57 234 8.0 17.0 0.00 0.00 0.00 59 1010.8
20190325232534 57 238 9.0 17.0 0.00 0.00 0.00 58 1010.9
20190325232520 57 213 8.0 14.0 0.00 0.00 0.00 58 1010.8
20190325232430 57 261 8.0 13.0 0.00 0.00 0.00 59 1010.8
20190325232422 57 205 7.0 13.0 0.00 0.00 0.00 59 1010.9
20190325232333 57 242 6.0 12.0 0.00 0.00 0.00 60 1010.8
20190325232320 57 259 6.0 12.0 0.00 0.00 0.00 60 1010.7
20190325232232 57 240 5.0 12.0 0.00 0.00 0.00 60 1010.7
20190325232222 57 184 5.0 12.0 0.00 0.00 0.00 60 1010.7
20190325232120 57 269 4.0 10.0 0.00 0.00 0.00 60 1010.5
20190325232112 57 218 4.0 10.0 0.00 0.00 0.00 60 1010.7
20190325232028 57 188 6.0 10.0 0.00 0.00 0.00 60 1010.6
20190325231923 57 227 2.0 9.0 0.00 0.00 0.00 60 1010.5
20190325231915 57 248 2.0 9.0 0.00 0.00 0.00 60 1010.6
20190325231833 57 254 4.0 10.0 0.00 0.00 0.00 60 1010.5
20190325231826 57 238 4.0 10.0 0.00 0.00 0.00 60 1010.5
20190325231721 57 269 5.0 10.0 0.00 0.00 0.00 60 1010.5
20190325231715 57 269 5.0 10.0 0.00 0.00 0.00 60 1010.4
20190325231629 57 346 3.0 10.0 0.00 0.00 0.00 60 1010.4
20190325231625 57 346 3.0 10.0 0.00 0.00 0.00 60 1010.5
20190325231517 57 252 4.0 10.0 0.00 0.00 0.00 60 1010.4
20190325231429 57 257 4.0 10.0 0.00 0.00 0.00 59 1010.3
20190325231317 57 300 5.0 12.0 0.00 0.00 0.00 59 1010.4
20190325231226 57 271 2.0 13.0 0.00 0.00 0.00 59 1010.3
20190325231133 57 265 4.0 13.0 0.00 0.00 0.00 59 1010.3
20190325231113 57 323 4.0 13.0 0.00 0.00 0.00 59 1010.3
20190325231027 57 284 5.0 13.0 0.00 0.00 0.00 59 1010.4
20190325231024 57 322 5.0 13.0 0.00 0.00 0.00 59 1010.3
20190325230917 57 288 5.0 13.0 0.00 0.00 0.00 59 1010.3
20190325230915 57 275 5.0 13.0 0.00 0.00 0.00 59 1010.3
20190325230826 57 296 4.0 13.0 0.00 0.00 0.00 59 1010.3
20190325230823 57 296 3.0 13.0 0.00 0.00 0.00 59 1010.2
20190325230736 57 292 3.0 15.0 0.00 0.00 0.00 59 1010.3
20190325230715 57 279 3.0 13.0 0.00 0.00 0.00 59 1010.3
20190325230626 57 298 6.0 13.0 0.00 0.00 0.00 58 1010.2
20190325230623 57 299 6.0 15.0 0.00 0.00 0.00 58 1010.3
20190325230534 57 259 6.0 13.0 0.00 0.00 0.00 58 1010.3
20190325230516 57 236 6.0 15.0 0.00 0.00 0.00 58 1010.3
20190325230424 57 222 9.0 15.0 0.00 0.00 0.00 58 1010.2
20190325230335 57 246 5.0 13.0 0.00 0.00 0.00 58 1010.3
20190325230332 57 251 5.0 15.0 0.00 0.00 0.00 58 1010.3
20190325230224 57 253 3.0 13.0 0.00 0.00 0.00 58 1010.2
20190325230219 57 252 4.0 15.0 0.00 0.00 0.00 58 1010.3
20190325230143 57 232 4.0 13.0 0.00 0.00 0.00 58 1010.3
20190325230138 57 275 4.0 15.0 0.00 0.00 0.00 58 1010.3
20190325230032 57 246 6.0 15.0 0.00 0.00 0.00 57 1010.3
20190325230017 57 252 6.0 13.0 0.00 0.00 0.00 57 1010.3
20190325225928 57 239 8.0 13.0 0.00 0.00 0.00 57 1010.3
20190325225925 57 243 9.0 15.0 0.00 0.00 0.00 57 1010.3
20190325225834 58 271 6.0 15.0 0.00 0.00 0.00 57 1010.3
20190325225822 58 246 5.0 13.0 0.00 0.00 0.00 57 1010.3
20190325225730 58 264 2.0 12.0 0.00 0.00 0.00 57 1010.3
20190325225723 58 223 2.0 12.0 0.00 0.00 0.00 58 1010.3
20190325225634 58 244 3.0 12.0 0.00 0.00 0.00 58 1010.3
20190325225621 58 282 3.0 12.0 0.00 0.00 0.00 58 1010.3
20190325225530 57 273 2.0 12.0 0.00 0.00 0.00 58 1010.4
20190325225523 57 286 2.0 12.0 0.00 0.00 0.00 58 1010.3
20190325225420 57 267 3.0 12.0 0.00 0.00 0.00 58 1010.4
20190325225418 57 292 3.0 12.0 0.00 0.00 0.00 58 1010.3
20190325225329 57 241 2.0 12.0 0.00 0.00 0.00 58 1010.3
20190325225315 57 262 1.0 12.0 0.00 0.00 0.00 58 1010.3
20190325225225 57 310 2.0 12.0 0.00 0.00 0.00 58 1010.3
20190325225223 57 310 2.0 13.0 0.00 0.00 0.00 57 1010.3
20190325225131 57 311 4.0 13.0 0.00 0.00 0.00 57 1010.3
20190325225116 57 273 4.0 12.0 0.00 0.00 0.00 57 1010.3
20190325225025 57 301 6.0 12.0 0.00 0.00 0.00 57 1010.3
20190325225019 57 286 6.0 13.0 0.00 0.00 0.00 57 1010.3
20190325224933 57 298 6.0 12.0 0.00 0.00 0.00 57 1010.3
20190325224931 57 298 6.0 13.0 0.00 0.00 0.00 57 1010.2
20190325224825 57 292 5.0 14.0 0.00 0.00 0.00 58 1010.3
20190325224819 57 316 5.0 14.0 0.00 0.00 0.00 58 1010.3
20190325224733 57 235 3.0 14.0 0.00 0.00 0.00 58 1010.3
20190325224729 57 232 3.0 14.0 0.00 0.00 0.00 58 1010.3
20190325224621 57 283 4.0 14.0 0.00 0.00 0.00 58 1010.3
20190325224616 57 28 4.0 14.0 0.00 0.00 0.00 58 1010.3
20190325224530 58 331 5.0 14.0 0.00 0.00 0.00 57 1010.3
20190325224528 58 300 5.0 14.0 0.00 0.00 0.00 57 1010.3
20190325224423 58 329 6.0 14.0 0.00 0.00 0.00 57 1010.3
20190325224417 58 300 6.0 14.0 0.00 0.00 0.00 57 1010.3
20190325224332 58 317 7.0 14.0 0.00 0.00 0.00 57 1010.3
20190325224325 58 276 6.0 14.0 0.00 0.00 0.00 57 1010.3
20190325224221 58 218 4.0 14.0 0.00 0.00 0.00 57 1010.3
20190325224218 58 232 4.0 14.0 0.00 0.00 0.00 57 1010.2
20190325224130 58 290 4.0 14.0 0.00 0.00 0.00 57 1010.2
20190325224126 58 269 5.0 14.0 0.00 0.00 0.00 57 1010.3
20190325224035 58 229 7.0 14.0 0.00 0.00 0.00 57 1010.2
20190325224018 58 257 7.0 14.0 0.00 0.00 0.00 57 1010.2
20190325223925 58 253 6.0 14.0 0.00 0.00 0.00 56 1010.2
20190325223921 58 244 7.0 14.0 0.00 0.00 0.00 56 1010.2
20190325223834 59 254 6.0 14.0 0.00 0.00 0.00 56 1010.1
20190325223817 59 269 5.0 14.0 0.00 0.00 0.00 56 1010.1
20190325223726 59 266 7.0 14.0 0.00 0.00 0.00 55 1010.1
20190325223617 59 299 6.0 14.0 0.00 0.00 0.00 55 1010.1
20190325223614 59 306 6.0 14.0 0.00 0.00 0.00 55 1010.2
20190325223528 59 265 4.0 11.0 0.00 0.00 0.00 54 1010.1
20190325223526 59 265 4.0 11.0 0.00 0.00 0.00 54 1010.0
20190325223430 59 280 5.0 13.0 0.00 0.00 0.00 54 1010.0
20190325223416 60 254 6.0 13.0 0.00 0.00 0.00 53 1010.1
20190325223327 60 246 5.0 13.0 0.00 0.00 0.00 52 1010.0
20190325223322 60 267 5.0 13.0 0.00 0.00 0.00 52 1009.9
20190325223229 60 293 4.0 13.0 0.00 0.00 0.00 51 1010.0
20190325223221 60 240 4.0 13.0 0.00 0.00 0.00 51 1010.0
20190325223129 60 259 4.0 13.0 0.00 0.00 0.00 50 1009.9
20190325223118 61 262 4.0 13.0 0.00 0.00 0.00 50 1009.9
20190325223026 61 236 4.0 13.0 0.00 0.00 0.00 50 1009.8
20190325223017 61 276 5.0 13.0 0.00 0.00 0.00 50 1009.9
20190325222935 61 220 3.0 13.0 0.00 0.00 0.00 48 1009.8
20190325222925 61 171 3.0 13.0 0.00 0.00 0.00 48 1009.9
20190325222834 62 275 3.0 13.0 0.00 0.00 0.00 48 1009.9
20190325222827 62 293 4.0 13.0 0.00 0.00 0.00 48 1009.8
20190325222727 62 254 5.0 13.0 0.00 0.00 0.00 46 1009.9
20190325222719 62 261 6.0 13.0 0.00 0.00 0.00 46 1009.8
20190325222630 63 325 10.0 13.0 0.00 0.00 0.00 45 1009.8
20190325222614 63 355 9.0 13.0 0.00 0.00 0.00 45 1009.8
20190325222526 63 301 5.0 7.0 0.00 0.00 0.00 43 1009.8
20190325222519 63 285 5.0 7.0 0.00 0.00 0.00 43 1009.7
20190325222434 63 324 4.0 7.0 0.00 0.00 0.00 41 1009.7
20190325222426 63 284 4.0 7.0 0.00 0.00 0.00 41 1009.6
20190325222322 63 286 1.0 7.0 0.00 0.00 0.00 41 1009.7
20190325222318 63 282 1.0 7.0 0.00 0.00 0.00 41 1009.7
20190325222229 63 265 2.0 7.0 0.00 0.00 0.00 41 1009.7
20190325222122 63 261 2.0 7.0 0.00 0.00 0.00 41 1009.7
20190325222117 63 236 2.0 7.0 0.00 0.00 0.00 41 1009.8
20190325222031 62 243 3.0 7.0 0.00 0.00 0.00 41 1009.7
20190325222026 62 243 1.0 7.0 0.00 0.00 0.00 41 1009.8
20190325221918 62 176 4.0 7.0 0.00 0.00 0.00 41 1009.8
20190325221829 62 176 4.0 7.0 0.00 0.00 0.00 41 1009.8
20190325221825 62 194 2.0 7.0 0.00 0.00 0.00 41 1009.8
20190325221720 62 176 4.0 7.0 0.00 0.00 0.00 41 1009.8
20190325221718 62 176 5.0 7.0 0.00 0.00 0.00 41 1009.8
20190325221632 62 178 4.0 7.0 0.00 0.00 0.00 41 1009.8
20190325221626 62 232 4.0 7.0 0.00 0.00 0.00 40 1009.7
20190325221520 62 136 4.0 7.0 0.00 0.00 0.00 40 1009.8
20190325221515 62 153 4.0 7.0 0.00 0.00 0.00 40 1009.8
20190325221428 62 180 4.0 7.0 0.00 0.00 0.00 40 1009.8
20190325221422 62 155 4.0 7.0 0.00 0.00 0.00 40 1009.8
20190325221333 63 216 4.0 7.0 0.00 0.00 0.00 40 1009.8
20190325221316 63 154 3.0 6.0 0.00 0.00 0.00 40 1009.8
20190325221225 63 160 2.0 5.0 0.00 0.00 0.00 40 1009.8
20190325221134 62 200 3.0 6.0 0.00 0.00 0.00 40 1009.8
20190325221118 62 201 3.0 6.0 0.00 0.00 0.00 40 1009.8
20190325221026 62 217 2.0 6.0 0.00 0.00 0.00 40 1009.9
20190325221023 62 217 2.0 6.0 0.00 0.00 0.00 40 1009.8
20190325220931 62 13 3.0 6.0 0.00 0.00 0.00 40 1009.8
20190325220821 62 97 2.0 6.0 0.00 0.00 0.00 40 1009.8
20190325220734 62 180 2.0 6.0 0.00 0.00 0.00 40 1009.7
20190325220732 62 180 2.0 6.0 0.00 0.00 0.00 40 1009.8
20190325220622 62 119 2.0 6.0 0.00 0.00 0.00 40 1009.8
20190325220531 62 145 2.0 6.0 0.00 0.00 0.00 40 1009.8
20190325220516 62 144 2.0 6.0 0.00 0.00 0.00 40 1009.8
20190325220424 62 80 2.0 6.0 0.00 0.00 0.00 40 1009.9
20190325220418 62 80 2.0 6.0 0.00 0.00 0.00 39 1009.7
20190325220332 62 97 3.0 6.0 0.00 0.00 0.00 40 1009.9
20190325220327 62 102 3.0 6.0 0.00 0.00 0.00 40 1009.8
20190325220222 62 146 2.0 6.0 0.00 0.00 0.00 40 1009.8
20190325220140 62 212 2.0 6.0 0.00 0.00 0.00 40 1009.8
20190325220035 62 81 3.0 6.0 0.00 0.00 0.00 40 1009.8
20190325220019 62 51 3.0 6.0 0.00 0.00 0.00 40 1009.9
20190325215926 62 147 2.0 5.0 0.00 0.00 0.00 40 1010.0
20190325215923 62 147 2.0 5.0 0.00 0.00 0.00 40 1009.8
20190325215835 62 153 2.0 6.0 0.00 0.00 0.00 40 1009.9
20190325215829 62 125 2.0 6.0 0.00 0.00 0.00 40 1009.8
20190325215723 62 148 2.0 6.0 0.00 0.00 0.00 40 1010.0
20190325215718 62 142 2.0 6.0 0.00 0.00 0.00 40 1009.8
20190325215634 62 211 1.0 6.0 0.00 0.00 0.00 40 1010.0
20190325215630 62 211 1.0 6.0 0.00 0.00 0.00 40 1009.8
20190325215526 62 91 3.0 7.0 0.00 0.00 0.00 40 1010.0
20190325215518 62 91 3.0 8.0 0.00 0.00 0.00 40 1009.9
20190325215434 62 101 2.0 7.0 0.00 0.00 0.00 40 1009.9
20190325215427 62 121 2.0 8.0 0.00 0.00 0.00 40 1010.0
20190325215321 62 138 1.0 7.0 0.00 0.00 0.00 40 1010.1
20190325215315 62 138 1.0 8.0 0.00 0.00 0.00 40 1009.9
20190325215230 62 138 2.0 7.0 0.00 0.00 0.00 40 1010.1
20190325215227 62 138 2.0 8.0 0.00 0.00 0.00 40 1010.1
20190325215118 62 149 3.0 9.0 0.00 0.00 0.00 41 1010.1
20190325215030 62 190 2.0 7.0 0.00 0.00 0.00 41 1010.2
20190325215026 62 190 2.0 9.0 0.00 0.00 0.00 41 1010.2
20190325214917 62 190 2.0 7.0 0.00 0.00 0.00 41 1010.2
20190325214915 62 190 2.0 9.0 0.00 0.00 0.00 41 1010.2
20190325214827 62 137 3.0 7.0 0.00 0.00 0.00 41 1010.2
20190325214735 62 109 4.0 7.0 0.00 0.00 0.00 40 1010.2
20190325214719 62 83 4.0 9.0 0.00 0.00 0.00 40 1010.2
20190325214631 62 148 3.0 9.0 0.00 0.00 0.00 40 1010.2
20190325214622 62 148 3.0 6.0 0.00 0.00 0.00 40 1010.1
20190325214520 62 138 3.0 9.0 0.00 0.00 0.00 40 1010.2
20190325214515 62 138 3.0 6.0 0.00 0.00 0.00 40 1010.1
20190325214428 62 137 3.0 9.0 0.00 0.00 0.00 41 1010.2
20190325214426 62 131 3.0 6.0 0.00 0.00 0.00 41 1010.2
20190325214333 62 101 4.0 6.0 0.00 0.00 0.00 41 1010.1
20190325214319 62 135 4.0 9.0 0.00 0.00 0.00 41 1010.2
20190325214227 62 140 5.0 9.0 0.00 0.00 0.00 41 1010.2
20190325214223 62 136 5.0 6.0 0.00 0.00 0.00 41 1010.2
20190325214132 62 130 4.0 6.0 0.00 0.00 0.00 41 1010.1
20190325214119 62 134 4.0 6.0 0.00 0.00 0.00 41 1010.2
20190325214027 62 112 1.0 10.0 0.00 0.00 0.00 41 1010.2
20190325214023 62 129 1.0 10.0 0.00 0.00 0.00 41 1010.1
20190325213935 62 107 2.0 10.0 0.00 0.00 0.00 41 1010.2
20190325213916 62 105 3.0 10.0 0.00 0.00 0.00 41 1010.2
20190325213824 62 93 2.0 10.0 0.00 0.00 0.00 41 1010.2
20190325213716 62 56 1.0 10.0 0.00 0.00 0.00 42 1010.3
20190325213624 61 117 2.0 10.0 0.00 0.00 0.00 42 1010.3
20190325213620 61 117 2.0 10.0 0.00 0.00 0.00 42 1010.2
20190325213530 61 149 2.0 10.0 0.00 0.00 0.00 42 1010.2
20190325213517 61 147 1.0 10.0 0.00 0.00 0.00 42 1010.3
20190325213425 61 171 3.0 10.0 0.00 0.00 0.00 42 1010.2
20190325213422 61 172 3.0 10.0 0.00 0.00 0.00 42 1010.3
20190325213330 61 103 3.0 10.0 0.00 0.00 0.00 42 1010.3
20190325213222 61 116 4.0 10.0 0.00 0.00 0.00 42 1010.3
20190325213218 61 108 4.0 10.0 0.00 0.00 0.00 42 1010.3
20190325213131 61 107 6.0 10.0 0.00 0.00 0.00 42 1010.3
20190325213126 61 104 6.0 10.0 0.00 0.00 0.00 42 1010.3
20190325213035 61 204 3.0 10.0 0.00 0.00 0.00 43 1010.2
20190325213023 61 152 3.0 10.0 0.00 0.00 0.00 42 1010.3
20190325212926 61 133 3.0 10.0 0.00 0.00 0.00 43 1010.2
20190325212814 61 56 2.0 10.0 0.00 0.00 0.00 43 1010.2
20190325212726 61 69 3.0 10.0 0.00 0.00 0.00 43 1010.2
20190325212634 60 44 4.0 10.0 0.00 0.00 0.00 43 1010.1
20190325212616 60 56 4.0 10.0 0.00 0.00 0.00 43 1010.2
20190325212528 60 113 5.0 10.0 0.00 0.00 0.00 43 1010.2
20190325212523 60 99 5.0 10.0 0.00 0.00 0.00 43 1010.1
20190325212430 60 101 4.0 10.0 0.00 0.00 0.00 43 1010.2
20190325212416 60 96 4.0 10.0 0.00 0.00 0.00 44 1010.2
20190325212322 60 92 3.0 10.0 0.00 0.00 0.00 43 1010.2
20190325212234 60 101 5.0 10.0 0.00 0.00 0.00 43 1010.2
20190325212121 60 123 3.0 10.0 0.00 0.00 0.00 43 1010.2
20190325212030 60 96 6.0 10.0 0.00 0.00 0.00 43 1010.3
20190325211921 60 111 4.0 7.0 0.00 0.00 0.00 43 1010.3
20190325211917 60 117 3.0 7.0 0.00 0.00 0.00 43 1010.3
20190325211828 60 69 5.0 7.0 0.00 0.00 0.00 43 1010.3
20190325211812 60 29 6.0 7.0 0.00 0.00 0.00 44 1010.3
20190325211724 60 152 3.0 7.0 0.00 0.00 0.00 44 1010.3
20190325211719 60 128 3.0 7.0 0.00 0.00 0.00 44 1010.3
20190325211630 60 96 3.0 6.0 0.00 0.00 0.00 44 1010.3
20190325211612 60 103 3.0 6.0 0.00 0.00 0.00 44 1010.3
20190325211524 60 90 2.0 6.0 0.00 0.00 0.00 44 1010.2
20190325211518 60 91 2.0 6.0 0.00 0.00 0.00 44 1010.2
20190325211426 60 116 2.0 6.0 0.00 0.00 0.00 44 1010.2
20190325211418 60 116 3.0 6.0 0.00 0.00 0.00 44 1010.2
20190325211326 60 55 4.0 6.0 0.00 0.00 0.00 43 1010.2
20190325211318 60 56 4.0 6.0 0.00 0.00 0.00 43 1010.2
20190325211229 60 28 3.0 6.0 0.00 0.00 0.00 43 1010.2
20190325211216 60 42 3.0 6.0 0.00 0.00 0.00 44 1010.2
20190325211124 60 79 3.0 6.0 0.00 0.00 0.00 44 1010.2
20190325211117 60 53 3.0 6.0 0.00 0.00 0.00 44 1010.3
20190325211032 60 80 3.0 6.0 0.00 0.00 0.00 43 1010.3
20190325211029 60 63 3.0 6.0 0.00 0.00 0.00 43 1010.4
20190325210924 60 68 3.0 5.0 0.00 0.00 0.00 43 1010.4
20190325210917 60 69 3.0 5.0 0.00 0.00 0.00 43 1010.4
20190325210833 60 48 3.0 5.0 0.00 0.00 0.00 43 1010.5
20190325210815 60 49 2.0 5.0 0.00 0.00 0.00 43 1010.6
20190325210727 60 80 2.0 6.0 0.00 0.00 0.00 43 1010.6
20190325210721 60 82 3.0 6.0 0.00 0.00 0.00 43 1010.5
20190325210629 60 61 3.0 6.0 0.00 0.00 0.00 43 1010.6
20190325210615 60 52 3.0 6.0 0.00 0.00 0.00 43 1010.7
20190325210523 60 81 4.0 6.0 0.00 0.00 0.00 43 1010.8
20190325210518 60 90 4.0 6.0 0.00 0.00 0.00 43 1010.7
20190325210428 60 74 3.0 6.0 0.00 0.00 0.00 44 1010.7
20190325210415 60 87 3.0 6.0 0.00 0.00 0.00 44 1010.9
20190325210323 60 101 3.0 6.0 0.00 0.00 0.00 43 1011.0
20190325210320 60 101 3.0 6.0 0.00 0.00 0.00 43 1010.9
20190325210232 60 106 2.0 6.0 0.00 0.00 0.00 43 1010.9
20190325210131 60 44 3.0 6.0 0.00 0.00 0.00 43 1011.0
20190325210025 60 87 2.0 6.0 0.00 0.00 0.00 43 1011.0
20190325205932 60 81 3.0 6.0 0.00 0.00 0.00 43 1011.0
20190325205920 60 94 3.0 6.0 0.00 0.00 0.00 43 1011.0
20190325205828 60 72 4.0 7.0 0.00 0.00 0.00 43 1011.0
20190325205821 60 109 4.0 7.0 0.00 0.00 0.00 43 1011.0
20190325205735 60 50 3.0 8.0 0.00 0.00 0.00 43 1011.0
20190325205716 60 105 2.0 10.0 0.00 0.00 0.00 43 1011.1
20190325205625 60 134 3.0 10.0 0.00 0.00 0.00 43 1011.1
20190325205622 60 131 3.0 10.0 0.00 0.00 0.00 43 1011.0
20190325205533 60 119 2.0 11.0 0.00 0.00 0.00 43 1011.2
20190325205530 60 119 2.0 11.0 0.00 0.00 0.00 43 1011.0
20190325205421 60 96 2.0 11.0 0.00 0.00 0.00 43 1011.2
20190325205417 60 96 2.0 11.0 0.00 0.00 0.00 43 1011.1
20190325205333 60 96 2.0 11.0 0.00 0.00 0.00 43 1011.3
20190325205327 60 92 2.0 11.0 0.00 0.00 0.00 43 1011.2
20190325205221 60 63 3.0 11.0 0.00 0.00 0.00 43 1011.2
20190325205131 60 74 3.0 11.0 0.00 0.00 0.00 43 1011.1
20190325205129 60 85 3.0 11.0 0.00 0.00 0.00 43 1011.3
20190325205019 60 99 4.0 11.0 0.00 0.00 0.00 43 1011.2
20190325205017 60 106 5.0 11.0 0.00 0.00 0.00 43 1011.3
20190325204930 60 47 5.0 11.0 0.00 0.00 0.00 43 1011.2
20190325204927 60 77 5.0 11.0 0.00 0.00 0.00 43 1011.3
20190325204819 60 97 7.0 11.0 0.00 0.00 0.00 43 1011.3
20190325204732 60 101 6.0 11.0 0.00 0.00 0.00 44 1011.3
20190325204728 60 65 5.0 11.0 0.00 0.00 0.00 44 1011.3
20190325204620 60 103 3.0 7.0 0.00 0.00 0.00 44 1011.4
20190325204616 60 86 3.0 7.0 0.00 0.00 0.00 44 1011.4
20190325204524 60 86 3.0 7.0 0.00 0.00 0.00 44 1011.3
20190325204433 60 35 3.0 7.0 0.00 0.00 0.00 44 1011.5
20190325204416 60 62 3.0 7.0 0.00 0.00 0.00 44 1011.4
20190325204324 60 103 2.0 7.0 0.00 0.00 0.00 44 1011.5
20190325204233 60 144 4.0 7.0 0.00 0.00 0.00 44 1011.5
20190325204125 60 103 4.0 7.0 0.00 0.00 0.00 44 1011.5
20190325204120 60 112 4.0 7.0 0.00 0.00 0.00 44 1011.5
20190325204032 60 121 3.0 7.0 0.00 0.00 0.00 44 1011.5
20190325204030 60 136 3.0 7.0 0.00 0.00 0.00 44 1011.6
20190325203920 60 48 3.0 7.0 0.00 0.00 0.00 44 1011.5
20190325203913 60 90 3.0 7.0 0.00 0.00 0.00 44 1011.7
20190325203828 60 142 5.0 7.0 0.00 0.00 0.00 44 1011.6
20190325203823 60 122 5.0 7.0 0.00 0.00 0.00 44 1011.7
20190325203716 60 50 3.0 6.0 0.00 0.00 0.00 44 1011.7
20190325203630 60 95 2.0 4.0 0.00 0.00 0.00 44 1011.5
20190325203624 60 107 2.0 5.0 0.00 0.00 0.00 44 1011.7
20190325203519 60 90 2.0 4.0 0.00 0.00 0.00 44 1011.5
20190325203512 60 130 2.0 5.0 0.00 0.00 0.00 44 1011.5
20190325203426 60 150 2.0 4.0 0.00 0.00 0.00 44 1011.5
20190325203423 60 150 2.0 5.0 0.00 0.00 0.00 44 1011.7
20190325203335 60 103 1.0 5.0 0.00 0.00 0.00 45 1011.5
20190325203226 60 132 0.0 5.0 0.00 0.00 0.00 45 1011.5
20190325203222 60 132 0.0 4.0 0.00 0.00 0.00 45 1011.5
20190325203135 60 111 1.0 4.0 0.00 0.00 0.00 44 1011.5
20190325203114 60 111 2.0 5.0 0.00 0.00 0.00 44 1011.7
20190325203025 60 112 3.0 5.0 0.00 0.00 0.00 44 1011.7
20190325203023 60 112 3.0 4.0 0.00 0.00 0.00 44 1011.6
20190325202934 60 71 3.0 4.0 0.00 0.00 0.00 44 1011.6
20190325202913 60 88 3.0 4.0 0.00 0.00 0.00 44 1011.7
20190325202824 60 140 2.0 4.0 0.00 0.00 0.00 44 1011.5
20190325202819 60 132 1.0 4.0 0.00 0.00 0.00 44 1011.4
20190325202727 60 94 1.0 4.0 0.00 0.00 0.00 44 1011.5
20190325202720 60 92 1.0 4.0 0.00 0.00 0.00 44 1011.5
20190325202628 60 95 1.0 4.0 0.00 0.00 0.00 45 1011.5
20190325202619 60 96 1.0 4.0 0.00 0.00 0.00 45 1011.4
20190325202532 60 92 1.0 5.0 0.00 0.00 0.00 45 1011.4
20190325202516 60 92 2.0 5.0 0.00 0.00 0.00 44 1011.5
20190325202425 60 117 2.0 5.0 0.00 0.00 0.00 44 1011.5
20190325202418 60 113 2.0 5.0 0.00 0.00 0.00 44 1011.4
20190325202333 60 94 2.0 6.0 0.00 0.00 0.00 44 1011.4
20190325202329 60 94 2.0 6.0 0.00 0.00 0.00 44 1011.3
20190325202226 60 51 1.0 6.0 0.00 0.00 0.00 44 1011.4
20190325202221 60 53 1.0 6.0 0.00 0.00 0.00 44 1011.3
20190325202134 60 110 1.0 6.0 0.00 0.00 0.00 44 1011.4
20190325202116 60 110 1.0 6.0 0.00 0.00 0.00 44 1011.4
20190325202022 60 110 2.0 6.0 0.00 0.00 0.00 44 1011.4
20190325201933 60 138 3.0 6.0 0.00 0.00 0.00 44 1011.4
20190325201930 60 138 3.0 6.0 0.00 0.00 0.00 44 1011.5
20190325201817 60 135 3.0 6.0 0.00 0.00 0.00 44 1011.5
20190325201729 60 138 2.0 6.0 0.00 0.00 0.00 44 1011.5
20190325201726 60 154 3.0 6.0 0.00 0.00 0.00 44 1011.5
20190325201617 60 154 2.0 6.0 0.00 0.00 0.00 44 1011.5
20190325201529 60 130 3.0 6.0 0.00 0.00 0.00 44 1011.4
20190325201525 60 130 3.0 6.0 0.00 0.00 0.00 44 1011.5
20190325201433 60 101 3.0 6.0 0.00 0.00 0.00 44 1011.5
20190325201416 60 95 3.0 6.0 0.00 0.00 0.00 44 1011.4
20190325201324 60 124 2.0 9.0 0.00 0.00 0.00 44 1011.4
20190325201322 60 124 2.0 9.0 0.00 0.00 0.00 44 1011.6
20190325201233 60 177 2.0 9.0 0.00 0.00 0.00 44 1011.4
20190325201231 60 177 2.0 10.0 0.00 0.00 0.00 44 1011.5
20190325201122 60 121 2.0 10.0 0.00 0.00 0.00 44 1011.5
20190325201034 60 113 2.0 10.0 0.00 0.00 0.00 44 1011.4
20190325201013 60 55 2.0 10.0 0.00 0.00 0.00 44 1011.4
20190325200921 60 126 4.0 10.0 0.00 0.00 0.00 44 1011.5
20190325200832 60 146 4.0 10.0 0.00 0.00 0.00 44 1011.4
20190325200721 60 163 2.0 10.0 0.00 0.00 0.00 44 1011.4
20190325200628 60 106 3.0 10.0 0.00 0.00 0.00 44 1011.4
20190325200613 60 126 3.0 10.0 0.00 0.00 0.00 44 1011.4
20190325200523 60 78 5.0 12.0 0.00 0.00 0.00 44 1011.4
20190325200521 60 81 5.0 11.0 0.00 0.00 0.00 44 1011.4
20190325200432 60 94 5.0 12.0 0.00 0.00 0.00 44 1011.4
20190325200429 60 64 5.0 11.0 0.00 0.00 0.00 44 1011.3
20190325200319 60 103 6.0 12.0 0.00 0.00 0.00 44 1011.3
20190325200317 60 103 6.0 11.0 0.00 0.00 0.00 44 1011.3
20190325200229 60 57 3.0 12.0 0.00 0.00 0.00 44 1011.3
20190325200226 60 29 4.0 11.0 0.00 0.00 0.00 44 1011.2
20190325200145 60 107 5.0 11.0 0.00 0.00 0.00 44 1011.2
20190325200132 60 122 5.0 12.0 0.00 0.00 0.00 44 1011.3
20190325200027 60 153 4.0 12.0 0.00 0.00 0.00 44 1011.3
20190325200019 60 138 4.0 11.0 0.00 0.00 0.00 44 1011.2
20190325195935 60 71 4.0 12.0 0.00 0.00 0.00 44 1011.3
20190325195930 60 97 4.0 11.0 0.00 0.00 0.00 44 1011.2
20190325195823 60 121 5.0 12.0 0.00 0.00 0.00 43 1011.2
20190325195732 60 51 6.0 11.0 0.00 0.00 0.00 43 1011.1
20190325195619 60 104 6.0 12.0 0.00 0.00 0.00 44 1011.2
20190325195615 60 107 6.0 11.0 0.00 0.00 0.00 44 1011.2
20190325195531 60 151 5.0 11.0 0.00 0.00 0.00 43 1011.3
20190325195527 60 140 5.0 11.0 0.00 0.00 0.00 43 1011.1
20190325195422 60 88 4.0 11.0 0.00 0.00 0.00 43 1011.3
20190325195418 60 88 4.0 11.0 0.00 0.00 0.00 43 1011.2
20190325195333 60 59 3.0 11.0 0.00 0.00 0.00 43 1011.3
20190325195326 60 86 4.0 11.0 0.00 0.00 0.00 43 1011.2
20190325195234 61 83 5.0 14.0 0.00 0.00 0.00 43 1011.1
20190325195222 61 97 5.0 11.0 0.00 0.00 0.00 43 1011.3
20190325195129 61 101 5.0 11.0 0.00 0.00 0.00 44 1011.2
20190325195123 61 96 5.0 14.0 0.00 0.00 0.00 43 1011.1
20190325195026 61 101 6.0 14.0 0.00 0.00 0.00 43 1011.1
20190325195021 61 103 6.0 11.0 0.00 0.00 0.00 43 1011.2
20190325194929 61 86 5.0 13.0 0.00 0.00 0.00 43 1011.2
20190325194918 61 115 6.0 14.0 0.00 0.00 0.00 43 1011.1
20190325194827 61 97 5.0 14.0 0.00 0.00 0.00 43 1011.1
20190325194817 61 57 5.0 13.0 0.00 0.00 0.00 43 1011.2
20190325194735 61 126 4.0 14.0 0.00 0.00 0.00 43 1011.1
20190325194727 61 120 4.0 13.0 0.00 0.00 0.00 43 1011.2
20190325194635 61 82 6.0 13.0 0.00 0.00 0.00 43 1011.2
20190325194623 61 88 6.0 14.0 0.00 0.00 0.00 43 1011.2
20190325194531 61 126 6.0 14.0 0.00 0.00 0.00 43 1011.2
20190325194527 61 109 5.0 13.0 0.00 0.00 0.00 43 1011.3
20190325194419 61 105 6.0 14.0 0.00 0.00 0.00 43 1011.2
20190325194415 61 86 5.0 13.0 0.00 0.00 0.00 43 1011.3
20190325194331 61 148 7.0 14.0 0.00 0.00 0.00 43 1011.3
20190325194326 61 103 7.0 13.0 0.00 0.00 0.00 43 1011.4
20190325194220 61 145 7.0 13.0 0.00 0.00 0.00 43 1011.3
20190325194215 61 136 7.0 13.0 0.00 0.00 0.00 43 1011.4
20190325194131 61 102 7.0 13.0 0.00 0.00 0.00 44 1011.4
20190325194126 61 112 7.0 13.0 0.00 0.00 0.00 44 1011.5
20190325194022 61 144 5.0 11.0 0.00 0.00 0.00 44 1011.5
20190325193930 61 125 6.0 11.0 0.00 0.00 0.00 44 1011.5
20190325193824 61 78 5.0 11.0 0.00 0.00 0.00 44 1011.6
20190325193817 61 146 4.0 11.0 0.00 0.00 0.00 44 1011.5
20190325193733 61 178 4.0 11.0 0.00 0.00 0.00 44 1011.5
20190325193725 61 125 5.0 11.0 0.00 0.00 0.00 44 1011.6
20190325193633 61 104 5.0 11.0 0.00 0.00 0.00 44 1011.5
20190325193621 61 78 5.0 11.0 0.00 0.00 0.00 44 1011.5
20190325193529 61 61 6.0 11.0 0.00 0.00 0.00 44 1011.6
20190325193522 61 110 5.0 11.0 0.00 0.00 0.00 44 1011.7
20190325193434 61 134 4.0 11.0 0.00 0.00 0.00 44 1011.7
20190325193417 61 73 4.0 11.0 0.00 0.00 0.00 44 1011.6
20190325193329 61 92 4.0 11.0 0.00 0.00 0.00 44 1011.7
20190325193323 61 88 5.0 11.0 0.00 0.00 0.00 44 1011.8
20190325193232 61 106 3.0 11.0 0.00 0.00 0.00 44 1011.7
20190325193220 61 100 3.0 11.0 0.00 0.00 0.00 46 1011.6
20190325193128 61 296 1.0 11.0 0.00 0.00 0.00 46 1011.6
20190325193120 61 296 1.0 11.0 0.00 0.00 0.00 46 1011.7
20190325193029 61 281 0.0 13.0 0.00 0.00 0.00 45 1011.7
20190325193020 61 281 0.0 13.0 0.00 0.00 0.00 45 1011.5
20190325192930 61 189 1.0 13.0 0.00 0.00 0.00 45 1011.6
20190325192920 61 189 1.0 13.0 0.00 0.00 0.00 45 1011.7
20190325192832 61 188 3.0 13.0 0.00 0.00 0.00 45 1011.7
20190325192823 61 182 3.0 13.0 0.00 0.00 0.00 45 1011.5
20190325192733 61 121 4.0 13.0 0.00 0.00 0.00 45 1011.5
20190325192721 61 171 5.0 13.0 0.00 0.00 0.00 45 1011.6
20190325192629 61 111 5.0 13.0 0.00 0.00 0.00 45 1011.6
20190325192621 61 99 6.0 13.0 0.00 0.00 0.00 45 1011.4
20190325192529 61 109 5.0 13.0 0.00 0.00 0.00 45 1011.3
20190325192517 61 142 4.0 13.0 0.00 0.00 0.00 45 1011.6
20190325192432 61 126 3.0 13.0 0.00 0.00 0.00 45 1011.5
20190325192416 60 196 3.0 13.0 0.00 0.00 0.00 45 1011.4
20190325192326 60 40 4.0 13.0 0.00 0.00 0.00 45 1011.4
20190325192319 60 32 4.0 13.0 0.00 0.00 0.00 45 1011.5
20190325192228 60 129 6.0 15.0 0.00 0.00 0.00 45 1011.6
20190325192222 60 129 6.0 13.0 0.00 0.00 0.00 45 1011.5
20190325192129 60 130 4.0 12.0 0.00 0.00 0.00 45 1011.5
20190325192120 60 98 4.0 15.0 0.00 0.00 0.00 45 1011.7
20190325192029 60 71 6.0 15.0 0.00 0.00 0.00 45 1011.6
20190325192017 60 78 6.0 12.0 0.00 0.00 0.00 45 1011.5
20190325191928 60 116 4.0 12.0 0.00 0.00 0.00 45 1011.5
20190325191919 60 91 4.0 15.0 0.00 0.00 0.00 45 1011.7
20190325191827 60 93 4.0 15.0 0.00 0.00 0.00 45 1011.6
20190325191818 60 84 4.0 12.0 0.00 0.00 0.00 45 1011.5
20190325191731 60 106 4.0 12.0 0.00 0.00 0.00 46 1011.5
20190325191715 60 123 4.0 15.0 0.00 0.00 0.00 46 1011.5
20190325191627 60 86 4.0 15.0 0.00 0.00 0.00 46 1011.5
20190325191622 60 88 4.0 12.0 0.00 0.00 0.00 46 1011.5
20190325191530 60 145 5.0 12.0 0.00 0.00 0.00 46 1011.5
20190325191515 60 84 5.0 15.0 0.00 0.00 0.00 45 1011.7
20190325191426 60 98 9.0 15.0 0.00 0.00 0.00 46 1011.7
20190325191417 60 107 10.0 13.0 0.00 0.00 0.00 46 1011.5
20190325191325 60 126 7.0 13.0 0.00 0.00 0.00 46 1011.4
20190325191321 60 146 8.0 13.0 0.00 0.00 0.00 46 1011.6
20190325191230 60 130 6.0 13.0 0.00 0.00 0.00 46 1011.6
20190325191218 60 74 5.0 13.0 0.00 0.00 0.00 46 1011.4
20190325191126 60 119 7.0 16.0 0.00 0.00 0.00 46 1011.4
20190325191118 60 107 8.0 16.0 0.00 0.00 0.00 46 1011.6
20190325191035 60 92 5.0 16.0 0.00 0.00 0.00 47 1011.4
20190325191025 60 112 6.0 16.0 0.00 0.00 0.00 47 1011.6
20190325190933 60 131 7.0 16.0 0.00 0.00 0.00 46 1011.5
20190325190922 60 127 6.0 16.0 0.00 0.00 0.00 46 1011.4
20190325190832 60 116 7.0 16.0 0.00 0.00 0.00 46 1011.5
20190325190825 60 114 8.0 16.0 0.00 0.00 0.00 46 1011.7
20190325190734 60 93 7.0 16.0 0.00 0.00 0.00 47 1011.6
20190325190724 60 150 7.0 16.0 0.00 0.00 0.00 47 1011.5
20190325190635 60 103 7.0 16.0 0.00 0.00 0.00 47 1011.4
20190325190621 60 125 7.0 16.0 0.00 0.00 0.00 47 1011.6
20190325190530 60 115 7.0 16.0 0.00 0.00 0.00 46 1011.6
20190325190523 60 126 8.0 16.0 0.00 0.00 0.00 46 1011.5
20190325190431 60 92 6.0 16.0 0.00 0.00 0.00 46 1011.4
20190325190417 60 124 5.0 16.0 0.00 0.00 0.00 46 1011.6
20190325190330 60 114 8.0 16.0 0.00 0.00 0.00 46 1011.7
20190325190318 60 175 8.0 16.0 0.00 0.00 0.00 46 1011.5
20190325190226 60 140 9.0 14.0 0.00 0.00 0.00 47 1011.5
20190325190221 60 113 8.0 14.0 0.00 0.00 0.00 47 1011.6
20190325190140 60 168 10.0 14.0 0.00 0.00 0.00 47 1011.6
20190325190130 60 142 11.0 14.0 0.00 0.00 0.00 47 1011.6
20190325190034 60 122 6.0 12.0 0.00 0.00 0.00 47 1011.7
20190325190024 60 111 6.0 12.0 0.00 0.00 0.00 47 1011.5
20190325185932 60 101 6.0 12.0 0.00 0.00 0.00 47 1011.6
20190325185922 60 95 5.0 11.0 0.00 0.00 0.00 47 1011.8
20190325185820 60 98 5.0 12.0 0.00 0.00 0.00 47 1011.6
20190325185817 60 91 4.0 11.0 0.00 0.00 0.00 47 1011.8
20190325185731 60 123 5.0 11.0 0.00 0.00 0.00 47 1011.6
20190325185725 60 119 5.0 11.0 0.00 0.00 0.00 47 1011.8
20190325185633 60 141 4.0 11.0 0.00 0.00 0.00 47 1011.7
20190325185626 60 135 5.0 11.0 0.00 0.00 0.00 47 1011.6
20190325185535 60 160 5.0 11.0 0.00 0.00 0.00 47 1011.6
20190325185521 60 125 4.0 11.0 0.00 0.00 0.00 47 1011.8
20190325185429 60 107 4.0 11.0 0.00 0.00 0.00 47 1011.7
20190325185422 60 106 4.0 10.0 0.00 0.00 0.00 47 1011.7
20190325185330 60 118 3.0 10.0 0.00 0.00 0.00 47 1011.6
20190325185317 60 101 3.0 11.0 0.00 0.00 0.00 47 1011.7
20190325185235 60 93 5.0 11.0 0.00 0.00 0.00 47 1011.7
20190325185218 60 126 6.0 10.0 0.00 0.00 0.00 47 1011.7
20190325185130 60 127 7.0 10.0 0.00 0.00 0.00 47 1011.7
20190325185122 60 45 8.0 11.0 0.00 0.00 0.00 47 1011.7
20190325185031 60 97 6.0 11.0 0.00 0.00 0.00 48 1011.8
20190325185018 60 94 5.0 10.0 0.00 0.00 0.00 48 1011.6
20190325184916 60 130 4.0 10.0 0.00 0.00 0.00 48 1011.7
20190325184835 60 98 4.0 10.0 0.00 0.00 0.00 48 1011.7
20190325184825 60 139 5.0 10.0 0.00 0.00 0.00 48 1011.7
20190325184723 60 139 5.0 8.0 0.00 0.00 0.00 48 1011.8
20190325184717 60 147 5.0 8.0 0.00 0.00 0.00 48 1011.8
20190325184624 60 103 2.0 6.0 0.00 0.00 0.00 49 1011.7
20190325184615 60 97 2.0 6.0 0.00 0.00 0.00 49 1011.8
20190325184534 60 123 3.0 6.0 0.00 0.00 0.00 49 1011.9
20190325184527 60 124 3.0 6.0 0.00 0.00 0.00 50 1011.8
20190325184421 60 134 3.0 6.0 0.00 0.00 0.00 50 1011.9
20190325184418 60 134 3.0 6.0 0.00 0.00 0.00 50 1011.8
20190325184329 59 158 3.0 7.0 0.00 0.00 0.00 50 1011.8
20190325184327 59 123 3.0 7.0 0.00 0.00 0.00 51 1011.9
20190325184222 59 139 3.0 7.0 0.00 0.00 0.00 51 1011.9
20190325184217 59 123 3.0 7.0 0.00 0.00 0.00 51 1011.8
20190325184133 59 113 3.0 7.0 0.00 0.00 0.00 51 1012.0
20190325184128 59 115 3.0 7.0 0.00 0.00 0.00 51 1011.9
20190325184021 59 173 3.0 7.0 0.00 0.00 0.00 51 1012.0
20190325183929 59 71 3.0 7.0 0.00 0.00 0.00 51 1012.1
20190325183817 59 72 1.0 7.0 0.00 0.00 0.00 52 1012.1
20190325183726 59 139 3.0 7.0 0.00 0.00 0.00 52 1012.1
20190325183617 59 92 4.0 7.0 0.00 0.00 0.00 52 1012.1
20190325183531 59 148 4.0 7.0 0.00 0.00 0.00 52 1012.0
20190325183527 59 148 4.0 7.0 0.00 0.00 0.00 52 1012.1
20190325183431 58 138 4.0 7.0 0.00 0.00 0.00 52 1012.1
20190325183420 58 138 3.0 7.0 0.00 0.00 0.00 52 1012.0
20190325183327 58 144 3.0 7.0 0.00 0.00 0.00 52 1012.0
20190325183320 58 134 3.0 7.0 0.00 0.00 0.00 52 1012.0
20190325183229 58 97 3.0 7.0 0.00 0.00 0.00 53 1012.0
20190325183216 58 75 3.0 7.0 0.00 0.00 0.00 53 1012.0
20190325183126 58 73 4.0 7.0 0.00 0.00 0.00 53 1012.1
20190325183121 58 74 4.0 7.0 0.00 0.00 0.00 53 1012.1
20190325183032 58 82 4.0 7.0 0.00 0.00 0.00 53 1012.1
20190325183018 58 116 3.0 7.0 0.00 0.00 0.00 53 1012.1
20190325182927 58 122 3.0 7.0 0.00 0.00 0.00 54 1012.0
20190325182920 58 134 3.0 7.0 0.00 0.00 0.00 54 1012.1
20190325182828 58 122 2.0 7.0 0.00 0.00 0.00 56 1012.1
20190325182816 58 118 1.0 7.0 0.00 0.00 0.00 56 1012.1
20190325182725 58 90 2.0 7.0 0.00 0.00 0.00 56 1012.1
20190325182716 58 91 2.0 7.0 0.00 0.00 0.00 56 1012.0
20190325182632 58 36 3.0 7.0 0.00 0.00 0.00 57 1012.0
20190325182628 58 36 4.0 7.0 0.00 0.00 0.00 57 1012.0
20190325182525 57 137 2.0 5.0 0.00 0.00 0.00 58 1012.1
20190325182520 57 134 2.0 4.0 0.00 0.00 0.00 58 1012.0
20190325182431 57 159 0.0 4.0 0.00 0.00 0.00 58 1012.1
20190325182412 57 159 0.0 4.0 0.00 0.00 0.00 58 1012.2
20190325182319 57 125 0.0 5.0 0.00 0.00 0.00 59 1012.1
20190325182232 57 125 0.0 5.0 0.00 0.00 0.00 59 1012.0
20190325182120 57 125 0.0 5.0 0.00 0.00 0.00 60 1012.0
20190325182015 57 125 0.0 5.0 0.00 0.00 0.00 59 1012.0
20190325181926 57 125 0.0 5.0 0.00 0.00 0.00 60 1012.0
20190325181920 57 125 0.0 5.0 0.00 0.00 0.00 60 1012.1
20190325181834 57 125 0.0 5.0 0.00 0.00 0.00 60 1012.0
20190325181830 57 125 0.0 5.0 0.00 0.00 0.00 60 1012.1
20190325181721 56 125 2.0 5.0 0.00 0.00 0.00 60 1012.1
20190325181630 56 125 2.0 5.0 0.00 0.00 0.00 60 1012.0
20190325181520 56 125 4.0 5.0 0.00 0.00 0.00 61 1011.9
20190325181431 56 111 2.0 5.0 0.00 0.00 0.00 61 1012.0
20190325181315 56 74 0.0 4.0 0.00 0.00 0.00 63 1011.9
20190325181225 56 161 2.0 4.0 0.00 0.00 0.00 63 1011.9
20190325181133 56 40 3.0 4.0 0.00 0.00 0.00 63 1011.9
20190325181018 55 51 1.0 4.0 0.00 0.00 0.00 64 1011.9
20190325180930 55 19 2.0 4.0 0.00 0.00 0.00 65 1011.9
20190325180817 55 58 1.0 3.0 0.00 0.00 0.00 66 1012.0
20190325180725 55 57 0.0 3.0 0.00 0.00 0.00 65 1012.0
20190325180632 55 57 1.0 3.0 0.00 0.00 0.00 65 1012.0
20190325180520 55 65 2.0 4.0 0.00 0.00 0.00 65 1012.1
20190325180415 55 37 0.0 9.0 0.00 0.00 0.00 66 1012.1
20190325180323 55 37 1.0 9.0 0.00 0.00 0.00 66 1012.1
20190325180228 55 38 2.0 9.0 0.00 0.00 0.00 65 1012.2
20190325180226 55 38 2.0 9.0 0.00 0.00 0.00 65 1012.1
20190325180148 55 101 2.0 9.0 0.00 0.00 0.00 66 1012.2
20190325180022 55 30 0.0 9.0 0.00 0.00 0.00 66 1012.1
20190325175934 55 30 0.0 9.0 0.00 0.00 0.00 66 1012.2
20190325175929 55 30 1.0 9.0 0.00 0.00 0.00 66 1012.2
20190325175822 55 30 1.0 9.0 0.00 0.00 0.00 66 1012.1
20190325175729 55 30 2.0 9.0 0.00 0.00 0.00 66 1012.2
20190325175714 55 30 2.0 9.0 0.00 0.00 0.00 66 1012.1
20190325175624 54 58 3.0 9.0 0.00 0.00 0.00 65 1012.1
20190325175617 54 59 4.0 9.0 0.00 0.00 0.00 65 1012.2
20190325175525 54 94 4.0 9.0 0.00 0.00 0.00 65 1012.3
20190325175513 54 109 3.0 9.0 0.00 0.00 0.00 65 1012.1
20190325175433 54 134 1.0 4.0 0.00 0.00 0.00 67 1012.2
20190325175428 54 130 0.0 4.0 0.00 0.00 0.00 67 1012.1
20190325175325 54 98 1.0 4.0 0.00 0.00 0.00 66 1012.3
20190325175317 54 98 2.0 4.0 0.00 0.00 0.00 66 1012.1
20190325175226 54 98 2.0 4.0 0.00 0.00 0.00 66 1012.2
20190325175213 54 98 1.0 4.0 0.00 0.00 0.00 66 1012.3
20190325175133 54 5 0.0 4.0 0.00 0.00 0.00 66 1012.1
20190325175125 54 5 0.0 4.0 0.00 0.00 0.00 66 1012.3
20190325175022 54 360 1.0 4.0 0.00 0.00 0.00 67 1012.1
20190325175016 54 360 1.0 4.0 0.00 0.00 0.00 67 1012.2
20190325174934 54 53 0.0 4.0 0.00 0.00 0.00 67 1012.1
20190325174923 54 304 0.0 4.0 0.00 0.00 0.00 67 1012.3
20190325174822 54 304 1.0 4.0 0.00 0.00 0.00 67 1012.1
20190325174816 54 304 1.0 4.0 0.00 0.00 0.00 67 1012.2
20190325174730 54 304 1.0 4.0 0.00 0.00 0.00 67 1012.1
20190325174724 54 304 1.0 4.0 0.00 0.00 0.00 67 1012.2
20190325174618 54 315 2.0 4.0 0.00 0.00 0.00 67 1012.1
20190325174612 54 315 2.0 4.0 0.00 0.00 0.00 67 1012.2
20190325174527 54 290 0.0 4.0 0.00 0.00 0.00 67 1012.1
20190325174524 54 290 0.0 4.0 0.00 0.00 0.00 67 1012.3
20190325174432 54 290 1.0 4.0 0.00 0.00 0.00 67 1012.2
20190325174419 54 290 1.0 4.0 0.00 0.00 0.00 67 1012.2
20190325174327 54 290 1.0 4.0 0.00 0.00 0.00 67 1012.2
20190325174320 54 290 1.0 4.0 0.00 0.00 0.00 67 1012.3
20190325174236 54 290 2.0 4.0 0.00 0.00 0.00 67 1012.2
20190325174233 54 290 1.0 4.0 0.00 0.00 0.00 67 1012.3
20190325174121 54 292 2.0 4.0 0.00 0.00 0.00 67 1012.3
20190325174032 54 292 1.0 4.0 0.00 0.00 0.00 67 1012.3
20190325174030 54 292 1.0 4.0 0.00 0.00 0.00 67 1012.4
20190325173919 54 290 2.0 4.0 0.00 0.00 0.00 66 1012.3
20190325173917 54 290 2.0 4.0 0.00 0.00 0.00 66 1012.4
20190325173832 54 309 3.0 4.0 0.00 0.00 0.00 66 1012.3
20190325173829 54 307 3.0 4.0 0.00 0.00 0.00 66 1012.4
20190325173720 54 310 2.0 5.0 0.00 0.00 0.00 66 1012.3
20190325173628 54 327 2.0 5.0 0.00 0.00 0.00 67 1012.5
20190325173517 54 316 3.0 5.0 0.00 0.00 0.00 66 1012.5
20190325173427 54 297 2.0 5.0 0.00 0.00 0.00 66 1012.5
20190325173322 54 243 1.0 5.0 0.00 0.00 0.00 67 1012.4
20190325173315 54 243 1.0 5.0 0.00 0.00 0.00 67 1012.6
20190325173232 54 243 2.0 5.0 0.00 0.00 0.00 66 1012.5
20190325173119 55 303 3.0 5.0 0.00 0.00 0.00 66 1012.6
20190325173028 55 308 2.0 5.0 0.00 0.00 0.00 66 1012.6
20190325172916 55 296 3.0 5.0 0.00 0.00 0.00 66 1012.5
20190325172828 55 296 3.0 5.0 0.00 0.00 0.00 65 1012.5
20190325172824 55 291 3.0 5.0 0.00 0.00 0.00 65 1012.6
20190325172720 55 279 2.0 4.0 0.00 0.00 0.00 65 1012.5
20190325172717 55 279 2.0 4.0 0.00 0.00 0.00 65 1012.5
20190325172628 55 281 2.0 4.0 0.00 0.00 0.00 66 1012.5
20190325172625 55 281 1.0 4.0 0.00 0.00 0.00 66 1012.5
20190325172535 54 298 1.0 4.0 0.00 0.00 0.00 66 1012.6
20190325172516 54 298 1.0 4.0 0.00 0.00 0.00 66 1012.5
20190325172424 54 307 1.0 4.0 0.00 0.00 0.00 67 1012.5
20190325172422 54 289 1.0 4.0 0.00 0.00 0.00 66 1012.6
20190325172330 54 298 1.0 4.0 0.00 0.00 0.00 66 1012.6
20190325172316 54 344 1.0 4.0 0.00 0.00 0.00 66 1012.5
20190325172225 54 346 2.0 4.0 0.00 0.00 0.00 66 1012.5
20190325172218 54 346 2.0 4.0 0.00 0.00 0.00 66 1012.6
20190325172131 54 273 2.0 4.0 0.00 0.00 0.00 66 1012.6
20190325172116 54 323 2.0 4.0 0.00 0.00 0.00 66 1012.6
20190325172019 54 317 2.0 4.0 0.00 0.00 0.00 66 1012.6
20190325171927 54 295 2.0 4.0 0.00 0.00 0.00 65 1012.6
20190325171836 54 270 3.0 4.0 0.00 0.00 0.00 65 1012.5
20190325171820 54 311 3.0 4.0 0.00 0.00 0.00 65 1012.5
20190325171723 54 319 2.0 4.0 0.00 0.00 0.00 66 1012.6
20190325171713 54 304 2.0 4.0 0.00 0.00 0.00 66 1012.5
20190325171624 54 293 3.0 4.0 0.00 0.00 0.00 66 1012.4
20190325171616 54 300 2.0 4.0 0.00 0.00 0.00 66 1012.5
20190325171535 54 294 3.0 4.0 0.00 0.00 0.00 66 1012.5
20190325171525 54 311 2.0 4.0 0.00 0.00 0.00 66 1012.4
20190325171433 54 294 2.0 4.0 0.00 0.00 0.00 66 1012.4
20190325171423 54 294 2.0 4.0 0.00 0.00 0.00 66 1012.4
20190325171330 54 238 1.0 4.0 0.00 0.00 0.00 67 1012.4
20190325171321 54 238 1.0 3.0 0.00 0.00 0.00 67 1012.4
20190325171230 54 238 2.0 3.0 0.00 0.00 0.00 68 1012.5
20190325171224 54 238 2.0 4.0 0.00 0.00 0.00 68 1012.4
20190325171132 53 237 1.0 4.0 0.00 0.00 0.00 69 1012.3
20190325171121 53 254 1.0 3.0 0.00 0.00 0.00 69 1012.4
20190325171030 53 236 0.0 2.0 0.00 0.00 0.00 68 1012.4
20190325171020 53 236 0.0 2.0 0.00 0.00 0.00 68 1012.3
20190325170930 53 275 0.0 2.0 0.00 0.00 0.00 71 1012.2
20190325170917 53 275 0.0 2.0 0.00 0.00 0.00 71 1012.3
20190325170826 52 275 0.0 2.0 0.00 0.00 0.00 69 1012.2
20190325170819 52 275 0.0 2.0 0.00 0.00 0.00 69 1012.1
20190325170735 52 274 0.0 2.0 0.00 0.00 0.00 69 1012.3
20190325170731 52 274 0.0 2.0 0.00 0.00 0.00 69 1012.2
20190325170621 52 275 0.0 2.0 0.00 0.00 0.00 67 1012.3
20190325170618 52 275 0.0 2.0 0.00 0.00 0.00 67 1012.2
20190325170527 52 275 0.0 2.0 0.00 0.00 0.00 68 1012.2
20190325170434 52 275 0.0 2.0 0.00 0.00 0.00 68 1012.1
20190325170421 52 275 0.0 2.0 0.00 0.00 0.00 68 1012.2
20190325170332 52 243 0.0 2.0 0.00 0.00 0.00 69 1012.2
20190325170323 52 243 0.0 2.0 0.00 0.00 0.00 69 1012.1
20190325170232 52 244 0.0 2.0 0.00 0.00 0.00 71 1012.0
20190325170223 52 244 1.0 2.0 0.00 0.00 0.00 71 1012.1
20190325170143 52 244 1.0 2.0 0.00 0.00 0.00 70 1012.1
20190325170134 52 244 1.0 2.0 0.00 0.00 0.00 70 1012.0
20190325170032 51 244 1.0 3.0 0.00 0.00 0.00 70 1011.9
20190325170022 51 244 1.0 3.0 0.00 0.00 0.00 71 1012.1
20190325165926 51 244 1.0 4.0 0.00 0.00 0.00 72 1011.9
20190325165919 51 244 1.0 3.0 0.00 0.00 0.00 72 1011.8
20190325165834 51 244 0.0 4.0 0.00 0.00 0.00 72 1011.9
20190325165827 51 244 0.0 3.0 0.00 0.00 0.00 72 1011.9
20190325165735 51 244 0.0 3.0 0.00 0.00 0.00 71 1011.8
20190325165722 51 244 1.0 4.0 0.00 0.00 0.00 71 1011.9
20190325165630 51 244 0.0 4.0 0.00 0.00 0.00 70 1011.9
20190325165627 51 244 1.0 3.0 0.00 0.00 0.00 70 1011.8
20190325165522 51 244 0.0 4.0 0.00 0.00 0.00 70 1012.0
20190325165516 51 244 0.0 4.0 0.00 0.00 0.00 70 1011.9
20190325165430 51 244 1.0 4.0 0.00 0.00 0.00 72 1012.0
20190325165423 51 244 1.0 4.0 0.00 0.00 0.00 72 1011.9
20190325165332 51 244 1.0 4.0 0.00 0.00 0.00 72 1012.0
20190325165317 51 244 1.0 4.0 0.00 0.00 0.00 72 1012.1
20190325165226 51 238 2.0 4.0 0.00 0.00 0.00 71 1012.1
20190325165220 51 238 2.0 4.0 0.00 0.00 0.00 71 1012.0
20190325165132 51 239 2.0 4.0 0.00 0.00 0.00 70 1012.0
20190325165117 51 234 3.0 4.0 0.00 0.00 0.00 70 1012.1
20190325165029 51 196 2.0 5.0 0.00 0.00 0.00 71 1012.1
20190325165023 51 242 1.0 5.0 0.00 0.00 0.00 71 1012.1
20190325164932 51 239 1.0 5.0 0.00 0.00 0.00 71 1012.1
20190325164922 51 239 1.0 5.0 0.00 0.00 0.00 72 1012.2
20190325164831 51 239 2.0 5.0 0.00 0.00 0.00 71 1012.3
20190325164819 51 239 2.0 5.0 0.00 0.00 0.00 71 1012.1
20190325164728 51 250 2.0 5.0 0.00 0.00 0.00 73 1012.2
20190325164719 51 252 2.0 5.0 0.00 0.00 0.00 73 1012.3
20190325164631 51 300 2.0 5.0 0.00 0.00 0.00 71 1012.4
20190325164620 51 298 2.0 5.0 0.00 0.00 0.00 71 1012.2
20190325164531 51 225 3.0 5.0 0.00 0.00 0.00 72 1012.2
20190325164519 51 241 2.0 5.0 0.00 0.00 0.00 72 1012.3
20190325164431 51 291 1.0 5.0 0.00 0.00 0.00 73 1012.4
20190325164419 51 288 1.0 5.0 0.00 0.00 0.00 73 1012.3
20190325164327 51 293 2.0 5.0 0.00 0.00 0.00 73 1012.1
20190325164319 51 293 2.0 5.0 0.00 0.00 0.00 73 1012.4
20190325164226 51 305 3.0 5.0 0.00 0.00 0.00 73 1012.4
20190325164216 51 297 4.0 5.0 0.00 0.00 0.00 73 1012.3
20190325164123 51 307 3.0 5.0 0.00 0.00 0.00 73 1012.2
20190325164117 51 302 3.0 5.0 0.00 0.00 0.00 73 1012.5
20190325164026 51 286 2.0 5.0 0.00 0.00 0.00 73 1012.5
20190325164016 51 285 2.0 5.0 0.00 0.00 0.00 73 1012.4
20190325163921 51 294 2.0 5.0 0.00 0.00 0.00 72 1012.5
20190325163835 51 292 3.0 5.0 0.00 0.00 0.00 71 1012.3
20190325163830 51 292 3.0 5.0 0.00 0.00 0.00 71 1012.5
20190325163723 51 247 4.0 5.0 0.00 0.00 0.00 71 1012.3
20190325163721 51 248 4.0 5.0 0.00 0.00 0.00 71 1012.4
20190325163632 51 247 4.0 5.0 0.00 0.00 0.00 71 1012.4
20190325163629 51 234 4.0 5.0 0.00 0.00 0.00 71 1012.4
20190325163524 51 248 3.0 5.0 0.00 0.00 0.00 73 1012.4
20190325163516 51 240 3.0 5.0 0.00 0.00 0.00 73 1012.4
20190325163435 51 272 2.0 3.0 0.00 0.00 0.00 73 1012.4
20190325163428 51 269 2.0 3.0 0.00 0.00 0.00 73 1012.4
20190325163318 51 257 2.0 3.0 0.00 0.00 0.00 73 1012.3
20190325163231 51 255 1.0 3.0 0.00 0.00 0.00 74 1012.2
20190325163226 51 255 1.0 3.0 0.00 0.00 0.00 74 1012.3
20190325163135 51 244 0.0 3.0 0.00 0.00 0.00 72 1012.3
20190325163120 51 244 0.0 3.0 0.00 0.00 0.00 71 1012.1
20190325163032 51 244 2.0 3.0 0.00 0.00 0.00 70 1012.0
20190325163023 51 244 2.0 3.0 0.00 0.00 0.00 70 1012.2
20190325162930 51 243 2.0 3.0 0.00 0.00 0.00 70 1012.1
20190325162920 51 243 2.0 3.0 0.00 0.00 0.00 70 1011.9
20190325162831 51 222 2.0 3.0 0.00 0.00 0.00 70 1011.8
20190325162823 51 222 2.0 3.0 0.00 0.00 0.00 70 1012.0
20190325162734 51 211 1.0 3.0 0.00 0.00 0.00 69 1011.9
20190325162722 51 173 1.0 3.0 0.00 0.00 0.00 69 1011.8
20190325162633 51 68 0.0 3.0 0.00 0.00 0.00 69 1011.6
20190325162623 51 68 0.0 3.0 0.00 0.00 0.00 69 1011.8
20190325162530 51 68 1.0 3.0 0.00 0.00 0.00 69 1011.7
20190325162526 51 68 1.0 3.0 0.00 0.00 0.00 70 1011.6
20190325162434 51 68 2.0 3.0 0.00 0.00 0.00 71 1011.6
20190325162419 51 65 1.0 3.0 0.00 0.00 0.00 71 1011.7
20190325162331 50 34 1.0 2.0 0.00 0.00 0.00 71 1011.6
20190325162321 50 71 1.0 3.0 0.00 0.00 0.00 71 1011.5
20190325162232 50 71 1.0 3.0 0.00 0.00 0.00 72 1011.5
20190325162219 50 71 1.0 2.0 0.00 0.00 0.00 72 1011.7
20190325162127 50 82 1.0 2.0 0.00 0.00 0.00 72 1011.7
20190325162120 50 84 1.0 3.0 0.00 0.00 0.00 72 1011.5
20190325162035 50 84 1.0 2.0 0.00 0.00 0.00 73 1011.7
20190325162028 50 84 1.0 3.0 0.00 0.00 0.00 73 1011.6
20190325161923 49 100 1.0 2.0 0.00 0.00 0.00 74 1011.7
20190325161920 49 100 1.0 2.0 0.00 0.00 0.00 74 1011.6
20190325161828 49 101 1.0 2.0 0.00 0.00 0.00 73 1011.6
20190325161817 49 101 1.0 2.0 0.00 0.00 0.00 73 1011.8
20190325161725 49 101 1.0 3.0 0.00 0.00 0.00 73 1011.8
20190325161720 49 101 1.0 3.0 0.00 0.00 0.00 73 1011.7
20190325161631 49 101 1.0 3.0 0.00 0.00 0.00 74 1011.7
20190325161613 49 23 1.0 3.0 0.00 0.00 0.00 74 1011.7
20190325161524 49 11 0.0 3.0 0.00 0.00 0.00 74 1011.9
20190325161520 49 11 0.0 3.0 0.00 0.00 0.00 74 1011.8
20190325161434 49 11 0.0 3.0 0.00 0.00 0.00 75 1011.7
20190325161432 49 11 0.0 3.0 0.00 0.00 0.00 75 1011.8
20190325161324 49 11 1.0 5.0 0.00 0.00 0.00 75 1011.8
20190325161233 49 10 1.0 6.0 0.00 0.00 0.00 74 1011.8
20190325161231 49 10 1.0 6.0 0.00 0.00 0.00 74 1011.7
20190325161121 48 9 0.0 6.0 0.00 0.00 0.00 75 1011.7
20190325161118 48 5 0.0 6.0 0.00 0.00 0.00 75 1011.6
20190325161032 48 169 0.0 6.0 0.00 0.00 0.00 77 1011.6
20190325161027 48 169 0.0 6.0 0.00 0.00 0.00 77 1011.5
20190325160920 48 169 1.0 6.0 0.00 0.00 0.00 75 1011.6
20190325160827 48 131 2.0 6.0 0.00 0.00 0.00 75 1011.6
20190325160717 48 127 1.0 8.0 0.00 0.00 0.00 76 1011.5
20190325160628 47 127 1.0 8.0 0.00 0.00 0.00 76 1011.6
20190325160623 47 127 2.0 8.0 0.00 0.00 0.00 76 1011.5
20190325160531 47 134 3.0 8.0 0.00 0.00 0.00 75 1011.5
20190325160516 47 139 3.0 8.0 0.00 0.00 0.00 75 1011.6
20190325160424 47 96 4.0 8.0 0.00 0.00 0.00 76 1011.5
20190325160333 47 37 3.0 8.0 0.00 0.00 0.00 76 1011.4
20190325160225 47 107 3.0 8.0 0.00 0.00 0.00 76 1011.4
20190325160223 47 107 3.0 8.0 0.00 0.00 0.00 77 1011.4
20190325160145 46 71 3.0 8.0 0.00 0.00 0.00 77 1011.5
20190325160142 46 71 3.0 8.0 0.00 0.00 0.00 77 1011.4
20190325160019 46 57 4.0 8.0 0.00 0.00 0.00 77 1011.3
20190325155926 46 84 5.0 8.0 0.00 0.00 0.00 77 1011.3
20190325155821 46 107 3.0 6.0 0.00 0.00 0.00 78 1011.4
20190325155816 46 127 4.0 6.0 0.00 0.00 0.00 78 1011.3
20190325155729 46 106 3.0 6.0 0.00 0.00 0.00 78 1011.4
20190325155617 46 113 3.0 6.0 0.00 0.00 0.00 78 1011.4
20190325155527 46 49 3.0 6.0 0.00 0.00 0.00 78 1011.4
20190325155525 46 49 3.0 6.0 0.00 0.00 0.00 78 1011.6
20190325155434 46 63 2.0 6.0 0.00 0.00 0.00 78 1011.4
20190325155432 46 77 2.0 6.0 0.00 0.00 0.00 78 1011.7
20190325155327 46 113 3.0 6.0 0.00 0.00 0.00 79 1011.5
20190325155319 45 94 3.0 6.0 0.00 0.00 0.00 79 1011.7
20190325155227 45 93 3.0 6.0 0.00 0.00 0.00 79 1011.8
20190325155217 45 106 3.0 6.0 0.00 0.00 0.00 79 1011.5
20190325155124 45 92 3.0 6.0 0.00 0.00 0.00 79 1011.7
20190325155119 45 92 4.0 6.0 0.00 0.00 0.00 79 1011.8
20190325155032 45 94 2.0 6.0 0.00 0.00 0.00 79 1011.7
20190325155027 45 118 2.0 6.0 0.00 0.00 0.00 79 1011.8
20190325154935 45 32 3.0 6.0 0.00 0.00 0.00 80 1011.8
20190325154920 45 34 4.0 6.0 0.00 0.00 0.00 80 1011.7
20190325154831 45 132 3.0 6.0 0.00 0.00 0.00 80 1011.8
20190325154823 45 132 3.0 6.0 0.00 0.00 0.00 80 1011.9
20190325154731 45 82 4.0 6.0 0.00 0.00 0.00 80 1011.9
20190325154721 45 95 4.0 6.0 0.00 0.00 0.00 80 1011.8
20190325154632 45 58 3.0 6.0 0.00 0.00 0.00 80 1011.8
20190325154623 45 84 3.0 6.0 0.00 0.00 0.00 80 1011.9
20190325154531 45 114 2.0 6.0 0.00 0.00 0.00 80 1011.9
20190325154521 45 103 2.0 6.0 0.00 0.00 0.00 80 1011.7
20190325154428 45 105 4.0 6.0 0.00 0.00 0.00 80 1011.8
20190325154418 45 91 4.0 6.0 0.00 0.00 0.00 81 1012.0
20190325154326 45 98 4.0 6.0 0.00 0.00 0.00 81 1012.0
20190325154321 45 113 3.0 6.0 0.00 0.00 0.00 81 1011.9
20190325154235 45 71 3.0 5.0 0.00 0.00 0.00 81 1012.2
20190325154231 45 94 3.0 4.0 0.00 0.00 0.00 81 1012.0
20190325154127 45 88 3.0 5.0 0.00 0.00 0.00 81 1012.2
20190325154118 45 69 3.0 4.0 0.00 0.00 0.00 81 1012.1
20190325154025 45 113 2.0 4.0 0.00 0.00 0.00 81 1012.1
20190325154018 45 123 2.0 4.0 0.00 0.00 0.00 81 1012.3
20190325153934 45 105 2.0 4.0 0.00 0.00 0.00 81 1012.2
20190325153926 45 91 2.0 4.0 0.00 0.00 0.00 81 1012.4
20190325153835 45 78 2.0 4.0 0.00 0.00 0.00 81 1012.5
20190325153822 45 76 2.0 4.0 0.00 0.00 0.00 81 1012.2
20190325153734 45 89 2.0 5.0 0.00 0.00 0.00 81 1012.3
20190325153723 45 97 2.0 5.0 0.00 0.00 0.00 81 1012.5
20190325153631 45 94 2.0 6.0 0.00 0.00 0.00 81 1012.6
20190325153622 45 101 2.0 6.0 0.00 0.00 0.00 81 1012.3
20190325153531 45 87 2.0 6.0 0.00 0.00 0.00 81 1012.5
20190325153523 45 90 2.0 6.0 0.00 0.00 0.00 81 1012.6
20190325153431 45 92 3.0 6.0 0.00 0.00 0.00 81 1012.6
20190325153418 45 111 2.0 6.0 0.00 0.00 0.00 81 1012.6
20190325153325 45 122 3.0 6.0 0.00 0.00 0.00 81 1012.7
20190325153319 45 126 3.0 6.0 0.00 0.00 0.00 81 1012.7
20190325153219 45 146 3.0 6.0 0.00 0.00 0.00 81 1012.7
20190325153126 45 112 2.0 6.0 0.00 0.00 0.00 81 1012.7
20190325153116 45 123 2.0 6.0 0.00 0.00 0.00 81 1012.8
20190325153028 45 126 2.0 6.0 0.00 0.00 0.00 81 1012.8
20190325153016 45 126 2.0 6.0 0.00 0.00 0.00 81 1012.7
20190325152924 45 117 3.0 6.0 0.00 0.00 0.00 81 1012.8
20190325152916 45 117 3.0 6.0 0.00 0.00 0.00 81 1012.9
20190325152832 45 146 3.0 6.0 0.00 0.00 0.00 81 1012.8
20190325152825 45 148 3.0 6.0 0.00 0.00 0.00 81 1012.9
20190325152733 45 106 3.0 6.0 0.00 0.00 0.00 81 1012.9
20190325152725 45 96 3.0 6.0 0.00 0.00 0.00 81 1012.8
20190325152621 44 95 2.0 6.0 0.00 0.00 0.00 81 1013.0
20190325152612 44 95 2.0 6.0 0.00 0.00 0.00 81 1012.9
20190325152535 44 95 3.0 6.0 0.00 0.00 0.00 82 1012.9
20190325152524 44 101 4.0 6.0 0.00 0.00 0.00 82 1012.9
20190325152431 44 100 3.0 5.0 0.00 0.00 0.00 82 1013.0
20190325152422 44 95 3.0 5.0 0.00 0.00 0.00 82 1013.0
20190325152331 44 110 3.0 5.0 0.00 0.00 0.00 82 1013.0
20190325152319 44 130 3.0 5.0 0.00 0.00 0.00 82 1013.0
20190325152228 44 113 2.0 5.0 0.00 0.00 0.00 82 1013.1
20190325152219 44 113 2.0 5.0 0.00 0.00 0.00 82 1013.0
20190325152130 44 128 2.0 5.0 0.00 0.00 0.00 82 1013.1
20190325152121 44 126 2.0 5.0 0.00 0.00 0.00 82 1013.1
20190325152027 44 105 2.0 5.0 0.00 0.00 0.00 82 1013.1
20190325151919 44 105 1.0 5.0 0.00 0.00 0.00 82 1013.1
20190325151827 44 109 2.0 5.0 0.00 0.00 0.00 82 1013.2
20190325151823 44 109 2.0 5.0 0.00 0.00 0.00 82 1013.1
20190325151735 44 94 2.0 5.0 0.00 0.00 0.00 82 1013.1
20190325151716 44 92 3.0 5.0 0.00 0.00 0.00 82 1013.2
20190325151622 44 103 2.0 5.0 0.00 0.00 0.00 82 1013.2
20190325151530 44 95 3.0 5.0 0.00 0.00 0.00 83 1013.3
20190325151516 44 119 3.0 5.0 0.00 0.00 0.00 83 1013.3
20190325151427 44 112 2.0 5.0 0.00 0.00 0.00 83 1013.2
20190325151423 44 117 2.0 5.0 0.00 0.00 0.00 83 1013.3
20190325151330 44 139 3.0 5.0 0.00 0.00 0.00 83 1013.3
20190325151315 44 111 3.0 5.0 0.00 0.00 0.00 83 1013.3
20190325151225 44 128 2.0 5.0 0.00 0.00 0.00 84 1013.3
20190325151220 44 92 2.0 5.0 0.00 0.00 0.00 84 1013.3
20190325151127 44 67 3.0 5.0 0.00 0.00 0.00 84 1013.4
20190325151118 44 66 2.0 5.0 0.00 0.00 0.00 84 1013.3
20190325151035 44 144 2.0 5.0 0.00 0.00 0.00 84 1013.4
20190325151031 44 147 3.0 5.0 0.00 0.00 0.00 84 1013.3
20190325150927 43 51 2.0 5.0 0.00 0.00 0.00 84 1013.4
20190325150917 43 61 2.0 5.0 0.00 0.00 0.00 85 1013.3
20190325150829 43 87 2.0 5.0 0.00 0.00 0.00 85 1013.3
20190325150815 43 34 2.0 5.0 0.00 0.00 0.00 85 1013.3
20190325150724 43 63 3.0 5.0 0.00 0.00 0.00 85 1013.4
20190325150720 43 63 3.0 5.0 0.00 0.00 0.00 85 1013.3
20190325150632 43 74 2.0 5.0 0.00 0.00 0.00 85 1013.5
20190325150516 43 53 4.0 5.0 0.00 0.00 0.00 86 1013.5
20190325150430 43 64 2.0 5.0 0.00 0.00 0.00 86 1013.5
20190325150424 43 103 1.0 5.0 0.00 0.00 0.00 86 1013.6
20190325150332 43 84 2.0 5.0 0.00 0.00 0.00 86 1013.5
20190325150320 43 86 2.0 5.0 0.00 0.00 0.00 86 1013.7
20190325150229 43 83 3.0 5.0 0.00 0.00 0.00 86 1013.8
20190325150221 43 83 3.0 5.0 0.00 0.00 0.00 86 1013.7
20190325150148 43 69 2.0 4.0 0.00 0.00 0.00 86 1013.8
20190325150141 43 104 2.0 4.0 0.00 0.00 0.00 86 1013.8
20190325150022 43 98 1.0 4.0 0.00 0.00 0.00 86 1013.9
20190325150019 43 98 1.0 4.0 0.00 0.00 0.00 86 1013.8
20190325145930 43 87 2.0 4.0 0.00 0.00 0.00 86 1013.9
20190325145927 43 87 2.0 4.0 0.00 0.00 0.00 86 1013.8
20190325145834 43 81 2.0 4.0 0.00 0.00 0.00 86 1013.8
20190325145821 43 81 2.0 4.0 0.00 0.00 0.00 86 1013.9
20190325145733 43 94 2.0 4.0 0.00 0.00 0.00 86 1013.9
20190325145723 43 93 2.0 4.0 0.00 0.00 0.00 86 1013.8
20190325145623 43 94 2.0 4.0 0.00 0.00 0.00 86 1013.9
20190325145614 43 115 2.0 3.0 0.00 0.00 0.00 86 1013.8
20190325145535 43 116 2.0 3.0 0.00 0.00 0.00 86 1014.0
20190325145530 43 116 2.0 3.0 0.00 0.00 0.00 86 1013.8
20190325145422 43 114 1.0 3.0 0.00 0.00 0.00 86 1014.0
20190325145418 43 114 2.0 4.0 0.00 0.00 0.00 86 1013.9
20190325145334 43 115 1.0 3.0 0.00 0.00 0.00 86 1014.0
20190325145330 43 115 2.0 4.0 0.00 0.00 0.00 86 1013.9
20190325145222 43 107 1.0 3.0 0.00 0.00 0.00 86 1014.0
20190325145219 43 107 1.0 4.0 0.00 0.00 0.00 86 1013.9
20190325145131 43 107 1.0 3.0 0.00 0.00 0.00 86 1014.0
20190325145127 43 107 1.0 4.0 0.00 0.00 0.00 86 1013.9
20190325145019 43 107 2.0 4.0 0.00 0.00 0.00 86 1013.9
20190325144927 43 109 2.0 3.0 0.00 0.00 0.00 86 1014.0
20190325144834 43 139 2.0 4.0 0.00 0.00 0.00 86 1013.9
20190325144819 43 139 2.0 4.0 0.00 0.00 0.00 86 1014.0
20190325144730 43 139 2.0 4.0 0.00 0.00 0.00 86 1014.0
20190325144722 43 139 2.0 4.0 0.00 0.00 0.00 86 1013.9
20190325144630 43 139 3.0 4.0 0.00 0.00 0.00 86 1013.9
20190325144618 43 141 3.0 4.0 0.00 0.00 0.00 86 1013.9
20190325144530 43 136 2.0 4.0 0.00 0.00 0.00 86 1013.9
20190325144523 43 132 2.0 3.0 0.00 0.00 0.00 86 1013.9
20190325144433 43 144 2.0 4.0 0.00 0.00 0.00 86 1013.8
20190325144418 43 142 2.0 4.0 0.00 0.00 0.00 86 1013.9
20190325144334 43 83 2.0 4.0 0.00 0.00 0.00 86 1014.0
20190325144322 43 83 3.0 4.0 0.00 0.00 0.00 86 1013.9
20190325144230 43 127 2.0 5.0 0.00 0.00 0.00 86 1013.8
20190325144222 43 112 2.0 5.0 0.00 0.00 0.00 86 1013.9
20190325144130 43 130 2.0 5.0 0.00 0.00 0.00 86 1013.9
20190325144118 43 125 2.0 5.0 0.00 0.00 0.00 86 1013.9
20190325144027 43 115 3.0 5.0 0.00 0.00 0.00 86 1013.9
20190325144018 43 124 3.0 5.0 0.00 0.00 0.00 86 1013.9
20190325143926 43 106 2.0 5.0 0.00 0.00 0.00 86 1013.9
20190325143918 43 124 2.0 5.0 0.00 0.00 0.00 86 1013.9
20190325143819 42 110 2.0 5.0 0.00 0.00 0.00 86 1013.9
20190325143735 42 117 2.0 5.0 0.00 0.00 0.00 86 1013.8
20190325143727 42 117 2.0 5.0 0.00 0.00 0.00 86 1013.9
20190325143623 42 97 3.0 5.0 0.00 0.00 0.00 86 1013.8
20190325143615 42 97 3.0 5.0 0.00 0.00 0.00 86 1013.9
20190325143531 42 107 3.0 5.0 0.00 0.00 0.00 86 1013.8
20190325143525 42 104 3.0 5.0 0.00 0.00 0.00 86 1013.9
20190325143433 42 110 4.0 5.0 0.00 0.00 0.00 86 1013.9
20190325143423 42 115 4.0 5.0 0.00 0.00 0.00 86 1013.9
20190325143332 42 103 3.0 5.0 0.00 0.00 0.00 86 1013.9
20190325143321 42 118 3.0 4.0 0.00 0.00 0.00 86 1013.9
20190325143233 42 97 3.0 4.0 0.00 0.00 0.00 86 1014.0
20190325143221 42 86 3.0 5.0 0.00 0.00 0.00 86 1013.9
20190325143129 42 110 4.0 5.0 0.00 0.00 0.00 86 1013.9
20190325143121 42 103 3.0 4.0 0.00 0.00 0.00 86 1014.0
20190325143029 42 112 3.0 4.0 0.00 0.00 0.00 86 1014.0
20190325143018 42 103 3.0 4.0 0.00 0.00 0.00 86 1013.9
20190325142929 42 105 2.0 4.0 0.00 0.00 0.00 86 1013.9
20190325142917 42 134 2.0 4.0 0.00 0.00 0.00 86 1014.1
20190325142826 42 133 2.0 4.0 0.00 0.00 0.00 86 1014.1
20190325142817 42 133 2.0 4.0 0.00 0.00 0.00 86 1014.0
20190325142726 42 122 2.0 4.0 0.00 0.00 0.00 86 1014.0
20190325142719 42 122 2.0 4.0 0.00 0.00 0.00 86 1014.1
20190325142634 42 103 2.0 4.0 0.00 0.00 0.00 86 1014.0
20190325142630 42 101 2.0 4.0 0.00 0.00 0.00 86 1014.1
20190325142522 42 134 2.0 4.0 0.00 0.00 0.00 86 1014.1
20190325142519 42 134 2.0 3.0 0.00 0.00 0.00 86 1014.1
20190325142429 42 131 1.0 3.0 0.00 0.00 0.00 86 1014.1
20190325142414 42 127 2.0 4.0 0.00 0.00 0.00 86 1014.0
20190325142325 42 118 2.0 4.0 0.00 0.00 0.00 86 1014.1
20190325142317 42 118 2.0 3.0 0.00 0.00 0.00 86 1014.2
20190325142235 42 115 2.0 4.0 0.00 0.00 0.00 86 1014.1
20190325142230 42 115 2.0 3.0 0.00 0.00 0.00 86 1014.2
20190325142116 42 116 3.0 4.0 0.00 0.00 0.00 86 1014.2
20190325142031 42 117 1.0 4.0 0.00 0.00 0.00 86 1014.2
20190325142025 42 121 1.0 4.0 0.00 0.00 0.00 86 1014.2
20190325141922 42 96 1.0 4.0 0.00 0.00 0.00 86 1014.2
20190325141822 42 96 2.0 4.0 0.00 0.00 0.00 86 1014.2
20190325141730 42 107 1.0 4.0 0.00 0.00 0.00 86 1014.2
20190325141721 42 109 1.0 4.0 0.00 0.00 0.00 86 1014.3
20190325141632 42 109 2.0 4.0 0.00 0.00 0.00 86 1014.3
20190325141622 42 109 2.0 4.0 0.00 0.00 0.00 86 1014.2
20190325141521 42 109 2.0 4.0 0.00 0.00 0.00 86 1014.3
20190325141422 42 109 2.0 4.0 0.00 0.00 0.00 86 1014.3
20190325141328 42 109 3.0 4.0 0.00 0.00 0.00 86 1014.3
20190325141321 42 109 3.0 4.0 0.00 0.00 0.00 86 1014.5
20190325141231 42 109 2.0 4.0 0.00 0.00 0.00 86 1014.6
20190325141219 42 101 2.0 3.0 0.00 0.00 0.00 86 1014.4
20190325141135 42 112 2.0 3.0 0.00 0.00 0.00 86 1014.3
20190325141119 42 112 2.0 3.0 0.00 0.00 0.00 86 1014.5
20190325141029 42 113 2.0 3.0 0.00 0.00 0.00 86 1014.5
20190325141023 42 113 2.0 3.0 0.00 0.00 0.00 86 1014.4
20190325140931 42 118 2.0 3.0 0.00 0.00 0.00 86 1014.4
20190325140919 42 119 2.0 3.0 0.00 0.00 0.00 86 1014.5
20190325140831 42 111 2.0 3.0 0.00 0.00 0.00 86 1014.5
20190325140820 42 119 2.0 3.0 0.00 0.00 0.00 86 1014.4
20190325140728 42 90 2.0 3.0 0.00 0.00 0.00 86 1014.4
20190325140719 42 90 2.0 3.0 0.00 0.00 0.00 86 1014.6
20190325140627 42 102 1.0 3.0 0.00 0.00 0.00 86 1014.6
20190325140620 42 101 1.0 3.0 0.00 0.00 0.00 86 1014.5
20190325140532 42 101 2.0 3.0 0.00 0.00 0.00 86 1014.4
20190325140516 42 103 2.0 3.0 0.00 0.00 0.00 86 1014.6
20190325140423 42 103 2.0 3.0 0.00 0.00 0.00 86 1014.6
20190325140419 42 103 2.0 3.0 0.00 0.00 0.00 86 1014.5
20190325140327 42 101 1.0 3.0 0.00 0.00 0.00 86 1014.5
20190325140315 42 101 1.0 3.0 0.00 0.00 0.00 86 1014.6
20190325140224 42 101 1.0 3.0 0.00 0.00 0.00 86 1014.7
20190325140216 42 101 1.0 3.0 0.00 0.00 0.00 86 1014.5
20190325140143 42 101 1.0 3.0 0.00 0.00 0.00 86 1014.6
20190325140140 42 101 1.0 3.0 0.00 0.00 0.00 86 1014.5
20190325140033 42 105 1.0 3.0 0.00 0.00 0.00 86 1014.6
20190325140020 42 105 1.0 3.0 0.00 0.00 0.00 86 1014.8
20190325135928 42 105 1.0 3.0 0.00 0.00 0.00 86 1014.8
20190325135921 42 105 1.0 3.0 0.00 0.00 0.00 86 1014.7
20190325135830 42 109 1.0 3.0 0.00 0.00 0.00 86 1014.6
20190325135817 42 119 1.0 3.0 0.00 0.00 0.00 86 1014.8
20190325135732 42 119 1.0 3.0 0.00 0.00 0.00 86 1014.8
20190325135719 42 119 1.0 3.0 0.00 0.00 0.00 86 1014.7
20190325135627 42 119 1.0 3.0 0.00 0.00 0.00 86 1014.7
20190325135620 42 119 2.0 3.0 0.00 0.00 0.00 86 1014.8
20190325135528 42 119 1.0 3.0 0.00 0.00 0.00 86 1014.8
20190325135519 42 119 1.0 3.0 0.00 0.00 0.00 86 1014.7
20190325135430 42 119 1.0 3.0 0.00 0.00 0.00 86 1014.7
20190325135416 42 119 1.0 3.0 0.00 0.00 0.00 86 1014.8
20190325135327 42 119 1.0 3.0 0.00 0.00 0.00 86 1014.8
20190325135321 42 119 1.0 3.0 0.00 0.00 0.00 86 1014.6
20190325135233 42 119 1.0 3.0 0.00 0.00 0.00 86 1014.7
20190325135220 42 119 1.0 3.0 0.00 0.00 0.00 86 1014.8
20190325135131 42 119 1.0 3.0 0.00 0.00 0.00 86 1014.8
20190325135121 42 119 1.0 3.0 0.00 0.00 0.00 86 1014.6
20190325135019 42 119 1.0 3.0 0.00 0.00 0.00 86 1014.8
20190325135016 42 119 1.0 3.0 0.00 0.00 0.00 86 1014.7
20190325134927 42 119 1.0 3.0 0.00 0.00 0.00 86 1014.8
20190325134924 42 119 1.0 3.0 0.00 0.00 0.00 86 1014.7
20190325134833 42 119 2.0 3.0 0.00 0.00 0.00 86 1014.7
20190325134815 42 119 1.0 3.0 0.00 0.00 0.00 86 1014.8
20190325134727 42 119 1.0 3.0 0.00 0.00 0.00 86 1014.8
20190325134722 42 119 1.0 3.0 0.00 0.00 0.00 86 1014.7
20190325134618 42 119 2.0 3.0 0.00 0.00 0.00 85 1014.8
20190325134613 42 119 2.0 3.0 0.00 0.00 0.00 85 1014.7
20190325134527 42 108 2.0 3.0 0.00 0.00 0.00 85 1014.8
20190325134418 42 108 2.0 3.0 0.00 0.00 0.00 85 1014.8
20190325134416 42 108 2.0 3.0 0.00 0.00 0.00 85 1014.7
20190325134330 42 108 1.0 3.0 0.00 0.00 0.00 85 1014.8
20190325134324 42 108 1.0 3.0 0.00 0.00 0.00 85 1014.7
20190325134232 42 108 0.0 3.0 0.00 0.00 0.00 85 1014.7
20190325134223 42 108 0.0 3.0 0.00 0.00 0.00 85 1014.8
20190325134120 42 108 1.0 3.0 0.00 0.00 0.00 85 1014.7
20190325134114 42 108 1.0 3.0 0.00 0.00 0.00 85 1014.8
20190325134033 42 108 1.0 3.0 0.00 0.00 0.00 85 1014.8
20190325134025 42 108 1.0 3.0 0.00 0.00 0.00 85 1014.9
20190325133933 42 108 1.0 3.0 0.00 0.00 0.00 85 1014.9
20190325133920 42 108 1.0 3.0 0.00 0.00 0.00 85 1014.8
20190325133829 42 108 1.0 3.0 0.00 0.00 0.00 85 1014.8
20190325133821 42 108 1.0 3.0 0.00 0.00 0.00 85 1015.0
20190325133729 42 108 1.0 3.0 0.00 0.00 0.00 85 1014.9
20190325133720 42 108 1.0 3.0 0.00 0.00 0.00 85 1014.8
20190325133631 42 108 2.0 3.0 0.00 0.00 0.00 85 1014.8
20190325133621 42 108 2.0 3.0 0.00 0.00 0.00 85 1014.9
20190325133530 42 110 2.0 3.0 0.00 0.00 0.00 85 1015.0
20190325133527 42 110 2.0 3.0 0.00 0.00 0.00 85 1014.9
20190325133435 42 109 2.0 3.0 0.00 0.00 0.00 85 1014.9
20190325133417 42 107 2.0 3.0 0.00 0.00 0.00 85 1015.0
20190325133322 42 107 1.0 3.0 0.00 0.00 0.00 85 1014.9
20190325133235 42 78 1.0 2.0 0.00 0.00 0.00 85 1015.0
20190325133213 42 78 2.0 2.0 0.00 0.00 0.00 85 1014.9
20190325133126 42 78 0.0 2.0 0.00 0.00 0.00 85 1015.1
20190325133124 42 78 0.0 2.0 0.00 0.00 0.00 85 1014.9
20190325133035 42 325 0.0 1.0 0.00 0.00 0.00 85 1015.1
20190325133017 42 319 0.0 1.0 0.00 0.00 0.00 85 1015.0
20190325132924 42 319 0.0 1.0 0.00 0.00 0.00 85 1015.0
20190325132922 42 319 0.0 1.0 0.00 0.00 0.00 85 1015.2
20190325132835 42 319 0.0 2.0 0.00 0.00 0.00 85 1014.9
20190325132830 42 319 0.0 2.0 0.00 0.00 0.00 85 1015.1
20190325132723 42 319 0.0 2.0 0.00 0.00 0.00 85 1015.0
20190325132718 42 319 0.0 2.0 0.00 0.00 0.00 85 1015.2
20190325132633 42 319 0.0 2.0 0.00 0.00 0.00 85 1015.1
20190325132631 42 319 0.0 2.0 0.00 0.00 0.00 85 1015.0
20190325132522 42 319 0.0 2.0 0.00 0.00 0.00 85 1015.1
20190325132519 42 319 0.0 2.0 0.00 0.00 0.00 85 1015.0
20190325132431 42 319 0.0 2.0 0.00 0.00 0.00 85 1015.0
20190325132429 42 319 0.0 2.0 0.00 0.00 0.00 85 1015.2
20190325132319 42 319 0.0 2.0 0.00 0.00 0.00 85 1015.2
20190325132229 42 319 0.0 2.0 0.00 0.00 0.00 85 1015.2
20190325132227 42 319 0.0 2.0 0.00 0.00 0.00 85 1015.0
20190325132122 42 319 1.0 2.0 0.00 0.00 0.00 85 1015.2
20190325132116 42 319 1.0 2.0 0.00 0.00 0.00 85 1015.0
20190325132029 42 319 1.0 2.0 0.00 0.00 0.00 85 1015.2
20190325132025 42 319 1.0 2.0 0.00 0.00 0.00 85 1015.0
20190325131917 42 319 1.0 2.0 0.00 0.00 0.00 85 1015.2
20190325131825 42 319 2.0 2.0 0.00 0.00 0.00 85 1015.1
20190325131733 42 283 2.0 2.0 0.00 0.00 0.00 84 1015.1
20190325131621 42 283 1.0 2.0 0.00 0.00 0.00 84 1015.3
20190325131530 43 283 0.0 0.0 0.00 0.00 0.00 84 1015.2
20190325131513 43 283 0.0 0.0 0.00 0.00 0.00 84 1015.3
20190325131424 43 283 0.0 1.0 0.00 0.00 0.00 84 1015.3
20190325131422 43 283 0.0 1.0 0.00 0.00 0.00 84 1015.2
20190325131312 43 283 0.0 1.0 0.00 0.00 0.00 84 1015.3
20190325131225 43 283 0.0 1.0 0.00 0.00 0.00 84 1015.3
20190325131218 43 283 0.0 1.0 0.00 0.00 0.00 85 1015.4
20190325131130 43 283 0.0 1.0 0.00 0.00 0.00 85 1015.4
20190325131026 43 283 0.0 2.0 0.00 0.00 0.00 84 1015.4
20190325131018 43 283 0.0 2.0 0.00 0.00 0.00 84 1015.5
20190325130914 43 283 0.0 3.0 0.00 0.00 0.00 85 1015.4
20190325130819 43 283 0.0 3.0 0.00 0.00 0.00 84 1015.4
20190325130728 43 283 0.0 3.0 0.00 0.00 0.00 84 1015.4
20190325130716 43 283 0.0 3.0 0.00 0.00 0.00 84 1015.5
20190325130628 43 283 0.0 3.0 0.00 0.00 0.00 84 1015.4
20190325130615 43 283 0.0 3.0 0.00 0.00 0.00 84 1015.5
20190325130521 43 283 0.0 3.0 0.00 0.00 0.00 84 1015.5
20190325130431 43 283 0.0 3.0 0.00 0.00 0.00 84 1015.5
20190325130316 43 283 0.0 3.0 0.00 0.00 0.00 84 1015.6
20190325130232 43 283 1.0 3.0 0.00 0.00 0.00 84 1015.5
20190325130224 43 283 1.0 3.0 0.00 0.00 0.00 84 1015.6
20190325130131 43 283 2.0 3.0 0.00 0.00 0.00 84 1015.5
20190325130026 43 281 1.0 3.0 0.00 0.00 0.00 84 1015.5
20190325130024 43 281 1.0 3.0 0.00 0.00 0.00 84 1015.6
20190325125935 43 112 0.0 2.0 0.00 0.00 0.00 84 1015.6
20190325125933 43 112 0.0 1.0 0.00 0.00 0.00 84 1015.5
20190325125825 43 112 0.0 1.0 0.00 0.00 0.00 84 1015.6
20190325125823 43 112 1.0 2.0 0.00 0.00 0.00 84 1015.6
20190325125731 43 112 0.0 1.0 0.00 0.00 0.00 84 1015.7
20190325125714 43 112 0.0 1.0 0.00 0.00 0.00 84 1015.6
20190325125625 43 112 0.0 1.0 0.00 0.00 0.00 84 1015.6
20190325125619 43 112 0.0 1.0 0.00 0.00 0.00 84 1015.7
20190325125533 43 112 0.0 2.0 0.00 0.00 0.00 84 1015.7
20190325125528 43 112 0.0 1.0 0.00 0.00 0.00 84 1015.7
20190325125421 43 112 1.0 2.0 0.00 0.00 0.00 85 1015.8
20190325125417 43 112 1.0 1.0 0.00 0.00 0.00 85 1015.8
20190325125330 43 112 0.0 3.0 0.00 0.00 0.00 85 1015.8
20190325125325 43 112 0.0 3.0 0.00 0.00 0.00 85 1015.7
20190325125235 43 112 0.0 3.0 0.00 0.00 0.00 85 1015.8
20190325125222 43 112 0.0 3.0 0.00 0.00 0.00 85 1015.7
20190325125130 43 112 0.0 3.0 0.00 0.00 0.00 85 1015.5
20190325125122 43 112 0.0 3.0 0.00 0.00 0.00 85 1015.8
20190325125031 43 112 0.0 3.0 0.00 0.00 0.00 85 1015.8
20190325125019 43 112 0.0 3.0 0.00 0.00 0.00 85 1015.6
20190325124927 43 112 0.0 3.0 0.00 0.00 0.00 85 1015.6
20190325124922 43 112 0.0 3.0 0.00 0.00 0.00 85 1015.7
20190325124819 43 112 0.0 3.0 0.00 0.00 0.00 85 1015.7
20190325124722 43 112 1.0 3.0 0.00 0.00 0.00 85 1015.7
20190325124630 43 112 1.0 3.0 0.00 0.00 0.00 85 1015.8
20190325124619 43 112 1.0 3.0 0.00 0.00 0.00 85 1015.7
20190325124518 43 112 2.0 3.0 0.00 0.00 0.00 85 1015.7
20190325124435 43 112 2.0 3.0 0.00 0.00 0.00 85 1015.7
20190325124430 43 112 2.0 3.0 0.00 0.00 0.00 85 1015.8
20190325124322 43 112 1.0 3.0 0.00 0.00 0.00 85 1015.7
20190325124318 43 112 1.0 3.0 0.00 0.00 0.00 85 1015.8
20190325124215 43 112 2.0 3.0 0.00 0.00 0.00 85 1015.8
20190325124135 43 115 2.0 3.0 0.00 0.00 0.00 85 1015.8
20190325124126 43 115 2.0 3.0 0.00 0.00 0.00 85 1015.7
20190325124023 43 115 2.0 3.0 0.00 0.00 0.00 85 1015.8
20190325124017 43 115 2.0 3.0 0.00 0.00 0.00 85 1015.7
20190325123928 43 115 2.0 3.0 0.00 0.00 0.00 85 1015.7
20190325123915 43 101 2.0 3.0 0.00 0.00 0.00 85 1015.8
20190325123836 43 111 2.0 3.0 0.00 0.00 0.00 85 1015.7
20190325123823 43 103 3.0 3.0 0.00 0.00 0.00 85 1015.8
20190325123728 43 114 2.0 3.0 0.00 0.00 0.00 85 1015.8
20190325123619 43 110 2.0 3.0 0.00 0.00 0.00 85 1015.8
20190325123530 43 110 1.0 3.0 0.00 0.00 0.00 85 1015.7
20190325123528 43 110 1.0 3.0 0.00 0.00 0.00 85 1015.8
20190325123421 43 110 1.0 3.0 0.00 0.00 0.00 85 1015.7
20190325123416 43 110 1.0 3.0 0.00 0.00 0.00 85 1015.8
20190325123330 43 110 2.0 3.0 0.00 0.00 0.00 85 1015.7
20190325123327 43 110 2.0 3.0 0.00 0.00 0.00 85 1015.8
20190325123222 43 110 2.0 3.0 0.00 0.00 0.00 85 1015.7
20190325123220 43 110 2.0 3.0 0.00 0.00 0.00 85 1015.8
20190325123129 43 110 2.0 3.0 0.00 0.00 0.00 85 1015.8
20190325123019 43 111 2.0 3.0 0.00 0.00 0.00 85 1015.8
20190325123017 43 111 2.0 3.0 0.00 0.00 0.00 85 1015.9
20190325122926 43 121 2.0 3.0 0.00 0.00 0.00 85 1015.9
20190325122835 43 121 1.0 3.0 0.00 0.00 0.00 85 1015.8
20190325122821 43 121 1.0 2.0 0.00 0.00 0.00 85 1015.9
20190325122729 43 121 2.0 2.0 0.00 0.00 0.00 85 1015.9
20190325122723 43 121 2.0 3.0 0.00 0.00 0.00 85 1015.8
20190325122639 43 121 1.0 3.0 0.00 0.00 0.00 85 1015.9
20190325122618 43 119 1.0 2.0 0.00 0.00 0.00 85 1015.9
20190325122522 43 119 1.0 3.0 0.00 0.00 0.00 86 1015.9
20190325122430 43 119 1.0 3.0 0.00 0.00 0.00 86 1015.9
20190325122319 43 119 0.0 3.0 0.00 0.00 0.00 86 1015.9
20190325122218 43 119 0.0 3.0 0.00 0.00 0.00 86 1015.9
20190325122125 43 119 0.0 4.0 0.00 0.00 0.00 86 1015.9
20190325122119 43 119 0.0 4.0 0.00 0.00 0.00 86 1015.8
20190325122034 43 119 0.0 4.0 0.00 0.00 0.00 86 1015.9
20190325122031 43 119 0.0 4.0 0.00 0.00 0.00 86 1015.8
20190325121921 43 119 0.0 4.0 0.00 0.00 0.00 86 1015.8
20190325121831 43 119 0.0 4.0 0.00 0.00 0.00 86 1015.8
20190325121722 43 119 2.0 4.0 0.00 0.00 0.00 86 1015.9
20190325121719 43 119 2.0 4.0 0.00 0.00 0.00 86 1015.8
20190325121631 43 108 2.0 4.0 0.00 0.00 0.00 86 1015.7
20190325121519 43 108 1.0 4.0 0.00 0.00 0.00 86 1015.8
20190325121427 43 101 1.0 5.0 0.00 0.00 0.00 86 1015.8
20190325121335 43 101 2.0 5.0 0.00 0.00 0.00 86 1015.9
20190325121227 43 121 3.0 5.0 0.00 0.00 0.00 86 1015.9
20190325121223 43 111 3.0 5.0 0.00 0.00 0.00 86 1015.8
20190325121131 43 124 3.0 5.0 0.00 0.00 0.00 86 1015.7
20190325121115 43 104 3.0 5.0 0.00 0.00 0.00 86 1015.8
20190325121025 43 119 2.0 5.0 0.00 0.00 0.00 86 1015.8
20190325121023 43 119 3.0 5.0 0.00 0.00 0.00 86 1015.7
20190325120934 43 93 3.0 6.0 0.00 0.00 0.00 86 1015.8
20190325120932 43 115 3.0 6.0 0.00 0.00 0.00 86 1015.8
20190325120821 43 100 3.0 6.0 0.00 0.00 0.00 86 1015.7
20190325120733 43 113 3.0 6.0 0.00 0.00 0.00 86 1015.8
20190325120729 43 114 3.0 6.0 0.00 0.00 0.00 86 1015.7
20190325120621 43 110 4.0 6.0 0.00 0.00 0.00 86 1015.8
20190325120619 43 110 4.0 6.0 0.00 0.00 0.00 86 1015.7
20190325120529 43 163 4.0 6.0 0.00 0.00 0.00 86 1015.7
20190325120419 43 121 4.0 6.0 0.00 0.00 0.00 86 1015.7
20190325120417 43 109 4.0 6.0 0.00 0.00 0.00 86 1015.7
20190325120327 43 104 3.0 6.0 0.00 0.00 0.00 86 1015.6
20190325120325 43 102 3.0 6.0 0.00 0.00 0.00 86 1015.7
20190325120230 43 115 3.0 6.0 0.00 0.00 0.00 86 1015.7
20190325120216 43 119 3.0 6.0 0.00 0.00 0.00 86 1015.7
20190325120136 43 118 5.0 6.0 0.00 0.00 0.00 86 1015.7
20190325120133 43 118 5.0 6.0 0.00 0.00 0.00 86 1015.8
20190325120034 43 95 5.0 6.0 0.00 0.00 0.00 86 1015.8
20190325120028 43 101 5.0 6.0 0.00 0.00 0.00 86 1015.9
20190325115921 43 102 4.0 6.0 0.00 0.00 0.00 86 1015.7
20190325115915 43 96 3.0 6.0 0.00 0.00 0.00 86 1015.8
20190325115831 43 113 4.0 6.0 0.00 0.00 0.00 86 1015.7
20190325115825 43 107 4.0 6.0 0.00 0.00 0.00 86 1015.8
20190325115739 43 130 4.0 6.0 0.00 0.00 0.00 86 1015.7
20190325115714 43 118 4.0 6.0 0.00 0.00 0.00 86 1015.8
20190325115630 43 114 4.0 6.0 0.00 0.00 0.00 86 1015.8
20190325115624 43 105 3.0 6.0 0.00 0.00 0.00 86 1015.7
20190325115518 43 119 4.0 6.0 0.00 0.00 0.00 86 1015.7
20190325115426 43 112 3.0 6.0 0.00 0.00 0.00 86 1015.7
20190325115333 43 97 3.0 6.0 0.00 0.00 0.00 86 1015.7
20190325115222 43 111 4.0 5.0 0.00 0.00 0.00 86 1015.8
20190325115133 43 128 3.0 7.0 0.00 0.00 0.00 86 1015.7
20190325115130 43 128 4.0 7.0 0.00 0.00 0.00 86 1015.6
20190325115022 43 100 4.0 7.0 0.00 0.00 0.00 86 1015.8
20190325114933 43 109 4.0 7.0 0.00 0.00 0.00 86 1015.7
20190325114930 43 121 4.0 7.0 0.00 0.00 0.00 86 1015.7
20190325114823 43 114 3.0 7.0 0.00 0.00 0.00 86 1015.7
20190325114821 43 121 4.0 7.0 0.00 0.00 0.00 86 1015.7
20190325114732 43 101 4.0 7.0 0.00 0.00 0.00 86 1015.7
20190325114730 43 100 3.0 7.0 0.00 0.00 0.00 86 1015.7
20190325114620 43 94 4.0 7.0 0.00 0.00 0.00 87 1015.8
20190325114529 43 117 3.0 7.0 0.00 0.00 0.00 87 1015.9
20190325114526 43 117 3.0 7.0 0.00 0.00 0.00 87 1015.7
20190325114421 43 101 4.0 7.0 0.00 0.00 0.00 87 1015.8
20190325114416 43 132 4.0 7.0 0.00 0.00 0.00 87 1015.8
20190325114329 43 115 4.0 7.0 0.00 0.00 0.00 87 1015.8
20190325114324 43 115 5.0 7.0 0.00 0.00 0.00 87 1015.9
20190325114214 43 107 4.0 5.0 0.00 0.00 0.00 87 1015.9
20190325114126 43 75 3.0 5.0 0.00 0.00 0.00 87 1015.8
20190325114036 43 85 4.0 5.0 0.00 0.00 0.00 86 1015.9
20190325114017 43 113 3.0 5.0 0.00 0.00 0.00 86 1016.0
20190325113927 43 124 3.0 4.0 0.00 0.00 0.00 86 1015.9
20190325113836 43 60 2.0 4.0 0.00 0.00 0.00 86 1015.9
20190325113834 43 60 2.0 4.0 0.00 0.00 0.00 86 1016.0
20190325113724 43 94 2.0 5.0 0.00 0.00 0.00 86 1015.9
20190325113722 43 112 2.0 5.0 0.00 0.00 0.00 86 1016.0
20190325113613 43 93 2.0 5.0 0.00 0.00 0.00 86 1016.0
20190325113528 43 86 2.0 5.0 0.00 0.00 0.00 86 1016.1
20190325113524 43 78 2.0 5.0 0.00 0.00 0.00 86 1016.0
20190325113416 43 78 1.0 5.0 0.00 0.00 0.00 86 1016.0
20190325113324 43 90 2.0 5.0 0.00 0.00 0.00 86 1016.1
20190325113233 43 64 2.0 5.0 0.00 0.00 0.00 86 1016.1
20190325113231 43 52 2.0 5.0 0.00 0.00 0.00 86 1016.1
20190325113120 43 86 2.0 5.0 0.00 0.00 0.00 86 1016.2
20190325113118 43 86 2.0 5.0 0.00 0.00 0.00 86 1016.1
20190325113026 43 96 2.0 5.0 0.00 0.00 0.00 86 1016.2
20190325112935 43 74 3.0 5.0 0.00 0.00 0.00 86 1016.2
20190325112920 43 87 3.0 5.0 0.00 0.00 0.00 86 1016.2
20190325112828 43 57 2.0 4.0 0.00 0.00 0.00 86 1016.2
20190325112735 43 63 1.0 3.0 0.00 0.00 0.00 86 1016.3
20190325112717 43 88 2.0 4.0 0.00 0.00 0.00 86 1016.2
20190325112625 43 63 2.0 4.0 0.00 0.00 0.00 86 1016.3
20190325112623 43 63 1.0 3.0 0.00 0.00 0.00 86 1016.4
20190325112535 43 81 0.0 3.0 0.00 0.00 0.00 86 1016.4
20190325112517 43 80 0.0 3.0 0.00 0.00 0.00 86 1016.4
20190325112422 43 78 0.0 3.0 0.00 0.00 0.00 86 1016.4
20190325112334 43 79 1.0 4.0 0.00 0.00 0.00 86 1016.5
20190325112316 43 79 1.0 4.0 0.00 0.00 0.00 86 1016.4
20190325112222 43 88 1.0 5.0 0.00 0.00 0.00 86 1016.5
20190325112119 43 88 1.0 5.0 0.00 0.00 0.00 86 1016.5
20190325112027 43 89 1.0 5.0 0.00 0.00 0.00 86 1016.5
20190325112019 43 88 1.0 5.0 0.00 0.00 0.00 86 1016.6
20190325111919 43 113 2.0 5.0 0.00 0.00 0.00 86 1016.6
20190325111819 43 86 1.0 5.0 0.00 0.00 0.00 86 1016.6
20190325111727 43 79 2.0 5.0 0.00 0.00 0.00 86 1016.6
20190325111716 43 79 2.0 5.0 0.00 0.00 0.00 86 1016.7
20190325111635 43 98 2.0 5.0 0.00 0.00 0.00 86 1016.6
20190325111623 43 98 2.0 5.0 0.00 0.00 0.00 86 1016.7
20190325111524 43 106 2.0 5.0 0.00 0.00 0.00 86 1016.6
20190325111431 43 115 2.0 5.0 0.00 0.00 0.00 86 1016.6
20190325111428 43 115 2.0 5.0 0.00 0.00 0.00 86 1016.7
20190325111318 43 103 1.0 4.0 0.00 0.00 0.00 86 1016.7
20190325111316 43 103 1.0 4.0 0.00 0.00 0.00 86 1016.8
20190325111231 43 103 2.0 4.0 0.00 0.00 0.00 86 1016.7
20190325111226 43 103 2.0 4.0 0.00 0.00 0.00 86 1016.8
20190325111133 43 116 2.0 4.0 0.00 0.00 0.00 86 1016.9
20190325111119 43 125 2.0 4.0 0.00 0.00 0.00 86 1016.7
20190325111027 43 110 3.0 5.0 0.00 0.00 0.00 86 1016.7
20190325111022 43 104 2.0 5.0 0.00 0.00 0.00 86 1016.9
20190325110934 43 109 1.0 5.0 0.00 0.00 0.00 86 1017.0
20190325110917 43 96 1.0 5.0 0.00 0.00 0.00 86 1016.7
20190325110826 43 96 3.0 5.0 0.00 0.00 0.00 86 1016.7
20190325110821 43 96 3.0 6.0 0.00 0.00 0.00 86 1016.9
20190325110733 43 121 3.0 6.0 0.00 0.00 0.00 86 1016.9
20190325110719 43 121 3.0 6.0 0.00 0.00 0.00 86 1016.7
20190325110627 43 112 3.0 6.0 0.00 0.00 0.00 86 1016.7
20190325110621 43 111 3.0 6.0 0.00 0.00 0.00 86 1016.9
20190325110535 43 74 3.0 6.0 0.00 0.00 0.00 86 1016.7
20190325110530 43 77 3.0 6.0 0.00 0.00 0.00 86 1016.9
20190325110423 43 111 2.0 6.0 0.00 0.00 0.00 86 1016.8
20190325110421 43 111 2.0 6.0 0.00 0.00 0.00 86 1017.0
20190325110331 43 103 2.0 6.0 0.00 0.00 0.00 86 1016.7
20190325110224 43 104 3.0 6.0 0.00 0.00 0.00 86 1016.7
20190325110222 43 104 3.0 6.0 0.00 0.00 0.00 86 1017.0
20190325110142 43 112 3.0 6.0 0.00 0.00 0.00 86 1016.7
20190325110019 43 105 4.0 6.0 0.00 0.00 0.00 86 1016.8
20190325110016 43 105 4.0 6.0 0.00 0.00 0.00 86 1017.0
20190325105927 43 82 4.0 6.0 0.00 0.00 0.00 86 1016.8
20190325105832 43 113 3.0 6.0 0.00 0.00 0.00 86 1016.8
20190325105814 43 115 3.0 6.0 0.00 0.00 0.00 86 1017.1
20190325105726 43 126 4.0 6.0 0.00 0.00 0.00 86 1017.1
20190325105723 43 126 4.0 6.0 0.00 0.00 0.00 86 1016.9
20190325105635 43 126 4.0 6.0 0.00 0.00 0.00 86 1016.9
20190325105523 43 118 3.0 6.0 0.00 0.00 0.00 86 1016.9
20190325105431 43 113 3.0 6.0 0.00 0.00 0.00 86 1017.0
20190325105322 43 108 3.0 6.0 0.00 0.00 0.00 86 1017.1
20190325105319 43 114 3.0 6.0 0.00 0.00 0.00 86 1017.0
20190325105232 43 116 4.0 6.0 0.00 0.00 0.00 86 1017.2
20190325105228 43 118 4.0 6.0 0.00 0.00 0.00 86 1017.0
20190325105119 43 107 2.0 5.0 0.00 0.00 0.00 86 1017.0
20190325105031 43 76 1.0 5.0 0.00 0.00 0.00 86 1017.2
20190325104919 43 98 3.0 5.0 0.00 0.00 0.00 86 1017.2
20190325104831 43 104 2.0 5.0 0.00 0.00 0.00 86 1017.2
20190325104827 43 104 2.0 5.0 0.00 0.00 0.00 86 1017.0
20190325104735 43 94 2.0 5.0 0.00 0.00 0.00 86 1017.1
20190325104720 43 88 2.0 5.0 0.00 0.00 0.00 86 1017.2
20190325104628 43 93 3.0 5.0 0.00 0.00 0.00 86 1017.3
20190325104518 43 109 2.0 5.0 0.00 0.00 0.00 86 1017.1
20190325104516 43 109 2.0 5.0 0.00 0.00 0.00 86 1017.3
20190325104430 43 81 3.0 5.0 0.00 0.00 0.00 86 1017.2
20190325104427 43 81 3.0 5.0 0.00 0.00 0.00 86 1017.3
20190325104323 43 64 3.0 6.0 0.00 0.00 0.00 86 1017.3
20190325104316 43 64 3.0 6.0 0.00 0.00 0.00 86 1017.2
20190325104232 43 111 3.0 6.0 0.00 0.00 0.00 86 1017.3
20190325104225 43 112 3.0 6.0 0.00 0.00 0.00 86 1017.1
20190325104123 43 59 1.0 6.0 0.00 0.00 0.00 86 1017.3
20190325104117 43 46 1.0 6.0 0.00 0.00 0.00 86 1017.2
20190325104031 43 46 1.0 6.0 0.00 0.00 0.00 86 1017.4
20190325104026 43 51 0.0 6.0 0.00 0.00 0.00 86 1017.2
20190325103921 43 46 1.0 6.0 0.00 0.00 0.00 86 1017.4
20190325103916 43 51 0.0 6.0 0.00 0.00 0.00 86 1017.3
20190325103829 43 51 1.0 6.0 0.00 0.00 0.00 86 1017.4
20190325103813 43 105 2.0 6.0 0.00 0.00 0.00 86 1017.4
20190325103725 43 51 3.0 6.0 0.00 0.00 0.00 86 1017.4
20190325103717 43 73 3.0 6.0 0.00 0.00 0.00 86 1017.4
20190325103628 43 125 3.0 6.0 0.00 0.00 0.00 86 1017.4
20190325103615 43 111 3.0 6.0 0.00 0.00 0.00 86 1017.5
20190325103524 43 95 4.0 6.0 0.00 0.00 0.00 86 1017.4
20190325103434 43 91 3.0 6.0 0.00 0.00 0.00 86 1017.6
20190325103432 43 91 3.0 6.0 0.00 0.00 0.00 86 1017.5
20190325103323 43 116 2.0 5.0 0.00 0.00 0.00 86 1017.5
20190325103215 43 116 2.0 5.0 0.00 0.00 0.00 86 1017.5
20190325103123 43 97 2.0 5.0 0.00 0.00 0.00 86 1017.6
20190325103120 43 98 2.0 5.0 0.00 0.00 0.00 86 1017.5
20190325103032 43 101 2.0 5.0 0.00 0.00 0.00 86 1017.5
20190325102919 43 93 3.0 6.0 0.00 0.00 0.00 86 1017.5
20190325102829 43 129 3.0 6.0 0.00 0.00 0.00 86 1017.5
20190325102827 43 94 3.0 6.0 0.00 0.00 0.00 86 1017.5
20190325102720 43 124 4.0 6.0 0.00 0.00 0.00 86 1017.4
20190325102631 43 107 2.0 6.0 0.00 0.00 0.00 86 1017.5
20190325102627 43 107 2.0 6.0 0.00 0.00 0.00 86 1017.6
20190325102523 43 76 3.0 6.0 0.00 0.00 0.00 86 1017.5
20190325102431 43 114 3.0 6.0 0.00 0.00 0.00 86 1017.5
20190325102422 43 73 3.0 6.0 0.00 0.00 0.00 86 1017.5
20190325102330 43 90 2.0 6.0 0.00 0.00 0.00 86 1017.6
20190325102321 43 90 2.0 6.0 0.00 0.00 0.00 86 1017.5
20190325102224 43 90 2.0 6.0 0.00 0.00 0.00 86 1017.5
20190325102118 43 100 2.0 8.0 0.00 0.00 0.00 86 1017.5
20190325102113 43 99 3.0 8.0 0.00 0.00 0.00 86 1017.6
20190325102030 43 113 3.0 8.0 0.00 0.00 0.00 86 1017.6
20190325102024 43 124 3.0 8.0 0.00 0.00 0.00 86 1017.6
20190325101932 43 120 4.0 8.0 0.00 0.00 0.00 86 1017.6
20190325101918 43 117 4.0 8.0 0.00 0.00 0.00 86 1017.6
20190325101826 43 134 2.0 8.0 0.00 0.00 0.00 86 1017.6
20190325101820 43 109 2.0 8.0 0.00 0.00 0.00 86 1017.6
20190325101729 43 84 2.0 8.0 0.00 0.00 0.00 86 1017.6
20190325101717 43 85 2.0 8.0 0.00 0.00 0.00 86 1017.6
20190325101628 43 69 1.0 8.0 0.00 0.00 0.00 86 1017.6
20190325101621 43 78 1.0 8.0 0.00 0.00 0.00 86 1017.6
20190325101529 43 103 1.0 8.0 0.00 0.00 0.00 86 1017.6
20190325101524 43 100 1.0 8.0 0.00 0.00 0.00 86 1017.6
20190325101432 43 101 4.0 8.0 0.00 0.00 0.00 86 1017.6
20190325101417 43 117 4.0 8.0 0.00 0.00 0.00 86 1017.7
20190325101324 43 121 5.0 8.0 0.00 0.00 0.00 86 1017.7
20190325101235 43 124 3.0 7.0 0.00 0.00 0.00 86 1017.7
20190325101127 43 104 2.0 7.0 0.00 0.00 0.00 86 1017.7
20190325101123 43 105 2.0 7.0 0.00 0.00 0.00 86 1017.6
20190325101035 43 76 2.0 7.0 0.00 0.00 0.00 86 1017.7
20190325101016 43 76 2.0 7.0 0.00 0.00 0.00 86 1017.6
20190325100923 43 101 1.0 7.0 0.00 0.00 0.00 86 1017.7
20190325100832 44 101 3.0 7.0 0.00 0.00 0.00 86 1017.7
20190325100719 44 107 4.0 7.0 0.00 0.00 0.00 86 1017.7
20190325100716 44 73 4.0 7.0 0.00 0.00 0.00 86 1017.7
20190325100629 44 121 5.0 7.0 0.00 0.00 0.00 86 1017.8
20190325100627 44 94 5.0 7.0 0.00 0.00 0.00 86 1017.8
20190325100531 44 112 5.0 7.0 0.00 0.00 0.00 86 1017.8
20190325100520 44 96 5.0 7.0 0.00 0.00 0.00 86 1017.8
20190325100431 44 100 6.0 7.0 0.00 0.00 0.00 86 1017.9
20190325100423 44 111 5.0 7.0 0.00 0.00 0.00 86 1017.8
20190325100335 44 98 5.0 7.0 0.00 0.00 0.00 86 1017.8
20190325100321 44 119 4.0 7.0 0.00 0.00 0.00 86 1017.8
20190325100231 44 110 4.0 7.0 0.00 0.00 0.00 86 1017.9
20190325100223 44 109 4.0 7.0 0.00 0.00 0.00 86 1017.8
20190325100142 44 114 5.0 7.0 0.00 0.00 0.00 86 1017.8
20190325100134 44 102 5.0 7.0 0.00 0.00 0.00 86 1017.9
20190325100029 44 100 4.0 7.0 0.00 0.00 0.00 86 1017.9
20190325100019 44 109 4.0 7.0 0.00 0.00 0.00 86 1017.8
20190325095931 44 115 4.0 7.0 0.00 0.00 0.00 86 1017.8
20190325095916 44 121 5.0 7.0 0.00 0.00 0.00 86 1017.9
20190325095824 44 107 5.0 7.0 0.00 0.00 0.00 86 1017.9
20190325095820 44 123 5.0 7.0 0.00 0.00 0.00 86 1017.8
20190325095732 44 123 3.0 6.0 0.00 0.00 0.00 86 1017.8
20190325095728 44 117 3.0 6.0 0.00 0.00 0.00 86 1017.8
20190325095620 44 101 2.0 6.0 0.00 0.00 0.00 86 1017.9
20190325095616 44 106 2.0 6.0 0.00 0.00 0.00 86 1017.8
20190325095524 44 111 2.0 6.0 0.00 0.00 0.00 86 1017.8
20190325095513 44 112 2.0 6.0 0.00 0.00 0.00 86 1017.8
20190325095423 44 100 2.0 6.0 0.00 0.00 0.00 86 1017.8
20190325095416 44 100 3.0 6.0 0.00 0.00 0.00 86 1017.8
20190325095332 44 64 2.0 6.0 0.00 0.00 0.00 86 1017.9
20190325095327 44 115 2.0 6.0 0.00 0.00 0.00 86 1017.8
20190325095219 44 108 2.0 6.0 0.00 0.00 0.00 86 1017.9
20190325095212 44 86 2.0 6.0 0.00 0.00 0.00 86 1017.8
20190325095128 44 38 2.0 6.0 0.00 0.00 0.00 86 1017.9
20190325095124 44 37 2.0 6.0 0.00 0.00 0.00 86 1017.9
20190325095032 44 96 2.0 6.0 0.00 0.00 0.00 86 1017.9
20190325095021 44 66 2.0 6.0 0.00 0.00 0.00 86 1017.9
20190325094928 44 42 2.0 6.0 0.00 0.00 0.00 86 1018.0
20190325094919 44 68 2.0 6.0 0.00 0.00 0.00 86 1017.9
20190325094833 44 63 3.0 6.0 0.00 0.00 0.00 86 1018.0
20190325094816 44 80 2.0 6.0 0.00 0.00 0.00 86 1018.0
20190325094725 44 117 2.0 6.0 0.00 0.00 0.00 86 1018.0
20190325094719 44 67 2.0 6.0 0.00 0.00 0.00 86 1018.0
20190325094633 44 57 2.0 6.0 0.00 0.00 0.00 86 1018.0
20190325094627 44 57 2.0 6.0 0.00 0.00 0.00 86 1018.1
20190325094525 44 61 2.0 6.0 0.00 0.00 0.00 86 1018.1
20190325094422 44 107 1.0 6.0 0.00 0.00 0.00 86 1018.1
20190325094334 44 109 2.0 6.0 0.00 0.00 0.00 86 1018.1
20190325094322 44 126 2.0 6.0 0.00 0.00 0.00 86 1018.1
20190325094234 44 91 4.0 6.0 0.00 0.00 0.00 86 1018.2
20190325094224 44 88 4.0 6.0 0.00 0.00 0.00 86 1018.2
20190325094132 44 113 3.0 6.0 0.00 0.00 0.00 86 1018.2
20190325094121 44 114 4.0 6.0 0.00 0.00 0.00 86 1018.1
20190325094029 44 111 4.0 6.0 0.00 0.00 0.00 86 1018.2
20190325094020 44 107 4.0 6.0 0.00 0.00 0.00 86 1018.2
20190325093928 44 133 4.0 6.0 0.00 0.00 0.00 86 1018.3
20190325093921 44 140 4.0 6.0 0.00 0.00 0.00 86 1018.2
20190325093830 44 112 4.0 6.0 0.00 0.00 0.00 86 1018.2
20190325093820 44 112 4.0 6.0 0.00 0.00 0.00 86 1018.3
20190325093731 44 135 3.0 6.0 0.00 0.00 0.00 86 1018.3
20190325093718 44 88 3.0 6.0 0.00 0.00 0.00 86 1018.3
20190325093627 44 106 3.0 6.0 0.00 0.00 0.00 86 1018.3
20190325093622 44 106 3.0 6.0 0.00 0.00 0.00 86 1018.4
20190325093536 44 123 4.0 6.0 0.00 0.00 0.00 86 1018.3
20190325093514 44 112 4.0 6.0 0.00 0.00 0.00 86 1018.3
20190325093427 44 106 4.0 6.0 0.00 0.00 0.00 86 1018.3
20190325093424 44 117 4.0 6.0 0.00 0.00 0.00 86 1018.4
20190325093318 44 108 4.0 6.0 0.00 0.00 0.00 86 1018.3
20190325093315 44 111 4.0 6.0 0.00 0.00 0.00 86 1018.3
20190325093227 44 116 4.0 6.0 0.00 0.00 0.00 86 1018.3
20190325093224 44 116 4.0 6.0 0.00 0.00 0.00 86 1018.4
20190325093135 44 108 4.0 6.0 0.00 0.00 0.00 86 1018.4
20190325093023 44 106 3.0 6.0 0.00 0.00 0.00 86 1018.4
20190325092935 44 102 4.0 7.0 0.00 0.00 0.00 86 1018.4
20190325092932 44 107 4.0 7.0 0.00 0.00 0.00 86 1018.5
20190325092823 44 109 5.0 7.0 0.00 0.00 0.00 86 1018.4
20190325092820 44 99 5.0 7.0 0.00 0.00 0.00 86 1018.5
20190325092732 44 104 5.0 7.0 0.00 0.00 0.00 86 1018.4
20190325092620 44 101 4.0 7.0 0.00 0.00 0.00 86 1018.5
20190325092528 44 117 4.0 7.0 0.00 0.00 0.00 86 1018.5
20190325092420 44 101 4.0 7.0 0.00 0.00 0.00 86 1018.4
20190325092416 44 122 5.0 7.0 0.00 0.00 0.00 86 1018.5
20190325092331 44 117 4.0 7.0 0.00 0.00 0.00 86 1018.4
20190325092324 44 132 4.0 7.0 0.00 0.00 0.00 86 1018.5
20190325092219 44 110 4.0 7.0 0.00 0.00 0.00 86 1018.5
20190325092217 44 115 4.0 7.0 0.00 0.00 0.00 86 1018.5
20190325092131 44 108 4.0 7.0 0.00 0.00 0.00 86 1018.4
20190325092125 44 111 5.0 7.0 0.00 0.00 0.00 86 1018.5
20190325092033 44 117 5.0 7.0 0.00 0.00 0.00 86 1018.5
20190325092019 44 107 5.0 7.0 0.00 0.00 0.00 86 1018.5
20190325091926 44 111 4.0 7.0 0.00 0.00 0.00 86 1018.5
20190325091920 44 130 4.0 7.0 0.00 0.00 0.00 86 1018.5
20190325091828 44 107 5.0 7.0 0.00 0.00 0.00 86 1018.6
20190325091819 44 101 5.0 7.0 0.00 0.00 0.00 86 1018.5
20190325091726 44 108 5.0 7.0 0.00 0.00 0.00 86 1018.5
20190325091721 44 117 5.0 7.0 0.00 0.00 0.00 86 1018.5
20190325091634 44 125 5.0 7.0 0.00 0.00 0.00 86 1018.4
20190325091630 44 123 5.0 7.0 0.00 0.00 0.00 86 1018.6
20190325091522 44 111 4.0 7.0 0.00 0.00 0.00 86 1018.5
20190325091518 44 104 4.0 7.0 0.00 0.00 0.00 86 1018.6
20190325091430 44 125 4.0 7.0 0.00 0.00 0.00 86 1018.5
20190325091425 44 116 4.0 7.0 0.00 0.00 0.00 86 1018.5
20190325091322 44 103 5.0 7.0 0.00 0.00 0.00 86 1018.5
20190325091316 44 130 5.0 7.0 0.00 0.00 0.00 86 1018.6
20190325091231 44 107 5.0 7.0 0.00 0.00 0.00 86 1018.5
20190325091225 44 96 5.0 7.0 0.00 0.00 0.00 86 1018.5
20190325091119 44 99 5.0 7.0 0.00 0.00 0.00 86 1018.6
20190325091116 44 109 5.0 7.0 0.00 0.00 0.00 86 1018.6
20190325091030 44 122 5.0 7.0 0.00 0.00 0.00 86 1018.5
20190325091027 44 116 5.0 7.0 0.00 0.00 0.00 86 1018.6
20190325090920 44 113 4.0 7.0 0.00 0.00 0.00 86 1018.6
20190325090917 44 109 4.0 7.0 0.00 0.00 0.00 86 1018.7
20190325090828 44 122 4.0 7.0 0.00 0.00 0.00 86 1018.6
20190325090815 44 96 4.0 7.0 0.00 0.00 0.00 86 1018.6
20190325090724 44 120 5.0 7.0 0.00 0.00 0.00 86 1018.6
20190325090716 44 114 5.0 7.0 0.00 0.00 0.00 86 1018.6
20190325090632 44 119 4.0 7.0 0.00 0.00 0.00 86 1018.6
20190325090628 44 114 4.0 7.0 0.00 0.00 0.00 86 1018.7
20190325090520 44 108 4.0 7.0 0.00 0.00 0.00 87 1018.7
20190325090516 44 111 4.0 7.0 0.00 0.00 0.00 87 1018.7
20190325090428 44 101 5.0 7.0 0.00 0.00 0.00 86 1018.7
20190325090422 44 117 4.0 7.0 0.00 0.00 0.00 86 1018.7
20190325090331 44 130 4.0 7.0 0.00 0.00 0.00 87 1018.7
20190325090320 44 115 4.0 7.0 0.00 0.00 0.00 87 1018.7
20190325090229 44 109 5.0 7.0 0.00 0.00 0.00 87 1018.7
20190325090220 44 105 5.0 7.0 0.00 0.00 0.00 87 1018.7
20190325090148 44 98 5.0 7.0 0.00 0.00 0.00 87 1018.7
20190325090143 44 103 6.0 7.0 0.00 0.00 0.00 87 1018.8
20190325090022 44 131 5.0 6.0 0.00 0.00 0.00 87 1018.7
20190325090016 44 120 5.0 7.0 0.00 0.00 0.00 87 1018.8
20190325085924 44 100 4.0 7.0 0.00 0.00 0.00 87 1018.8
20190325085913 44 138 4.0 6.0 0.00 0.00 0.00 87 1018.7
20190325085834 44 107 5.0 7.0 0.00 0.00 0.00 87 1018.8
20190325085824 44 110 5.0 6.0 0.00 0.00 0.00 87 1018.7
20190325085722 44 111 4.0 7.0 0.00 0.00 0.00 87 1018.8
20190325085719 44 118 4.0 6.0 0.00 0.00 0.00 87 1018.8
20190325085630 44 98 5.0 7.0 0.00 0.00 0.00 87 1018.9
20190325085624 44 121 5.0 6.0 0.00 0.00 0.00 87 1018.8
20190325085533 44 97 5.0 6.0 0.00 0.00 0.00 87 1018.9
20190325085522 44 108 5.0 7.0 0.00 0.00 0.00 87 1018.9
20190325085430 44 101 5.0 7.0 0.00 0.00 0.00 87 1018.9
20190325085421 44 120 4.0 7.0 0.00 0.00 0.00 87 1019.0
20190325085332 44 107 5.0 7.0 0.00 0.00 0.00 87 1018.9
20190325085319 44 90 5.0 7.0 0.00 0.00 0.00 87 1018.9
20190325085227 44 111 5.0 7.0 0.00 0.00 0.00 86 1018.9
20190325085224 44 111 5.0 7.0 0.00 0.00 0.00 86 1019.0
20190325085132 44 107 5.0 7.0 0.00 0.00 0.00 86 1018.9
20190325085027 44 117 4.0 8.0 0.00 0.00 0.00 86 1018.9
20190325085023 44 102 4.0 9.0 0.00 0.00 0.00 86 1019.0
20190325084935 44 128 4.0 9.0 0.00 0.00 0.00 86 1018.9
20190325084824 44 115 5.0 9.0 0.00 0.00 0.00 86 1018.9
20190325084822 44 114 5.0 9.0 0.00 0.00 0.00 86 1019.0
20190325084733 44 96 5.0 9.0 0.00 0.00 0.00 86 1018.9
20190325084623 44 99 5.0 9.0 0.00 0.00 0.00 86 1018.9
20190325084621 44 105 5.0 9.0 0.00 0.00 0.00 86 1019.0
20190325084533 44 114 5.0 9.0 0.00 0.00 0.00 86 1018.9
20190325084421 44 106 4.0 9.0 0.00 0.00 0.00 86 1018.9
20190325084419 44 106 4.0 9.0 0.00 0.00 0.00 86 1019.0
20190325084329 44 114 5.0 9.0 0.00 0.00 0.00 86 1019.0
20190325084327 44 132 5.0 9.0 0.00 0.00 0.00 86 1019.0
20190325084220 44 131 5.0 9.0 0.00 0.00 0.00 86 1019.0
20190325084218 44 130 5.0 9.0 0.00 0.00 0.00 86 1018.9
20190325084128 44 103 6.0 9.0 0.00 0.00 0.00 86 1019.0
20190325084126 44 107 6.0 9.0 0.00 0.00 0.00 86 1019.0
20190325084018 44 107 5.0 7.0 0.00 0.00 0.00 86 1019.0
20190325083929 44 112 5.0 7.0 0.00 0.00 0.00 86 1019.0
20190325083925 44 121 5.0 7.0 0.00 0.00 0.00 86 1019.0
20190325083834 44 128 6.0 7.0 0.00 0.00 0.00 86 1019.0
20190325083817 44 115 6.0 7.0 0.00 0.00 0.00 86 1019.0
20190325083729 44 112 5.0 7.0 0.00 0.00 0.00 86 1019.0
20190325083722 44 105 5.0 7.0 0.00 0.00 0.00 86 1019.1
20190325083617 44 97 5.0 7.0 0.00 0.00 0.00 86 1019.0
20190325083527 44 112 5.0 7.0 0.00 0.00 0.00 86 1019.1
20190325083434 44 115 5.0 7.0 0.00 0.00 0.00 86 1019.1
20190325083416 44 115 4.0 7.0 0.00 0.00 0.00 86 1019.0
20190325083325 44 132 5.0 7.0 0.00 0.00 0.00 86 1019.0
20190325083322 44 111 5.0 7.0 0.00 0.00 0.00 86 1019.0
20190325083233 44 109 5.0 7.0 0.00 0.00 0.00 86 1019.0
20190325083231 44 109 5.0 7.0 0.00 0.00 0.00 86 1019.1
20190325083122 44 104 5.0 7.0 0.00 0.00 0.00 86 1019.1
20190325083034 44 140 5.0 7.0 0.00 0.00 0.00 86 1019.1
20190325083029 44 135 5.0 7.0 0.00 0.00 0.00 86 1019.1
20190325082924 44 106 5.0 6.0 0.00 0.00 0.00 86 1019.0
20190325082922 44 94 5.0 6.0 0.00 0.00 0.00 86 1019.2
20190325082833 44 123 5.0 6.0 0.00 0.00 0.00 86 1019.1
20190325082825 45 94 5.0 6.0 0.00 0.00 0.00 86 1019.1
20190325082734 44 96 4.0 6.0 0.00 0.00 0.00 86 1019.1
20190325082721 44 103 5.0 6.0 0.00 0.00 0.00 86 1019.1
20190325082629 45 124 4.0 6.0 0.00 0.00 0.00 86 1019.1
20190325082626 45 106 4.0 6.0 0.00 0.00 0.00 86 1019.2
20190325082535 45 134 4.0 6.0 0.00 0.00 0.00 86 1019.2
20190325082517 45 116 4.0 6.0 0.00 0.00 0.00 86 1019.1
20190325082430 45 113 4.0 6.0 0.00 0.00 0.00 86 1019.1
20190325082423 45 107 4.0 6.0 0.00 0.00 0.00 86 1019.2
20190325082331 45 116 4.0 6.0 0.00 0.00 0.00 86 1019.2
20190325082318 45 135 4.0 6.0 0.00 0.00 0.00 86 1019.1
20190325082226 45 92 4.0 6.0 0.00 0.00 0.00 86 1019.1
20190325082219 45 101 4.0 6.0 0.00 0.00 0.00 86 1019.2
20190325082134 45 123 4.0 6.0 0.00 0.00 0.00 86 1019.1
20190325082130 45 123 4.0 6.0 0.00 0.00 0.00 86 1019.2
20190325082023 45 118 4.0 6.0 0.00 0.00 0.00 86 1019.2
20190325081931 45 112 3.0 6.0 0.00 0.00 0.00 86 1019.2
20190325081824 45 102 4.0 6.0 0.00 0.00 0.00 86 1019.1
20190325081819 45 97 4.0 6.0 0.00 0.00 0.00 86 1019.2
20190325081732 45 107 4.0 6.0 0.00 0.00 0.00 86 1019.1
20190325081729 45 108 4.0 6.0 0.00 0.00 0.00 86 1019.2
20190325081623 45 109 4.0 6.0 0.00 0.00 0.00 86 1019.1
20190325081617 45 111 5.0 6.0 0.00 0.00 0.00 86 1019.3
20190325081531 45 126 5.0 6.0 0.00 0.00 0.00 86 1019.2
20190325081529 45 143 5.0 6.0 0.00 0.00 0.00 86 1019.3
20190325081422 45 104 5.0 6.0 0.00 0.00 0.00 86 1019.2
20190325081417 45 100 4.0 6.0 0.00 0.00 0.00 86 1019.3
20190325081328 45 107 4.0 6.0 0.00 0.00 0.00 86 1019.3
20190325081318 45 112 4.0 6.0 0.00 0.00 0.00 86 1019.2
20190325081230 45 111 4.0 6.0 0.00 0.00 0.00 86 1019.2
20190325081216 45 130 4.0 6.0 0.00 0.00 0.00 86 1019.3
20190325081124 45 107 3.0 5.0 0.00 0.00 0.00 86 1019.3
20190325081118 45 96 3.0 5.0 0.00 0.00 0.00 86 1019.2
20190325081029 45 105 4.0 5.0 0.00 0.00 0.00 87 1019.2
20190325081015 45 120 4.0 5.0 0.00 0.00 0.00 87 1019.3
20190325080924 45 114 3.0 5.0 0.00 0.00 0.00 87 1019.4
20190325080916 45 113 3.0 5.0 0.00 0.00 0.00 87 1019.2
20190325080832 45 132 3.0 5.0 0.00 0.00 0.00 87 1019.3
20190325080828 45 132 3.0 5.0 0.00 0.00 0.00 87 1019.2
20190325080721 45 113 4.0 5.0 0.00 0.00 0.00 87 1019.4
20190325080629 45 115 3.0 5.0 0.00 0.00 0.00 87 1019.4
20190325080624 45 113 3.0 5.0 0.00 0.00 0.00 87 1019.2
20190325080532 45 103 3.0 5.0 0.00 0.00 0.00 87 1019.2
20190325080522 45 108 2.0 5.0 0.00 0.00 0.00 87 1019.3
20190325080429 45 96 3.0 5.0 0.00 0.00 0.00 87 1019.3
20190325080422 45 96 3.0 5.0 0.00 0.00 0.00 87 1019.2
20190325080333 45 109 3.0 5.0 0.00 0.00 0.00 87 1019.2
20190325080316 45 121 2.0 5.0 0.00 0.00 0.00 87 1019.4
20190325080226 45 125 2.0 5.0 0.00 0.00 0.00 87 1019.4
20190325080221 45 125 2.0 5.0 0.00 0.00 0.00 87 1019.3
20190325080146 45 94 3.0 5.0 0.00 0.00 0.00 87 1019.4
20190325080141 45 94 3.0 5.0 0.00 0.00 0.00 87 1019.2
20190325080035 45 115 3.0 5.0 0.00 0.00 0.00 87 1019.3
20190325080019 45 104 3.0 5.0 0.00 0.00 0.00 87 1019.5
20190325075922 45 116 3.0 5.0 0.00 0.00 0.00 87 1019.3
20190325075915 45 119 3.0 5.0 0.00 0.00 0.00 87 1019.5
20190325075823 45 109 3.0 4.0 0.00 0.00 0.00 87 1019.5
20190325075817 45 108 3.0 4.0 0.00 0.00 0.00 87 1019.3
20190325075732 45 117 3.0 4.0 0.00 0.00 0.00 87 1019.5
20190325075725 45 101 3.0 4.0 0.00 0.00 0.00 87 1019.4
20190325075620 45 105 3.0 4.0 0.00 0.00 0.00 87 1019.5
20190325075613 45 111 3.0 4.0 0.00 0.00 0.00 87 1019.4
20190325075528 45 111 2.0 4.0 0.00 0.00 0.00 87 1019.5
20190325075525 45 111 2.0 4.0 0.00 0.00 0.00 87 1019.4
20190325075440 45 96 2.0 3.0 0.00 0.00 0.00 87 1019.6
20190325075415 45 96 2.0 3.0 0.00 0.00 0.00 87 1019.5
20190325075326 45 97 1.0 4.0 0.00 0.00 0.00 87 1019.4
20190325075321 45 97 1.0 4.0 0.00 0.00 0.00 87 1019.6
20190325075225 45 97 1.0 4.0 0.00 0.00 0.00 87 1019.6
20190325075219 45 97 1.0 4.0 0.00 0.00 0.00 87 1019.5
20190325075127 45 97 0.0 4.0 0.00 0.00 0.00 87 1019.5
20190325075116 45 97 1.0 4.0 0.00 0.00 0.00 87 1019.7
20190325075024 45 97 1.0 4.0 0.00 0.00 0.00 87 1019.7
20190325075016 45 97 1.0 4.0 0.00 0.00 0.00 87 1019.5
20190325074923 45 97 1.0 4.0 0.00 0.00 0.00 86 1019.5
20190325074916 45 97 1.0 4.0 0.00 0.00 0.00 86 1019.7
20190325074832 45 97 2.0 4.0 0.00 0.00 0.00 87 1019.6
20190325074824 45 97 2.0 4.0 0.00 0.00 0.00 87 1019.7
20190325074733 45 97 2.0 4.0 0.00 0.00 0.00 87 1019.7
20190325074724 45 97 2.0 4.0 0.00 0.00 0.00 87 1019.6
20190325074634 45 97 2.0 4.0 0.00 0.00 0.00 87 1019.6
20190325074621 45 97 2.0 4.0 0.00 0.00 0.00 87 1019.8
20190325074529 45 99 2.0 4.0 0.00 0.00 0.00 87 1019.8
20190325074522 45 99 2.0 4.0 0.00 0.00 0.00 87 1019.7
20190325074417 45 111 2.0 3.0 0.00 0.00 0.00 87 1019.8
20190325074413 45 111 3.0 3.0 0.00 0.00 0.00 87 1019.6
20190325074329 45 113 2.0 3.0 0.00 0.00 0.00 87 1019.9
20190325074324 45 113 2.0 3.0 0.00 0.00 0.00 87 1019.7
20190325074218 45 113 2.0 3.0 0.00 0.00 0.00 87 1019.8
20190325074129 45 113 2.0 3.0 0.00 0.00 0.00 87 1019.9
20190325074020 45 113 2.0 3.0 0.00 0.00 0.00 87 1019.7
20190325074017 45 113 2.0 3.0 0.00 0.00 0.00 87 1019.8
20190325073928 45 113 2.0 3.0 0.00 0.00 0.00 86 1019.7
20190325073925 45 113 2.0 3.0 0.00 0.00 0.00 86 1019.9
20190325073817 45 113 2.0 3.0 0.00 0.00 0.00 86 1019.8
20190325073729 45 113 2.0 3.0 0.00 0.00 0.00 86 1019.8
20190325073616 45 113 2.0 3.0 0.00 0.00 0.00 86 1019.8
20190325073525 45 113 2.0 3.0 0.00 0.00 0.00 86 1019.8
20190325073433 45 113 2.0 3.0 0.00 0.00 0.00 86 1019.8
20190325073320 45 113 2.0 3.0 0.00 0.00 0.00 86 1019.7
20190325073228 45 113 1.0 2.0 0.00 0.00 0.00 86 1019.8
20190325073225 45 113 1.0 2.0 0.00 0.00 0.00 86 1019.7
20190325073117 46 113 0.0 0.0 0.00 0.00 0.00 86 1019.7
20190325073028 46 113 0.0 0.0 0.00 0.00 0.00 86 1019.8
20190325073026 46 113 0.0 0.0 0.00 0.00 0.00 86 1020.0
20190325072932 46 113 0.0 0.0 0.00 0.00 0.00 86 1020.0
20190325072916 46 113 0.0 0.0 0.00 0.00 0.00 86 1019.8
20190325072824 46 113 0.0 0.0 0.00 0.00 0.00 86 1019.9
20190325072821 46 113 0.0 0.0 0.00 0.00 0.00 86 1020.0
20190325072733 46 113 0.0 0.0 0.00 0.00 0.00 86 1019.8
20190325072713 46 113 0.0 0.0 0.00 0.00 0.00 86 1019.9
20190325072625 46 113 0.0 0.0 0.00 0.00 0.00 86 1019.9
20190325072534 46 113 0.0 1.0 0.00 0.00 0.00 86 1020.0
20190325072516 46 113 0.0 1.0 0.00 0.00 0.00 86 1019.8
20190325072423 46 113 0.0 1.0 0.00 0.00 0.00 86 1019.9
20190325072421 46 113 0.0 1.0 0.00 0.00 0.00 86 1020.0
20190325072332 46 113 0.0 1.0 0.00 0.00 0.00 86 1020.0
20190325072220 46 113 0.0 2.0 0.00 0.00 0.00 86 1020.0
20190325072117 46 113 0.0 2.0 0.00 0.00 0.00 86 1020.0
20190325072021 46 113 0.0 3.0 0.00 0.00 0.00 86 1020.0
20190325071932 46 113 0.0 3.0 0.00 0.00 0.00 86 1019.9
20190325071916 46 113 0.0 3.0 0.00 0.00 0.00 86 1020.0
20190325071824 46 113 0.0 3.0 0.00 0.00 0.00 86 1020.0
20190325071732 46 113 0.0 3.0 0.00 0.00 0.00 86 1020.0
20190325071716 46 113 1.0 3.0 0.00 0.00 0.00 86 1020.0
20190325071624 46 113 1.0 3.0 0.00 0.00 0.00 86 1020.0
20190325071533 46 113 1.0 3.0 0.00 0.00 0.00 86 1020.0
20190325071420 46 113 1.0 3.0 0.00 0.00 0.00 86 1020.0
20190325071327 46 113 1.0 3.0 0.00 0.00 0.00 86 1020.0
20190325071216 46 113 1.0 3.0 0.00 0.00 0.00 86 1020.0
20190325071124 46 113 1.0 3.0 0.00 0.00 0.00 86 1020.0
20190325071016 46 113 1.0 3.0 0.00 0.00 0.00 86 1019.9
20190325070923 46 113 1.0 3.0 0.00 0.00 0.00 86 1019.9
20190325070833 46 113 1.0 3.0 0.00 0.00 0.00 86 1019.9
20190325070721 46 113 1.0 3.0 0.00 0.00 0.00 85 1019.9
20190325070629 46 113 1.0 3.0 0.00 0.00 0.00 86 1020.0
20190325070523 46 113 2.0 3.0 0.00 0.00 0.00 86 1020.0
20190325070432 46 131 1.0 3.0 0.00 0.00 0.00 85 1019.9
20190325070425 46 131 1.0 3.0 0.00 0.00 0.00 85 1020.0
20190325070333 46 131 1.0 3.0 0.00 0.00 0.00 85 1019.9
20190325070320 46 131 1.0 3.0 0.00 0.00 0.00 85 1020.0
20190325070229 46 131 2.0 3.0 0.00 0.00 0.00 85 1019.9
20190325070222 46 131 1.0 3.0 0.00 0.00 0.00 85 1019.9
20190325070145 46 131 1.0 3.0 0.00 0.00 0.00 85 1019.9
20190325070128 46 131 1.0 3.0 0.00 0.00 0.00 85 1019.8
20190325070029 46 131 0.0 3.0 0.00 0.00 0.00 85 1019.9
20190325070019 46 131 0.0 3.0 0.00 0.00 0.00 85 1020.0
20190325065919 46 131 2.0 3.0 0.00 0.00 0.00 85 1019.9
20190325065828 46 131 2.0 3.0 0.00 0.00 0.00 85 1019.8
20190325065818 46 131 2.0 3.0 0.00 0.00 0.00 85 1019.9
20190325065719 46 132 2.0 2.0 0.00 0.00 0.00 85 1020.0
20190325065627 46 132 2.0 2.0 0.00 0.00 0.00 85 1019.9
20190325065618 46 132 2.0 2.0 0.00 0.00 0.00 85 1020.0
20190325065520 46 131 1.0 2.0 0.00 0.00 0.00 85 1020.0
20190325065417 46 107 0.0 3.0 0.00 0.00 0.00 85 1020.0
20190325065325 46 107 0.0 3.0 0.00 0.00 0.00 85 1019.9
20190325065316 46 107 0.0 3.0 0.00 0.00 0.00 85 1020.0
20190325065225 46 107 1.0 3.0 0.00 0.00 0.00 85 1020.0
20190325065215 46 107 1.0 4.0 0.00 0.00 0.00 84 1019.9
20190325065132 46 107 1.0 3.0 0.00 0.00 0.00 84 1020.0
20190325065123 46 107 1.0 4.0 0.00 0.00 0.00 84 1020.0
20190325065021 46 107 0.0 3.0 0.00 0.00 0.00 84 1020.0
20190325065015 46 107 0.0 4.0 0.00 0.00 0.00 84 1020.0
20190325064924 46 107 0.0 4.0 0.00 0.00 0.00 84 1019.9
20190325064913 46 107 0.0 3.0 0.00 0.00 0.00 84 1019.9
20190325064831 46 107 1.0 4.0 0.00 0.00 0.00 84 1020.0
20190325064825 46 107 1.0 3.0 0.00 0.00 0.00 84 1020.0
20190325064733 46 107 1.0 3.0 0.00 0.00 0.00 84 1020.0
20190325064720 46 107 1.0 4.0 0.00 0.00 0.00 84 1020.0
20190325064628 46 107 2.0 4.0 0.00 0.00 0.00 84 1020.0
20190325064621 46 107 2.0 3.0 0.00 0.00 0.00 84 1019.9
20190325064530 46 129 2.0 3.0 0.00 0.00 0.00 84 1020.0
20190325064520 47 131 2.0 4.0 0.00 0.00 0.00 84 1020.1
20190325064429 47 132 3.0 4.0 0.00 0.00 0.00 84 1020.0
20190325064420 47 132 3.0 3.0 0.00 0.00 0.00 84 1019.9
20190325064331 47 132 2.0 3.0 0.00 0.00 0.00 83 1020.1
20190325064317 47 132 2.0 3.0 0.00 0.00 0.00 83 1020.0
20190325064226 47 134 2.0 3.0 0.00 0.00 0.00 83 1020.0
20190325064220 47 140 2.0 3.0 0.00 0.00 0.00 83 1020.0
20190325064128 47 151 2.0 3.0 0.00 0.00 0.00 83 1020.0
20190325064027 47 151 2.0 3.0 0.00 0.00 0.00 83 1020.1
20190325064017 47 151 2.0 3.0 0.00 0.00 0.00 83 1020.0
20190325063934 47 151 2.0 3.0 0.00 0.00 0.00 83 1020.0
20190325063929 47 151 1.0 3.0 0.00 0.00 0.00 83 1020.0
20190325063822 47 151 2.0 3.0 0.00 0.00 0.00 83 1020.1
20190325063814 47 151 2.0 3.0 0.00 0.00 0.00 83 1020.0
20190325063725 47 151 2.0 3.0 0.00 0.00 0.00 82 1020.0
20190325063633 47 151 1.0 3.0 0.00 0.00 0.00 83 1020.1
20190325063619 47 126 0.0 3.0 0.00 0.00 0.00 83 1020.0
20190325063521 47 126 1.0 3.0 0.00 0.00 0.00 83 1020.1
20190325063429 47 126 1.0 3.0 0.00 0.00 0.00 83 1020.0
20190325063418 47 126 1.0 3.0 0.00 0.00 0.00 83 1020.1
20190325063326 47 126 1.0 4.0 0.00 0.00 0.00 83 1020.1
20190325063321 47 126 1.0 4.0 0.00 0.00 0.00 83 1020.0
20190325063230 47 126 1.0 4.0 0.00 0.00 0.00 82 1020.0
20190325063123 47 125 2.0 4.0 0.00 0.00 0.00 82 1020.0
20190325063118 47 98 2.0 4.0 0.00 0.00 0.00 82 1020.0
20190325063030 48 115 1.0 5.0 0.00 0.00 0.00 82 1020.0
20190325062923 48 103 1.0 5.0 0.00 0.00 0.00 82 1020.0
20190325062918 48 103 2.0 5.0 0.00 0.00 0.00 82 1020.0
20190325062831 48 103 2.0 5.0 0.00 0.00 0.00 82 1020.0
20190325062719 48 117 2.0 5.0 0.00 0.00 0.00 82 1020.0
20190325062628 48 118 3.0 5.0 0.00 0.00 0.00 82 1020.0
20190325062516 48 119 3.0 5.0 0.00 0.00 0.00 82 1020.0
20190325062429 48 112 3.0 5.0 0.00 0.00 0.00 82 1019.9
20190325062424 48 111 3.0 5.0 0.00 0.00 0.00 82 1020.0
20190325062317 48 132 3.0 5.0 0.00 0.00 0.00 82 1020.0
20190325062228 48 130 4.0 5.0 0.00 0.00 0.00 82 1020.0
20190325062226 48 111 4.0 5.0 0.00 0.00 0.00 82 1020.0
20190325062134 48 98 3.0 5.0 0.00 0.00 0.00 82 1020.0
20190325062119 48 131 3.0 5.0 0.00 0.00 0.00 82 1020.0
20190325062028 48 94 3.0 5.0 0.00 0.00 0.00 82 1020.0
20190325062022 48 103 3.0 5.0 0.00 0.00 0.00 82 1020.0
20190325061929 48 96 3.0 5.0 0.00 0.00 0.00 82 1020.0
20190325061918 48 96 4.0 5.0 0.00 0.00 0.00 82 1020.0
20190325061835 48 127 3.0 5.0 0.00 0.00 0.00 82 1020.0
20190325061821 48 100 3.0 5.0 0.00 0.00 0.00 82 1020.0
20190325061723 48 95 2.0 5.0 0.00 0.00 0.00 82 1020.0
20190325061618 48 129 2.0 5.0 0.00 0.00 0.00 82 1020.0
20190325061615 48 129 2.0 5.0 0.00 0.00 0.00 82 1019.9
20190325061526 48 129 2.0 5.0 0.00 0.00 0.00 82 1019.9
20190325061418 48 94 2.0 5.0 0.00 0.00 0.00 82 1019.9
20190325061415 48 94 2.0 5.0 0.00 0.00 0.00 82 1020.0
20190325061330 48 111 3.0 5.0 0.00 0.00 0.00 82 1020.0
20190325061328 48 111 3.0 5.0 0.00 0.00 0.00 82 1019.9
20190325061218 48 105 3.0 5.0 0.00 0.00 0.00 82 1020.0
20190325061129 48 92 3.0 5.0 0.00 0.00 0.00 82 1020.0
20190325061126 48 101 3.0 5.0 0.00 0.00 0.00 82 1020.0
20190325061030 48 113 4.0 5.0 0.00 0.00 0.00 82 1020.0
20190325061017 48 112 4.0 5.0 0.00 0.00 0.00 82 1020.0
20190325060925 48 98 3.0 5.0 0.00 0.00 0.00 82 1020.0
20190325060918 48 96 3.0 5.0 0.00 0.00 0.00 82 1020.1
20190325060827 48 113 3.0 5.0 0.00 0.00 0.00 82 1020.0
20190325060817 48 126 3.0 5.0 0.00 0.00 0.00 82 1020.0
20190325060729 48 116 4.0 5.0 0.00 0.00 0.00 82 1020.0
20190325060719 48 113 4.0 5.0 0.00 0.00 0.00 82 1020.0
20190325060620 48 114 3.0 5.0 0.00 0.00 0.00 82 1020.0
20190325060534 48 134 3.0 5.0 0.00 0.00 0.00 82 1020.0
20190325060532 48 130 3.0 5.0 0.00 0.00 0.00 82 1020.0
20190325060421 48 111 4.0 5.0 0.00 0.00 0.00 82 1019.9
20190325060418 48 117 4.0 5.0 0.00 0.00 0.00 82 1020.0
20190325060330 48 110 4.0 5.0 0.00 0.00 0.00 82 1020.0
20190325060218 48 120 3.0 5.0 0.00 0.00 0.00 82 1019.9
20190325060139 48 109 4.0 5.0 0.00 0.00 0.00 82 1019.9
20190325060137 48 109 4.0 5.0 0.00 0.00 0.00 82 1020.0
20190325060033 48 97 4.0 5.0 0.00 0.00 0.00 82 1019.9
20190325055920 48 110 4.0 5.0 0.00 0.00 0.00 81 1019.9
20190325055830 48 115 4.0 5.0 0.00 0.00 0.00 81 1020.0
20190325055827 48 109 4.0 5.0 0.00 0.00 0.00 81 1020.0
20190325055722 48 101 4.0 5.0 0.00 0.00 0.00 81 1020.0
20190325055719 48 105 3.0 5.0 0.00 0.00 0.00 81 1020.0
20190325055631 48 107 4.0 5.0 0.00 0.00 0.00 81 1020.0
20190325055613 48 106 3.0 5.0 0.00 0.00 0.00 81 1020.0
20190325055524 48 108 3.0 5.0 0.00 0.00 0.00 81 1020.0
20190325055520 48 123 3.0 5.0 0.00 0.00 0.00 81 1020.0
20190325055435 48 103 4.0 5.0 0.00 0.00 0.00 81 1020.1
20190325055424 48 111 4.0 5.0 0.00 0.00 0.00 81 1020.0
20190325055332 48 114 3.0 5.0 0.00 0.00 0.00 81 1020.0
20190325055323 48 153 4.0 5.0 0.00 0.00 0.00 81 1020.1
20190325055227 48 117 3.0 5.0 0.00 0.00 0.00 81 1020.0
20190325055220 48 115 3.0 5.0 0.00 0.00 0.00 81 1020.1
20190325055134 48 119 4.0 5.0 0.00 0.00 0.00 81 1020.1
20190325055131 48 103 4.0 5.0 0.00 0.00 0.00 81 1020.1
20190325055023 48 140 3.0 5.0 0.00 0.00 0.00 81 1020.1
20190325055019 48 111 3.0 5.0 0.00 0.00 0.00 81 1020.0
20190325054931 48 102 3.0 7.0 0.00 0.00 0.00 81 1020.0
20190325054838 48 101 3.0 7.0 0.00 0.00 0.00 81 1020.1
20190325054724 48 111 3.0 7.0 0.00 0.00 0.00 85 1020.0
20190325054616 48 113 3.0 7.0 0.00 0.00 0.00 81 1020.1
20190325054527 48 115 4.0 7.0 0.00 0.00 0.00 81 1020.0
20190325054524 48 114 4.0 7.0 0.00 0.00 0.00 81 1020.0
20190325054435 48 97 4.0 7.0 0.00 0.00 0.00 81 1020.1
20190325054432 48 126 4.0 7.0 0.00 0.00 0.00 81 1020.0
20190325054333 48 102 3.0 7.0 0.00 0.00 0.00 81 1020.0
20190325054323 48 105 3.0 7.0 0.00 0.00 0.00 81 1020.1
20190325054232 48 119 3.0 7.0 0.00 0.00 0.00 81 1020.0
20190325054223 48 114 3.0 7.0 0.00 0.00 0.00 81 1020.0
20190325054135 48 112 4.0 7.0 0.00 0.00 0.00 81 1020.0
20190325054124 48 142 4.0 7.0 0.00 0.00 0.00 81 1020.0
20190325054035 48 121 4.0 7.0 0.00 0.00 0.00 81 1020.1
20190325054023 48 99 4.0 7.0 0.00 0.00 0.00 81 1020.0
20190325053930 48 112 3.0 6.0 0.00 0.00 0.00 81 1020.0
20190325053922 48 88 3.0 6.0 0.00 0.00 0.00 80 1020.1
20190325053834 48 109 3.0 6.0 0.00 0.00 0.00 80 1020.1
20190325053818 48 107 3.0 6.0 0.00 0.00 0.00 80 1020.1
20190325053726 48 67 3.0 7.0 0.00 0.00 0.00 80 1020.1
20190325053722 48 117 3.0 7.0 0.00 0.00 0.00 80 1020.0
20190325053635 49 107 4.0 7.0 0.00 0.00 0.00 80 1020.1
20190325053618 48 103 4.0 7.0 0.00 0.00 0.00 80 1020.0
20190325053526 49 95 3.0 7.0 0.00 0.00 0.00 80 1020.1
20190325053524 49 96 3.0 7.0 0.00 0.00 0.00 80 1020.1
20190325053434 49 82 3.0 7.0 0.00 0.00 0.00 80 1020.1
20190325053431 49 86 3.0 7.0 0.00 0.00 0.00 80 1020.1
20190325053322 49 117 4.0 7.0 0.00 0.00 0.00 80 1020.1
20190325053319 49 78 4.0 7.0 0.00 0.00 0.00 80 1020.1
20190325053230 49 106 4.0 7.0 0.00 0.00 0.00 80 1020.2
20190325053125 49 105 3.0 7.0 0.00 0.00 0.00 80 1020.1
20190325053121 49 114 3.0 7.0 0.00 0.00 0.00 80 1020.1
20190325053034 49 101 4.0 7.0 0.00 0.00 0.00 80 1020.2
20190325053030 49 112 4.0 7.0 0.00 0.00 0.00 80 1020.2
20190325052921 49 107 4.0 7.0 0.00 0.00 0.00 80 1020.2
20190325052917 49 100 4.0 7.0 0.00 0.00 0.00 80 1020.2
20190325052830 49 132 3.0 5.0 0.00 0.00 0.00 80 1020.1
20190325052827 49 132 3.0 5.0 0.00 0.00 0.00 80 1020.2
20190325052718 49 98 3.0 5.0 0.00 0.00 0.00 80 1020.2
20190325052629 49 120 3.0 5.0 0.00 0.00 0.00 80 1020.2
20190325052518 49 122 2.0 5.0 0.00 0.00 0.00 80 1020.1
20190325052428 49 104 2.0 5.0 0.00 0.00 0.00 80 1020.2
20190325052315 49 107 2.0 5.0 0.00 0.00 0.00 80 1020.2
20190325052224 49 98 3.0 5.0 0.00 0.00 0.00 80 1020.2
20190325052132 49 85 3.0 5.0 0.00 0.00 0.00 80 1020.2
20190325052027 49 62 4.0 5.0 0.00 0.00 0.00 80 1020.2
20190325052024 49 80 4.0 5.0 0.00 0.00 0.00 80 1020.1
20190325051935 49 86 3.0 5.0 0.00 0.00 0.00 80 1020.2
20190325051932 49 107 3.0 5.0 0.00 0.00 0.00 80 1020.1
20190325051824 49 103 3.0 5.0 0.00 0.00 0.00 80 1020.2
20190325051819 49 100 3.0 5.0 0.00 0.00 0.00 80 1020.2
20190325051736 49 118 3.0 4.0 0.00 0.00 0.00 80 1020.2
20190325051728 49 117 3.0 4.0 0.00 0.00 0.00 80 1020.2
20190325051623 49 107 2.0 4.0 0.00 0.00 0.00 80 1020.2
20190325051615 49 109 2.0 4.0 0.00 0.00 0.00 80 1020.2
20190325051529 49 99 3.0 4.0 0.00 0.00 0.00 80 1020.2
20190325051516 49 111 3.0 4.0 0.00 0.00 0.00 80 1020.2
20190325051424 49 84 3.0 4.0 0.00 0.00 0.00 80 1020.2
20190325051416 49 101 3.0 4.0 0.00 0.00 0.00 80 1020.2
20190325051332 49 98 3.0 4.0 0.00 0.00 0.00 80 1020.2
20190325051324 49 115 3.0 4.0 0.00 0.00 0.00 80 1020.2
20190325051231 49 111 3.0 4.0 0.00 0.00 0.00 80 1020.2
20190325051224 49 95 3.0 4.0 0.00 0.00 0.00 80 1020.3
20190325051135 49 113 2.0 4.0 0.00 0.00 0.00 80 1020.3
20190325051119 49 107 2.0 4.0 0.00 0.00 0.00 80 1020.3
20190325051028 49 82 2.0 4.0 0.00 0.00 0.00 80 1020.3
20190325050918 49 99 2.0 4.0 0.00 0.00 0.00 80 1020.2
20190325050830 49 90 2.0 4.0 0.00 0.00 0.00 80 1020.3
20190325050823 49 98 2.0 4.0 0.00 0.00 0.00 80 1020.2
20190325050721 49 98 2.0 4.0 0.00 0.00 0.00 80 1020.3
20190325050713 49 107 2.0 4.0 0.00 0.00 0.00 80 1020.3
20190325050632 49 107 2.0 4.0 0.00 0.00 0.00 80 1020.3
20190325050624 49 107 2.0 4.0 0.00 0.00 0.00 79 1020.3
20190325050531 49 99 1.0 4.0 0.00 0.00 0.00 79 1020.3
20190325050521 49 95 1.0 4.0 0.00 0.00 0.00 79 1020.4
20190325050435 49 95 1.0 4.0 0.00 0.00 0.00 79 1020.4
20190325050422 49 98 1.0 4.0 0.00 0.00 0.00 79 1020.4
20190325050330 49 98 1.0 4.0 0.00 0.00 0.00 79 1020.4
20190325050322 49 98 1.0 4.0 0.00 0.00 0.00 79 1020.3
20190325050218 49 98 1.0 4.0 0.00 0.00 0.00 79 1020.4
20190325050131 49 98 2.0 4.0 0.00 0.00 0.00 79 1020.4
20190325050035 49 101 2.0 4.0 0.00 0.00 0.00 79 1020.4
20190325050027 49 98 2.0 4.0 0.00 0.00 0.00 79 1020.4
20190325045927 49 111 2.0 4.0 0.00 0.00 0.00 79 1020.5
20190325045915 49 101 2.0 4.0 0.00 0.00 0.00 79 1020.5
20190325045835 49 123 1.0 4.0 0.00 0.00 0.00 79 1020.4
20190325045823 49 123 2.0 4.0 0.00 0.00 0.00 79 1020.4
20190325045731 49 123 2.0 4.0 0.00 0.00 0.00 79 1020.4
20190325045724 49 119 2.0 4.0 0.00 0.00 0.00 79 1020.4
20190325045619 50 118 2.0 4.0 0.00 0.00 0.00 79 1020.4
20190325045527 50 127 2.0 4.0 0.00 0.00 0.00 79 1020.4
20190325045419 50 128 2.0 4.0 0.00 0.00 0.00 79 1020.4
20190325045330 50 128 3.0 4.0 0.00 0.00 0.00 79 1020.4
20190325045221 50 91 3.0 4.0 0.00 0.00 0.00 79 1020.5
20190325045128 50 106 3.0 4.0 0.00 0.00 0.00 79 1020.4
20190325045035 50 113 3.0 4.0 0.00 0.00 0.00 79 1020.4
20190325045032 50 101 3.0 4.0 0.00 0.00 0.00 79 1020.4
20190325044923 50 104 3.0 4.0 0.00 0.00 0.00 79 1020.4
20190325044920 50 109 3.0 4.0 0.00 0.00 0.00 79 1020.4
20190325044833 50 104 3.0 4.0 0.00 0.00 0.00 79 1020.5
20190325044815 50 115 3.0 4.0 0.00 0.00 0.00 79 1020.5
20190325044727 50 101 3.0 4.0 0.00 0.00 0.00 79 1020.4
20190325044722 50 121 3.0 4.0 0.00 0.00 0.00 79 1020.5
20190325044635 50 115 2.0 4.0 0.00 0.00 0.00 79 1020.4
20190325044630 50 112 2.0 4.0 0.00 0.00 0.00 79 1020.4
20190325044523 50 117 2.0 4.0 0.00 0.00 0.00 79 1020.5
20190325044518 50 117 2.0 4.0 0.00 0.00 0.00 79 1020.4
20190325044432 50 97 2.0 4.0 0.00 0.00 0.00 79 1020.4
20190325044426 50 80 1.0 4.0 0.00 0.00 0.00 79 1020.4
20190325044318 50 78 2.0 4.0 0.00 0.00 0.00 79 1020.4
20190325044230 50 103 2.0 4.0 0.00 0.00 0.00 79 1020.4
20190325044120 50 93 3.0 4.0 0.00 0.00 0.00 79 1020.4
20190325044029 50 119 3.0 4.0 0.00 0.00 0.00 79 1020.4
20190325043916 50 96 3.0 4.0 0.00 0.00 0.00 79 1020.5
20190325043828 50 111 2.0 3.0 0.00 0.00 0.00 79 1020.5
20190325043718 50 92 1.0 3.0 0.00 0.00 0.00 78 1020.5
20190325043624 50 92 1.0 3.0 0.00 0.00 0.00 78 1020.5
20190325043529 50 92 2.0 3.0 0.00 0.00 0.00 78 1020.5
20190325043416 50 115 1.0 3.0 0.00 0.00 0.00 78 1020.5
20190325043325 50 115 2.0 3.0 0.00 0.00 0.00 78 1020.5
20190325043217 50 107 2.0 3.0 0.00 0.00 0.00 78 1020.5
20190325043128 50 98 1.0 3.0 0.00 0.00 0.00 78 1020.4
20190325043020 50 92 2.0 3.0 0.00 0.00 0.00 78 1020.5
20190325042927 50 87 1.0 3.0 0.00 0.00 0.00 78 1020.5
20190325042816 50 86 2.0 3.0 0.00 0.00 0.00 78 1020.5
20190325042731 50 86 1.0 3.0 0.00 0.00 0.00 78 1020.5
20190325042623 50 77 2.0 3.0 0.00 0.00 0.00 78 1020.5
20190325042619 50 84 2.0 3.0 0.00 0.00 0.00 78 1020.5
20190325042531 50 67 1.0 3.0 0.00 0.00 0.00 78 1020.5
20190325042528 50 67 1.0 3.0 0.00 0.00 0.00 78 1020.4
20190325042416 50 85 1.0 3.0 0.00 0.00 0.00 78 1020.5
20190325042328 51 85 1.0 3.0 0.00 0.00 0.00 78 1020.5
20190325042325 51 85 2.0 3.0 0.00 0.00 0.00 78 1020.5
20190325042220 51 88 1.0 3.0 0.00 0.00 0.00 77 1020.5
20190325042217 51 88 1.0 2.0 0.00 0.00 0.00 77 1020.4
20190325042131 51 88 1.0 3.0 0.00 0.00 0.00 77 1020.5
20190325042125 51 88 1.0 2.0 0.00 0.00 0.00 77 1020.5
20190325042034 51 88 1.0 2.0 0.00 0.00 0.00 77 1020.5
20190325042020 51 88 1.0 3.0 0.00 0.00 0.00 77 1020.6
20190325041920 51 88 1.0 3.0 0.00 0.00 0.00 77 1020.5
20190325041815 51 95 1.0 3.0 0.00 0.00 0.00 77 1020.5
20190325041728 51 82 1.0 3.0 0.00 0.00 0.00 77 1020.6
20190325041720 51 82 1.0 3.0 0.00 0.00 0.00 77 1020.5
20190325041629 51 76 1.0 3.0 0.00 0.00 0.00 77 1020.5
20190325041616 51 115 1.0 3.0 0.00 0.00 0.00 77 1020.6
20190325041524 51 115 0.0 3.0 0.00 0.00 0.00 77 1020.5
20190325041517 51 115 1.0 3.0 0.00 0.00 0.00 77 1020.5
20190325041432 51 115 0.0 3.0 0.00 0.00 0.00 77 1020.5
20190325041428 51 115 1.0 3.0 0.00 0.00 0.00 77 1020.5
20190325041320 51 115 1.0 4.0 0.00 0.00 0.00 77 1020.5
20190325041318 51 115 1.0 4.0 0.00 0.00 0.00 77 1020.6
20190325041226 51 115 1.0 4.0 0.00 0.00 0.00 77 1020.6
20190325041123 51 115 2.0 4.0 0.00 0.00 0.00 77 1020.5
20190325041118 51 115 2.0 4.0 0.00 0.00 0.00 77 1020.6
20190325041031 51 112 1.0 4.0 0.00 0.00 0.00 77 1020.6
20190325041026 51 111 1.0 4.0 0.00 0.00 0.00 77 1020.6
20190325040934 51 112 2.0 4.0 0.00 0.00 0.00 77 1020.6
20190325040920 51 112 3.0 4.0 0.00 0.00 0.00 77 1020.5
20190325040823 51 115 2.0 4.0 0.00 0.00 0.00 77 1020.6
20190325040716 51 123 2.0 4.0 0.00 0.00 0.00 77 1020.5
20190325040629 51 123 2.0 4.0 0.00 0.00 0.00 77 1020.5
20190325040623 51 123 2.0 4.0 0.00 0.00 0.00 77 1020.6
20190325040532 51 117 3.0 4.0 0.00 0.00 0.00 77 1020.5
20190325040517 51 118 3.0 4.0 0.00 0.00 0.00 77 1020.5
20190325040420 51 119 2.0 3.0 0.00 0.00 0.00 77 1020.5
20190325040327 51 78 1.0 3.0 0.00 0.00 0.00 77 1020.5
20190325040223 51 84 1.0 3.0 0.00 0.00 0.00 77 1020.5
20190325040139 51 78 1.0 3.0 0.00 0.00 0.00 77 1020.5
20190325040013 51 81 1.0 3.0 0.00 0.00 0.00 77 1020.5
20190325035927 51 90 2.0 3.0 0.00 0.00 0.00 77 1020.5
20190325035923 51 83 2.0 3.0 0.00 0.00 0.00 77 1020.5
20190325035836 51 94 2.0 3.0 0.00 0.00 0.00 77 1020.5
20190325035722 51 69 1.0 3.0 0.00 0.00 0.00 77 1020.4
20190325035720 51 53 1.0 3.0 0.00 0.00 0.00 77 1020.6
20190325035614 51 65 1.0 3.0 0.00 0.00 0.00 77 1020.5
20190325035521 51 30 1.0 4.0 0.00 0.00 0.00 77 1020.5
20190325035433 51 79 1.0 4.0 0.00 0.00 0.00 77 1020.5
20190325035431 51 79 1.0 4.0 0.00 0.00 0.00 77 1020.4
20190325035321 51 71 2.0 4.0 0.00 0.00 0.00 77 1020.5
20190325035228 51 80 2.0 4.0 0.00 0.00 0.00 77 1020.5
20190325035116 51 65 1.0 5.0 0.00 0.00 0.00 77 1020.6
20190325035029 51 85 2.0 5.0 0.00 0.00 0.00 77 1020.5
20190325035026 51 86 1.0 4.0 0.00 0.00 0.00 77 1020.5
20190325034934 51 104 1.0 4.0 0.00 0.00 0.00 77 1020.5
20190325034917 51 107 1.0 5.0 0.00 0.00 0.00 77 1020.5
20190325034828 51 109 2.0 5.0 0.00 0.00 0.00 77 1020.6
20190325034821 51 115 1.0 4.0 0.00 0.00 0.00 77 1020.6
20190325034730 51 146 2.0 4.0 0.00 0.00 0.00 77 1020.6
20190325034719 51 113 2.0 5.0 0.00 0.00 0.00 77 1020.6
20190325034627 51 117 2.0 5.0 0.00 0.00 0.00 77 1020.6
20190325034618 51 119 2.0 4.0 0.00 0.00 0.00 77 1020.6
20190325034530 51 117 2.0 4.0 0.00 0.00 0.00 77 1020.6
20190325034519 51 117 2.0 5.0 0.00 0.00 0.00 77 1020.6
20190325034427 51 117 2.0 5.0 0.00 0.00 0.00 77 1020.6
20190325034417 51 117 3.0 4.0 0.00 0.00 0.00 77 1020.6
20190325034326 51 122 3.0 4.0 0.00 0.00 0.00 77 1020.7
20190325034315 51 126 3.0 5.0 0.00 0.00 0.00 77 1020.6
20190325034227 51 95 2.0 5.0 0.00 0.00 0.00 77 1020.6
20190325034215 51 122 2.0 4.0 0.00 0.00 0.00 77 1020.6
20190325034135 51 130 2.0 4.0 0.00 0.00 0.00 76 1020.6
20190325034125 51 130 2.0 4.0 0.00 0.00 0.00 76 1020.7
20190325034021 51 131 3.0 4.0 0.00 0.00 0.00 76 1020.6
20190325033928 51 107 2.0 4.0 0.00 0.00 0.00 76 1020.7
20190325033914 51 121 2.0 4.0 0.00 0.00 0.00 76 1020.7
20190325033826 51 115 2.0 4.0 0.00 0.00 0.00 77 1020.6
20190325033816 51 115 2.0 4.0 0.00 0.00 0.00 77 1020.7
20190325033716 51 119 3.0 4.0 0.00 0.00 0.00 77 1020.7
20190325033628 51 101 3.0 4.0 0.00 0.00 0.00 77 1020.7
20190325033617 51 97 3.0 4.0 0.00 0.00 0.00 77 1020.7
20190325033525 51 114 2.0 4.0 0.00 0.00 0.00 77 1020.7
20190325033520 51 114 2.0 3.0 0.00 0.00 0.00 77 1020.7
20190325033427 51 114 2.0 3.0 0.00 0.00 0.00 77 1020.6
20190325033417 51 112 2.0 4.0 0.00 0.00 0.00 77 1020.7
20190325033325 51 125 2.0 4.0 0.00 0.00 0.00 76 1020.7
20190325033317 51 109 2.0 3.0 0.00 0.00 0.00 76 1020.7
20190325033235 51 128 2.0 4.0 0.00 0.00 0.00 76 1020.7
20190325033225 51 106 2.0 3.0 0.00 0.00 0.00 76 1020.7
20190325033113 51 105 2.0 3.0 0.00 0.00 0.00 76 1020.7
20190325033034 51 113 2.0 4.0 0.00 0.00 0.00 76 1020.7
20190325033024 51 117 1.0 4.0 0.00 0.00 0.00 76 1020.7
20190325032926 51 92 1.0 4.0 0.00 0.00 0.00 76 1020.7
20190325032916 51 113 1.0 4.0 0.00 0.00 0.00 76 1020.7
20190325032825 51 113 2.0 4.0 0.00 0.00 0.00 76 1020.7
20190325032734 51 112 2.0 4.0 0.00 0.00 0.00 76 1020.6
20190325032722 51 117 2.0 4.0 0.00 0.00 0.00 76 1020.7
20190325032621 51 116 1.0 4.0 0.00 0.00 0.00 76 1020.6
20190325032530 51 119 2.0 4.0 0.00 0.00 0.00 76 1020.6
20190325032519 51 128 2.0 4.0 0.00 0.00 0.00 76 1020.6
20190325032430 51 107 1.0 4.0 0.00 0.00 0.00 76 1020.6
20190325032422 51 111 1.0 4.0 0.00 0.00 0.00 76 1020.6
20190325032321 51 113 1.0 4.0 0.00 0.00 0.00 75 1020.6
20190325032222 51 113 2.0 4.0 0.00 0.00 0.00 75 1020.6
20190325032133 52 116 1.0 5.0 0.00 0.00 0.00 75 1020.6
20190325032118 52 116 1.0 5.0 0.00 0.00 0.00 75 1020.7
20190325032022 52 122 1.0 5.0 0.00 0.00 0.00 75 1020.6
20190325031933 52 122 1.0 5.0 0.00 0.00 0.00 75 1020.6
20190325031820 52 45 1.0 5.0 0.00 0.00 0.00 75 1020.6
20190325031728 52 94 2.0 5.0 0.00 0.00 0.00 75 1020.6
20190325031616 52 111 2.0 5.0 0.00 0.00 0.00 75 1020.6
20190325031525 52 119 2.0 5.0 0.00 0.00 0.00 75 1020.6
20190325031413 52 104 2.0 5.0 0.00 0.00 0.00 74 1020.7
20190325031327 52 135 4.0 5.0 0.00 0.00 0.00 74 1020.7
20190325031215 52 128 3.0 4.0 0.00 0.00 0.00 74 1020.7
20190325031126 52 105 3.0 4.0 0.00 0.00 0.00 74 1020.7
20190325031034 52 115 2.0 4.0 0.00 0.00 0.00 74 1020.7
20190325030921 52 71 3.0 4.0 0.00 0.00 0.00 74 1020.7
20190325030834 52 104 3.0 4.0 0.00 0.00 0.00 74 1020.7
20190325030723 52 117 3.0 4.0 0.00 0.00 0.00 74 1020.7
20190325030634 52 126 3.0 3.0 0.00 0.00 0.00 74 1020.7
20190325030614 52 110 2.0 3.0 0.00 0.00 0.00 74 1020.8
20190325030523 52 121 2.0 3.0 0.00 0.00 0.00 74 1020.7
20190325030433 52 123 1.0 3.0 0.00 0.00 0.00 74 1020.7
20190325030325 52 94 1.0 3.0 0.00 0.00 0.00 74 1020.7
20190325030217 52 94 1.0 3.0 0.00 0.00 0.00 74 1020.7
20190325030136 52 105 1.0 4.0 0.00 0.00 0.00 74 1020.7
20190325030029 52 99 1.0 4.0 0.00 0.00 0.00 74 1020.7
20190325025918 52 99 1.0 4.0 0.00 0.00 0.00 74 1020.7
20190325025830 52 110 2.0 4.0 0.00 0.00 0.00 74 1020.7
20190325025828 52 110 2.0 4.0 0.00 0.00 0.00 74 1020.8
20190325025719 52 115 1.0 4.0 0.00 0.00 0.00 74 1020.7
20190325025627 52 108 1.0 4.0 0.00 0.00 0.00 74 1020.7
20190325025518 52 109 1.0 4.0 0.00 0.00 0.00 74 1020.7
20190325025426 52 109 1.0 4.0 0.00 0.00 0.00 74 1020.7
20190325025317 52 120 2.0 4.0 0.00 0.00 0.00 74 1020.8
20190325025228 52 119 1.0 3.0 0.00 0.00 0.00 74 1020.7
20190325025119 52 86 2.0 4.0 0.00 0.00 0.00 74 1020.8
20190325025032 52 92 2.0 5.0 0.00 0.00 0.00 74 1020.7
20190325025028 52 92 2.0 4.0 0.00 0.00 0.00 74 1020.7
20190325024919 52 106 2.0 5.0 0.00 0.00 0.00 74 1020.8
20190325024831 52 112 1.0 5.0 0.00 0.00 0.00 74 1020.8
20190325024827 52 107 1.0 5.0 0.00 0.00 0.00 74 1020.8
20190325024723 52 107 1.0 5.0 0.00 0.00 0.00 74 1020.7
20190325024630 52 107 2.0 5.0 0.00 0.00 0.00 74 1020.8
20190325024519 52 123 1.0 5.0 0.00 0.00 0.00 74 1020.8
20190325024427 52 105 2.0 5.0 0.00 0.00 0.00 74 1020.8
20190325024317 52 108 2.0 5.0 0.00 0.00 0.00 73 1020.8
20190325024231 52 120 3.0 5.0 0.00 0.00 0.00 73 1020.7
20190325024227 52 120 3.0 5.0 0.00 0.00 0.00 73 1020.8
20190325024135 52 92 3.0 5.0 0.00 0.00 0.00 73 1020.8
20190325024118 52 108 3.0 5.0 0.00 0.00 0.00 73 1020.8
20190325024027 52 117 2.0 4.0 0.00 0.00 0.00 73 1020.8
20190325024024 52 117 2.0 4.0 0.00 0.00 0.00 73 1020.7
20190325023935 52 111 2.0 4.0 0.00 0.00 0.00 73 1020.8
20190325023822 52 106 1.0 3.0 0.00 0.00 0.00 73 1020.8
20190325023730 52 106 1.0 3.0 0.00 0.00 0.00 73 1020.7
20190325023716 52 106 2.0 3.0 0.00 0.00 0.00 73 1020.8
20190325023622 52 136 2.0 3.0 0.00 0.00 0.00 73 1020.8
20190325023532 52 136 2.0 3.0 0.00 0.00 0.00 73 1020.7
20190325023513 52 123 2.0 3.0 0.00 0.00 0.00 73 1020.8
20190325023424 53 98 1.0 3.0 0.00 0.00 0.00 73 1020.8
20190325023419 52 98 1.0 3.0 0.00 0.00 0.00 73 1020.7
20190325023327 53 99 2.0 3.0 0.00 0.00 0.00 73 1020.8
20190325023315 53 92 2.0 3.0 0.00 0.00 0.00 73 1020.8
20190325023223 53 86 1.0 3.0 0.00 0.00 0.00 73 1020.8
20190325023220 53 86 1.0 3.0 0.00 0.00 0.00 73 1020.7
20190325023115 53 64 1.0 4.0 0.00 0.00 0.00 73 1020.8
20190325023026 53 113 0.0 4.0 0.00 0.00 0.00 73 1020.8
20190325023016 53 113 0.0 4.0 0.00 0.00 0.00 73 1020.7
20190325022934 53 40 0.0 4.0 0.00 0.00 0.00 73 1020.7
20190325022924 53 40 0.0 4.0 0.00 0.00 0.00 73 1020.8
20190325022822 53 40 1.0 4.0 0.00 0.00 0.00 73 1020.7
20190325022720 53 40 0.0 4.0 0.00 0.00 0.00 73 1020.7
20190325022623 53 40 1.0 4.0 0.00 0.00 0.00 72 1020.8
20190325022612 53 40 1.0 4.0 0.00 0.00 0.00 72 1020.7
20190325022524 53 40 1.0 4.0 0.00 0.00 0.00 72 1020.7
20190325022435 53 38 2.0 4.0 0.00 0.00 0.00 72 1020.7
20190325022422 53 38 2.0 4.0 0.00 0.00 0.00 72 1020.8
20190325022323 53 135 2.0 4.0 0.00 0.00 0.00 72 1020.7
20190325022313 53 148 1.0 4.0 0.00 0.00 0.00 72 1020.7
20190325022226 53 63 0.0 2.0 0.00 0.00 0.00 72 1020.7
20190325022117 53 63 0.0 2.0 0.00 0.00 0.00 72 1020.7
20190325022030 53 63 1.0 2.0 0.00 0.00 0.00 72 1020.7
20190325021921 53 63 1.0 2.0 0.00 0.00 0.00 72 1020.7
20190325021826 53 81 0.0 2.0 0.00 0.00 0.00 72 1020.7
20190325021734 53 82 0.0 2.0 0.00 0.00 0.00 72 1020.7
20190325021718 53 82 0.0 2.0 0.00 0.00 0.00 72 1020.6
20190325021625 53 82 1.0 2.0 0.00 0.00 0.00 72 1020.7
20190325021517 53 69 1.0 2.0 0.00 0.00 0.00 72 1020.7
20190325021426 53 82 1.0 2.0 0.00 0.00 0.00 72 1020.7
20190325021335 53 82 0.0 2.0 0.00 0.00 0.00 72 1020.8
20190325021219 53 111 1.0 2.0 0.00 0.00 0.00 72 1020.7
20190325021127 53 111 1.0 3.0 0.00 0.00 0.00 72 1020.8
20190325021018 53 112 1.0 3.0 0.00 0.00 0.00 72 1020.7
20190325020927 53 92 0.0 4.0 0.00 0.00 0.00 72 1020.7
20190325020835 53 114 0.0 4.0 0.00 0.00 0.00 72 1020.8
20190325020724 53 114 0.0 4.0 0.00 0.00 0.00 72 1020.7
20190325020627 53 114 1.0 4.0 0.00 0.00 0.00 73 1020.7
20190325020521 53 114 1.0 4.0 0.00 0.00 0.00 73 1020.8
20190325020431 53 114 1.0 4.0 0.00 0.00 0.00 73 1020.7
20190325020424 53 114 1.0 4.0 0.00 0.00 0.00 72 1020.7
20190325020322 53 114 1.0 4.0 0.00 0.00 0.00 72 1020.7
20190325020231 53 114 1.0 4.0 0.00 0.00 0.00 72 1020.7
20190325020221 53 114 1.0 4.0 0.00 0.00 0.00 72 1020.8
20190325020140 53 111 2.0 4.0 0.00 0.00 0.00 72 1020.8
20190325020130 53 111 3.0 4.0 0.00 0.00 0.00 72 1020.8
20190325020027 53 57 3.0 4.0 0.00 0.00 0.00 72 1020.8
20190325020018 53 94 4.0 4.0 0.00 0.00 0.00 72 1020.7
20190325015927 53 111 2.0 4.0 0.00 0.00 0.00 73 1020.7
20190325015915 53 101 2.0 4.0 0.00 0.00 0.00 73 1020.7
20190325015823 53 128 1.0 3.0 0.00 0.00 0.00 73 1020.7
20190325015816 53 128 1.0 2.0 0.00 0.00 0.00 73 1020.7
20190325015732 53 112 1.0 3.0 0.00 0.00 0.00 73 1020.7
20190325015725 53 112 1.0 2.0 0.00 0.00 0.00 73 1020.7
20190325015633 53 126 1.0 2.0 0.00 0.00 0.00 73 1020.7
20190325015620 53 126 1.0 3.0 0.00 0.00 0.00 73 1020.7
20190325015521 53 126 2.0 2.0 0.00 0.00 0.00 73 1020.7
20190325015512 53 132 2.0 3.0 0.00 0.00 0.00 73 1020.7
20190325015423 53 69 1.0 3.0 0.00 0.00 0.00 73 1020.7
20190325015413 53 69 1.0 2.0 0.00 0.00 0.00 73 1020.7
20190325015334 53 63 1.0 3.0 0.00 0.00 0.00 73 1020.8
20190325015324 53 63 1.0 2.0 0.00 0.00 0.00 73 1020.8
20190325015233 53 46 1.0 3.0 0.00 0.00 0.00 73 1020.7
20190325015223 53 46 1.0 3.0 0.00 0.00 0.00 73 1020.8
20190325015131 53 46 1.0 3.0 0.00 0.00 0.00 73 1020.7
20190325015121 53 46 1.0 3.0 0.00 0.00 0.00 73 1020.8
20190325015029 53 46 1.0 3.0 0.00 0.00 0.00 73 1020.8
20190325015019 53 46 1.0 4.0 0.00 0.00 0.00 73 1020.7
20190325014931 53 47 1.0 4.0 0.00 0.00 0.00 73 1020.8
20190325014922 53 48 1.0 4.0 0.00 0.00 0.00 73 1020.7
20190325014819 53 48 0.0 4.0 0.00 0.00 0.00 72 1020.7
20190325014721 53 48 1.0 4.0 0.00 0.00 0.00 72 1020.8
20190325014630 53 54 0.0 4.0 0.00 0.00 0.00 72 1020.7
20190325014619 53 73 0.0 4.0 0.00 0.00 0.00 72 1020.7
20190325014518 53 73 1.0 4.0 0.00 0.00 0.00 72 1020.8
20190325014429 53 55 2.0 5.0 0.00 0.00 0.00 72 1020.8
20190325014416 53 55 2.0 5.0 0.00 0.00 0.00 72 1020.7
20190325014317 53 67 1.0 5.0 0.00 0.00 0.00 72 1020.8
20190325014225 53 70 2.0 5.0 0.00 0.00 0.00 72 1020.8
20190325014216 53 69 2.0 5.0 0.00 0.00 0.00 72 1020.8
20190325014123 53 60 2.0 5.0 0.00 0.00 0.00 71 1020.7
20190325014115 53 60 2.0 5.0 0.00 0.00 0.00 71 1020.8
20190325014026 53 105 3.0 5.0 0.00 0.00 0.00 71 1020.8
20190325013923 53 30 2.0 5.0 0.00 0.00 0.00 71 1020.8
20190325013921 53 90 2.0 5.0 0.00 0.00 0.00 71 1020.9
20190325013828 53 76 2.0 5.0 0.00 0.00 0.00 71 1020.8
20190325013815 53 62 2.0 5.0 0.00 0.00 0.00 71 1020.7
20190325013723 53 111 3.0 5.0 0.00 0.00 0.00 71 1020.8
20190325013716 54 105 3.0 5.0 0.00 0.00 0.00 71 1020.8
20190325013632 54 52 2.0 5.0 0.00 0.00 0.00 71 1020.7
20190325013627 54 36 2.0 5.0 0.00 0.00 0.00 71 1020.8
20190325013516 54 43 1.0 4.0 0.00 0.00 0.00 71 1020.8
20190325013428 54 43 2.0 4.0 0.00 0.00 0.00 71 1020.7
20190325013426 54 42 2.0 4.0 0.00 0.00 0.00 71 1020.8
20190325013319 54 71 1.0 4.0 0.00 0.00 0.00 71 1020.8
20190325013228 53 101 1.0 4.0 0.00 0.00 0.00 70 1020.8
20190325013131 53 101 2.0 4.0 0.00 0.00 0.00 70 1020.8
20190325013020 53 109 2.0 4.0 0.00 0.00 0.00 70 1020.8
20190325012930 53 125 1.0 4.0 0.00 0.00 0.00 71 1020.8
20190325012928 53 89 1.0 4.0 0.00 0.00 0.00 71 1020.8
20190325012820 53 58 1.0 4.0 0.00 0.00 0.00 71 1020.9
20190325012731 53 53 1.0 4.0 0.00 0.00 0.00 71 1020.9
20190325012728 53 62 1.0 4.0 0.00 0.00 0.00 71 1020.8
20190325012616 53 102 1.0 4.0 0.00 0.00 0.00 70 1020.9
20190325012528 53 102 1.0 4.0 0.00 0.00 0.00 70 1020.8
20190325012525 53 115 1.0 4.0 0.00 0.00 0.00 70 1020.9
20190325012432 53 123 2.0 4.0 0.00 0.00 0.00 70 1020.9
20190325012415 53 123 2.0 4.0 0.00 0.00 0.00 70 1020.8
20190325012325 53 86 1.0 5.0 0.00 0.00 0.00 70 1020.9
20190325012235 53 101 2.0 5.0 0.00 0.00 0.00 70 1020.9
20190325012216 53 101 3.0 5.0 0.00 0.00 0.00 70 1020.9
20190325012123 53 104 3.0 5.0 0.00 0.00 0.00 70 1020.9
20190325012031 53 107 2.0 5.0 0.00 0.00 0.00 70 1020.9
20190325011918 53 112 3.0 5.0 0.00 0.00 0.00 70 1020.9
20190325011830 53 94 2.0 5.0 0.00 0.00 0.00 69 1020.9
20190325011826 53 86 2.0 5.0 0.00 0.00 0.00 69 1020.9
20190325011722 53 123 3.0 5.0 0.00 0.00 0.00 69 1020.8
20190325011629 54 105 3.0 5.0 0.00 0.00 0.00 69 1020.9
20190325011517 54 108 4.0 5.0 0.00 0.00 0.00 69 1020.9
20190325011429 54 98 2.0 4.0 0.00 0.00 0.00 69 1020.9
20190325011425 54 101 2.0 4.0 0.00 0.00 0.00 69 1020.9
20190325011317 54 121 2.0 4.0 0.00 0.00 0.00 69 1020.8
20190325011313 54 117 2.0 4.0 0.00 0.00 0.00 69 1020.9
20190325011229 54 105 2.0 5.0 0.00 0.00 0.00 70 1020.9
20190325011117 54 109 2.0 6.0 0.00 0.00 0.00 70 1020.9
20190325011026 54 47 1.0 6.0 0.00 0.00 0.00 70 1020.9
20190325010934 54 135 1.0 6.0 0.00 0.00 0.00 70 1020.9
20190325010820 54 135 2.0 6.0 0.00 0.00 0.00 70 1020.8
20190325010818 54 135 2.0 6.0 0.00 0.00 0.00 70 1020.9
20190325010732 54 136 2.0 6.0 0.00 0.00 0.00 70 1020.8
20190325010730 54 138 2.0 6.0 0.00 0.00 0.00 70 1020.9
20190325010620 54 119 2.0 6.0 0.00 0.00 0.00 70 1020.8
20190325010529 54 124 2.0 6.0 0.00 0.00 0.00 69 1020.8
20190325010437 54 125 3.0 6.0 0.00 0.00 0.00 69 1020.8
20190325010322 54 115 4.0 6.0 0.00 0.00 0.00 69 1020.7
20190325010320 54 119 4.0 6.0 0.00 0.00 0.00 69 1020.9
20190325010231 54 105 5.0 6.0 0.00 0.00 0.00 69 1020.7
20190325010135 54 106 2.0 5.0 0.00 0.00 0.00 69 1020.8
20190325010133 54 106 2.0 5.0 0.00 0.00 0.00 69 1020.9
20190325010029 54 118 3.0 5.0 0.00 0.00 0.00 69 1020.8
20190325010027 54 107 3.0 5.0 0.00 0.00 0.00 69 1020.9
20190325005935 54 92 3.0 5.0 0.00 0.00 0.00 69 1020.8
20190325005916 54 91 3.0 5.0 0.00 0.00 0.00 69 1020.7
20190325005826 54 121 1.0 5.0 0.00 0.00 0.00 69 1020.7
20190325005822 54 113 1.0 5.0 0.00 0.00 0.00 69 1020.8
20190325005734 54 128 2.0 5.0 0.00 0.00 0.00 69 1020.7
20190325005730 54 128 2.0 5.0 0.00 0.00 0.00 69 1020.8
20190325005626 54 114 2.0 5.0 0.00 0.00 0.00 69 1020.8
20190325005623 54 115 2.0 5.0 0.00 0.00 0.00 69 1020.8
20190325005532 54 129 3.0 5.0 0.00 0.00 0.00 69 1020.8
20190325005517 54 200 3.0 5.0 0.00 0.00 0.00 69 1020.8
20190325005425 54 153 3.0 5.0 0.00 0.00 0.00 69 1020.8
20190325005419 54 128 2.0 5.0 0.00 0.00 0.00 69 1020.8
20190325005328 54 128 2.0 5.0 0.00 0.00 0.00 69 1020.8
20190325005316 54 128 2.0 5.0 0.00 0.00 0.00 69 1020.7
20190325005225 54 133 2.0 5.0 0.00 0.00 0.00 69 1020.7
20190325005218 54 133 2.0 5.0 0.00 0.00 0.00 69 1020.8
20190325005132 54 63 1.0 5.0 0.00 0.00 0.00 68 1020.8
20190325005117 54 59 2.0 5.0 0.00 0.00 0.00 68 1020.8
20190325005025 54 109 4.0 5.0 0.00 0.00 0.00 68 1020.7
20190325005021 54 120 4.0 5.0 0.00 0.00 0.00 68 1020.9
20190325004933 54 107 3.0 5.0 0.00 0.00 0.00 68 1020.8
20190325004928 54 104 3.0 5.0 0.00 0.00 0.00 68 1020.9
20190325004822 54 131 3.0 5.0 0.00 0.00 0.00 68 1020.8
20190325004815 54 126 3.0 5.0 0.00 0.00 0.00 68 1020.8
20190325004730 54 119 4.0 5.0 0.00 0.00 0.00 68 1020.7
20190325004724 54 104 4.0 5.0 0.00 0.00 0.00 68 1020.8
20190325004625 54 63 3.0 4.0 0.00 0.00 0.00 68 1020.7
20190325004616 54 100 3.0 4.0 0.00 0.00 0.00 68 1020.9
20190325004524 55 126 2.0 4.0 0.00 0.00 0.00 69 1020.8
20190325004432 55 132 1.0 4.0 0.00 0.00 0.00 69 1020.9
20190325004422 55 132 2.0 4.0 0.00 0.00 0.00 69 1020.8
20190325004329 55 132 2.0 4.0 0.00 0.00 0.00 69 1020.8
20190325004321 55 132 2.0 4.0 0.00 0.00 0.00 69 1020.9
20190325004220 55 132 2.0 4.0 0.00 0.00 0.00 69 1020.8
20190325004115 55 136 2.0 4.0 0.00 0.00 0.00 69 1020.9
20190325004030 55 76 3.0 4.0 0.00 0.00 0.00 69 1020.9
20190325004024 55 76 3.0 4.0 0.00 0.00 0.00 69 1020.7
20190325003932 55 150 2.0 4.0 0.00 0.00 0.00 69 1020.8
20190325003918 55 148 2.0 4.0 0.00 0.00 0.00 69 1020.9
20190325003829 55 101 3.0 5.0 0.00 0.00 0.00 69 1020.9
20190325003820 55 126 3.0 5.0 0.00 0.00 0.00 69 1020.8
20190325003728 55 100 3.0 6.0 0.00 0.00 0.00 69 1020.8
20190325003721 55 73 2.0 5.0 0.00 0.00 0.00 69 1020.9
20190325003632 54 132 2.0 6.0 0.00 0.00 0.00 69 1020.8
20190325003616 54 138 2.0 6.0 0.00 0.00 0.00 69 1020.7
20190325003529 54 145 1.0 6.0 0.00 0.00 0.00 70 1020.8
20190325003524 54 145 1.0 6.0 0.00 0.00 0.00 70 1020.9
20190325003432 54 126 1.0 7.0 0.00 0.00 0.00 70 1020.9
20190325003416 54 126 1.0 7.0 0.00 0.00 0.00 70 1020.8
20190325003324 54 126 2.0 7.0 0.00 0.00 0.00 69 1020.8
20190325003320 54 126 2.0 7.0 0.00 0.00 0.00 69 1020.9
20190325003232 54 104 2.0 7.0 0.00 0.00 0.00 69 1020.9
20190325003230 54 105 2.0 7.0 0.00 0.00 0.00 69 1020.9
20190325003120 54 130 2.0 7.0 0.00 0.00 0.00 69 1020.9
20190325003117 54 188 2.0 7.0 0.00 0.00 0.00 69 1020.9
20190325003033 54 213 3.0 7.0 0.00 0.00 0.00 69 1020.9
20190325003031 54 225 3.0 7.0 0.00 0.00 0.00 69 1020.9
20190325002920 54 138 3.0 7.0 0.00 0.00 0.00 70 1020.8
20190325002830 54 93 3.0 7.0 0.00 0.00 0.00 70 1020.8
20190325002718 54 103 3.0 7.0 0.00 0.00 0.00 70 1020.9
20190325002629 54 104 4.0 7.0 0.00 0.00 0.00 70 1020.9
20190325002627 54 107 4.0 7.0 0.00 0.00 0.00 70 1020.9
20190325002519 54 107 3.0 7.0 0.00 0.00 0.00 70 1020.9
20190325002427 54 115 4.0 7.0 0.00 0.00 0.00 70 1020.9
20190325002335 54 133 5.0 7.0 0.00 0.00 0.00 70 1020.9
20190325002223 54 108 4.0 7.0 0.00 0.00 0.00 70 1020.9